<?xml version="1.0" encoding="UTF-8" standalone="no" ?>
<gpx xmlns="http://www.topografix.com/GPX/1/1" xmlns:xsi="http://www.w3.org/2001/XMLSchema-instance" xsi:schemaLocation="http://www.topografix.com/GPX/1/1 http://www.topografix.com/GPX/1/1/gpx.xsd" version="1.1" creator="VisuGPX - https://www.visugpx.com">
  <metadata>
    <name>GR6 étp 61 (29)-26/07/2020 Pellegrue Sauveterre de Guyenne</name>
  </metadata>
  <trk>
    <name><![CDATA[29-26/07/2020 Pellegrue Sauveterre de Guyenne]]></name>
    <trkseg>
      <trkpt lat="44.755" lon="0.05863">
        <ele>94.35</ele>
        <time>2020-07-26T07:03:10Z</time>
      </trkpt>
      <trkpt lat="44.755" lon="0.05863">
        <ele>91.94</ele>
        <time>2020-07-26T07:03:12Z</time>
      </trkpt>
      <trkpt lat="44.75496" lon="0.05859">
        <ele>91.94</ele>
        <time>2020-07-26T07:03:40Z</time>
      </trkpt>
      <trkpt lat="44.75497" lon="0.05861">
        <ele>91.94</ele>
        <time>2020-07-26T07:04:13Z</time>
      </trkpt>
      <trkpt lat="44.75497" lon="0.05863">
        <ele>91.94</ele>
        <time>2020-07-26T07:04:30Z</time>
      </trkpt>
      <trkpt lat="44.755" lon="0.05862">
        <ele>91.94</ele>
        <time>2020-07-26T07:04:51Z</time>
      </trkpt>
      <trkpt lat="44.75498" lon="0.05864">
        <ele>91.94</ele>
        <time>2020-07-26T07:05:30Z</time>
      </trkpt>
      <trkpt lat="44.75501" lon="0.05854">
        <ele>91.94</ele>
        <time>2020-07-26T07:05:39Z</time>
      </trkpt>
      <trkpt lat="44.75512" lon="0.05842">
        <ele>90.5</ele>
        <time>2020-07-26T07:05:51Z</time>
      </trkpt>
      <trkpt lat="44.75536" lon="0.0583">
        <ele>89.54</ele>
        <time>2020-07-26T07:06:13Z</time>
      </trkpt>
      <trkpt lat="44.75553" lon="0.05821">
        <ele>88.58</ele>
        <time>2020-07-26T07:06:29Z</time>
      </trkpt>
      <trkpt lat="44.75571" lon="0.05805">
        <ele>86.66</ele>
        <time>2020-07-26T07:06:45Z</time>
      </trkpt>
      <trkpt lat="44.75584" lon="0.05791">
        <ele>85.69</ele>
        <time>2020-07-26T07:07:07Z</time>
      </trkpt>
      <trkpt lat="44.75589" lon="0.05786">
        <ele>85.69</ele>
        <time>2020-07-26T07:07:24Z</time>
      </trkpt>
      <trkpt lat="44.75596" lon="0.05762">
        <ele>85.21</ele>
        <time>2020-07-26T07:07:44Z</time>
      </trkpt>
      <trkpt lat="44.75609" lon="0.05734">
        <ele>83.29</ele>
        <time>2020-07-26T07:08:05Z</time>
      </trkpt>
      <trkpt lat="44.7561" lon="0.05735">
        <ele>83.29</ele>
        <time>2020-07-26T07:08:28Z</time>
      </trkpt>
      <trkpt lat="44.75612" lon="0.05738">
        <ele>83.29</ele>
        <time>2020-07-26T07:08:51Z</time>
      </trkpt>
      <trkpt lat="44.75616" lon="0.05739">
        <ele>83.29</ele>
        <time>2020-07-26T07:09:12Z</time>
      </trkpt>
      <trkpt lat="44.7561" lon="0.05737">
        <ele>83.29</ele>
        <time>2020-07-26T07:09:39Z</time>
      </trkpt>
      <trkpt lat="44.7561" lon="0.05738">
        <ele>83.29</ele>
        <time>2020-07-26T07:10:05Z</time>
      </trkpt>
      <trkpt lat="44.75616" lon="0.05741">
        <ele>83.29</ele>
        <time>2020-07-26T07:10:34Z</time>
      </trkpt>
      <trkpt lat="44.75613" lon="0.05739">
        <ele>83.29</ele>
        <time>2020-07-26T07:11:08Z</time>
      </trkpt>
      <trkpt lat="44.75616" lon="0.05734">
        <ele>83.29</ele>
        <time>2020-07-26T07:11:38Z</time>
      </trkpt>
      <trkpt lat="44.75607" lon="0.05732">
        <ele>83.29</ele>
        <time>2020-07-26T07:12:15Z</time>
      </trkpt>
      <trkpt lat="44.7561" lon="0.05738">
        <ele>82.81</ele>
        <time>2020-07-26T07:12:56Z</time>
      </trkpt>
      <trkpt lat="44.75611" lon="0.05738">
        <ele>82.81</ele>
        <time>2020-07-26T07:13:16Z</time>
      </trkpt>
      <trkpt lat="44.75609" lon="0.0574">
        <ele>82.81</ele>
        <time>2020-07-26T07:13:37Z</time>
      </trkpt>
      <trkpt lat="44.75615" lon="0.05721">
        <ele>82.33</ele>
        <time>2020-07-26T07:13:54Z</time>
      </trkpt>
      <trkpt lat="44.75626" lon="0.0569">
        <ele>81.85</ele>
        <time>2020-07-26T07:14:16Z</time>
      </trkpt>
      <trkpt lat="44.75627" lon="0.05684">
        <ele>81.85</ele>
        <time>2020-07-26T07:14:19Z</time>
      </trkpt>
      <trkpt lat="44.75628" lon="0.05681">
        <ele>80.41</ele>
        <time>2020-07-26T07:14:21Z</time>
      </trkpt>
      <trkpt lat="44.75641" lon="0.05651">
        <ele>78.97</ele>
        <time>2020-07-26T07:14:43Z</time>
      </trkpt>
      <trkpt lat="44.75652" lon="0.05621">
        <ele>77.52</ele>
        <time>2020-07-26T07:15:03Z</time>
      </trkpt>
      <trkpt lat="44.75662" lon="0.05589">
        <ele>76.56</ele>
        <time>2020-07-26T07:15:23Z</time>
      </trkpt>
      <trkpt lat="44.75673" lon="0.05559">
        <ele>74.64</ele>
        <time>2020-07-26T07:15:44Z</time>
      </trkpt>
      <trkpt lat="44.75682" lon="0.05525">
        <ele>73.68</ele>
        <time>2020-07-26T07:16:05Z</time>
      </trkpt>
      <trkpt lat="44.75695" lon="0.05496">
        <ele>72.72</ele>
        <time>2020-07-26T07:16:26Z</time>
      </trkpt>
      <trkpt lat="44.75706" lon="0.05474">
        <ele>71.27</ele>
        <time>2020-07-26T07:16:45Z</time>
      </trkpt>
      <trkpt lat="44.75714" lon="0.05438">
        <ele>70.79</ele>
        <time>2020-07-26T07:17:06Z</time>
      </trkpt>
      <trkpt lat="44.75719" lon="0.05425">
        <ele>70.31</ele>
        <time>2020-07-26T07:17:15Z</time>
      </trkpt>
      <trkpt lat="44.75731" lon="0.05396">
        <ele>68.39</ele>
        <time>2020-07-26T07:17:36Z</time>
      </trkpt>
      <trkpt lat="44.75743" lon="0.05378">
        <ele>67.91</ele>
        <time>2020-07-26T07:17:54Z</time>
      </trkpt>
      <trkpt lat="44.75751" lon="0.05353">
        <ele>66.95</ele>
        <time>2020-07-26T07:18:15Z</time>
      </trkpt>
      <trkpt lat="44.75754" lon="0.05325">
        <ele>65.99</ele>
        <time>2020-07-26T07:18:34Z</time>
      </trkpt>
      <trkpt lat="44.75757" lon="0.05282">
        <ele>64.55</ele>
        <time>2020-07-26T07:18:58Z</time>
      </trkpt>
      <trkpt lat="44.75763" lon="0.05285">
        <ele>64.55</ele>
        <time>2020-07-26T07:19:12Z</time>
      </trkpt>
      <trkpt lat="44.75764" lon="0.05285">
        <ele>64.55</ele>
        <time>2020-07-26T07:19:39Z</time>
      </trkpt>
      <trkpt lat="44.75761" lon="0.05277">
        <ele>65.03</ele>
        <time>2020-07-26T07:20:07Z</time>
      </trkpt>
      <trkpt lat="44.75765" lon="0.05284">
        <ele>64.55</ele>
        <time>2020-07-26T07:20:32Z</time>
      </trkpt>
      <trkpt lat="44.75761" lon="0.05288">
        <ele>64.55</ele>
        <time>2020-07-26T07:21:04Z</time>
      </trkpt>
      <trkpt lat="44.75761" lon="0.05279">
        <ele>64.55</ele>
        <time>2020-07-26T07:21:23Z</time>
      </trkpt>
      <trkpt lat="44.7576" lon="0.05261">
        <ele>63.58</ele>
        <time>2020-07-26T07:21:33Z</time>
      </trkpt>
      <trkpt lat="44.75756" lon="0.05237">
        <ele>63.1</ele>
        <time>2020-07-26T07:21:52Z</time>
      </trkpt>
      <trkpt lat="44.7576" lon="0.05208">
        <ele>61.66</ele>
        <time>2020-07-26T07:22:16Z</time>
      </trkpt>
      <trkpt lat="44.75762" lon="0.05187">
        <ele>60.7</ele>
        <time>2020-07-26T07:22:33Z</time>
      </trkpt>
      <trkpt lat="44.75757" lon="0.05165">
        <ele>59.26</ele>
        <time>2020-07-26T07:22:51Z</time>
      </trkpt>
      <trkpt lat="44.75737" lon="0.05124">
        <ele>58.3</ele>
        <time>2020-07-26T07:23:10Z</time>
      </trkpt>
      <trkpt lat="44.75714" lon="0.05101">
        <ele>58.3</ele>
        <time>2020-07-26T07:23:28Z</time>
      </trkpt>
      <trkpt lat="44.75695" lon="0.05089">
        <ele>55.89</ele>
        <time>2020-07-26T07:23:47Z</time>
      </trkpt>
      <trkpt lat="44.75689" lon="0.05085">
        <ele>57.34</ele>
        <time>2020-07-26T07:23:52Z</time>
      </trkpt>
      <trkpt lat="44.75669" lon="0.05072">
        <ele>54.93</ele>
        <time>2020-07-26T07:24:11Z</time>
      </trkpt>
      <trkpt lat="44.75666" lon="0.0507">
        <ele>55.89</ele>
        <time>2020-07-26T07:24:13Z</time>
      </trkpt>
      <trkpt lat="44.7566" lon="0.05066">
        <ele>54.45</ele>
        <time>2020-07-26T07:24:19Z</time>
      </trkpt>
      <trkpt lat="44.75632" lon="0.05056">
        <ele>53.49</ele>
        <time>2020-07-26T07:24:37Z</time>
      </trkpt>
      <trkpt lat="44.75605" lon="0.05055">
        <ele>52.05</ele>
        <time>2020-07-26T07:25:01Z</time>
      </trkpt>
      <trkpt lat="44.7558" lon="0.05064">
        <ele>50.13</ele>
        <time>2020-07-26T07:25:26Z</time>
      </trkpt>
      <trkpt lat="44.75548" lon="0.05061">
        <ele>48.68</ele>
        <time>2020-07-26T07:25:47Z</time>
      </trkpt>
      <trkpt lat="44.75543" lon="0.05063">
        <ele>48.68</ele>
        <time>2020-07-26T07:26:12Z</time>
      </trkpt>
      <trkpt lat="44.7554" lon="0.05052">
        <ele>49.65</ele>
        <time>2020-07-26T07:26:39Z</time>
      </trkpt>
      <trkpt lat="44.75532" lon="0.0505">
        <ele>48.2</ele>
        <time>2020-07-26T07:27:04Z</time>
      </trkpt>
      <trkpt lat="44.75519" lon="0.05055">
        <ele>48.2</ele>
        <time>2020-07-26T07:27:19Z</time>
      </trkpt>
      <trkpt lat="44.75501" lon="0.05047">
        <ele>46.28</ele>
        <time>2020-07-26T07:27:38Z</time>
      </trkpt>
      <trkpt lat="44.75488" lon="0.05015">
        <ele>45.32</ele>
        <time>2020-07-26T07:27:59Z</time>
      </trkpt>
      <trkpt lat="44.75484" lon="0.04978">
        <ele>44.36</ele>
        <time>2020-07-26T07:28:24Z</time>
      </trkpt>
      <trkpt lat="44.75478" lon="0.04952">
        <ele>43.88</ele>
        <time>2020-07-26T07:28:46Z</time>
      </trkpt>
      <trkpt lat="44.75477" lon="0.04927">
        <ele>43.88</ele>
        <time>2020-07-26T07:29:05Z</time>
      </trkpt>
      <trkpt lat="44.75472" lon="0.04892">
        <ele>42.92</ele>
        <time>2020-07-26T07:29:28Z</time>
      </trkpt>
      <trkpt lat="44.75464" lon="0.04843">
        <ele>44.36</ele>
        <time>2020-07-26T07:29:50Z</time>
      </trkpt>
      <trkpt lat="44.75464" lon="0.04836">
        <ele>44.36</ele>
        <time>2020-07-26T07:29:56Z</time>
      </trkpt>
      <trkpt lat="44.75459" lon="0.04805">
        <ele>44.36</ele>
        <time>2020-07-26T07:30:18Z</time>
      </trkpt>
      <trkpt lat="44.75458" lon="0.04776">
        <ele>44.84</ele>
        <time>2020-07-26T07:30:39Z</time>
      </trkpt>
      <trkpt lat="44.75458" lon="0.04739">
        <ele>44.84</ele>
        <time>2020-07-26T07:30:59Z</time>
      </trkpt>
      <trkpt lat="44.75459" lon="0.04705">
        <ele>44.36</ele>
        <time>2020-07-26T07:31:19Z</time>
      </trkpt>
      <trkpt lat="44.75463" lon="0.0469">
        <ele>45.32</ele>
        <time>2020-07-26T07:31:27Z</time>
      </trkpt>
      <trkpt lat="44.75465" lon="0.04679">
        <ele>45.8</ele>
        <time>2020-07-26T07:31:34Z</time>
      </trkpt>
      <trkpt lat="44.75464" lon="0.04677">
        <ele>45.8</ele>
        <time>2020-07-26T07:31:37Z</time>
      </trkpt>
      <trkpt lat="44.75459" lon="0.04665">
        <ele>45.8</ele>
        <time>2020-07-26T07:31:51Z</time>
      </trkpt>
      <trkpt lat="44.75458" lon="0.04648">
        <ele>45.8</ele>
        <time>2020-07-26T07:32:07Z</time>
      </trkpt>
      <trkpt lat="44.75462" lon="0.04622">
        <ele>45.8</ele>
        <time>2020-07-26T07:32:25Z</time>
      </trkpt>
      <trkpt lat="44.75466" lon="0.04597">
        <ele>45.8</ele>
        <time>2020-07-26T07:32:41Z</time>
      </trkpt>
      <trkpt lat="44.75468" lon="0.04581">
        <ele>44.84</ele>
        <time>2020-07-26T07:32:51Z</time>
      </trkpt>
      <trkpt lat="44.75473" lon="0.04554">
        <ele>45.8</ele>
        <time>2020-07-26T07:33:11Z</time>
      </trkpt>
      <trkpt lat="44.75477" lon="0.04531">
        <ele>46.28</ele>
        <time>2020-07-26T07:33:29Z</time>
      </trkpt>
      <trkpt lat="44.75478" lon="0.045">
        <ele>46.28</ele>
        <time>2020-07-26T07:33:49Z</time>
      </trkpt>
      <trkpt lat="44.75482" lon="0.04467">
        <ele>46.76</ele>
        <time>2020-07-26T07:34:07Z</time>
      </trkpt>
      <trkpt lat="44.75487" lon="0.04432">
        <ele>47.72</ele>
        <time>2020-07-26T07:34:29Z</time>
      </trkpt>
      <trkpt lat="44.75496" lon="0.04401">
        <ele>48.2</ele>
        <time>2020-07-26T07:34:51Z</time>
      </trkpt>
      <trkpt lat="44.75505" lon="0.04371">
        <ele>49.16</ele>
        <time>2020-07-26T07:35:10Z</time>
      </trkpt>
      <trkpt lat="44.75512" lon="0.04346">
        <ele>49.65</ele>
        <time>2020-07-26T07:35:28Z</time>
      </trkpt>
      <trkpt lat="44.75514" lon="0.04334">
        <ele>49.65</ele>
        <time>2020-07-26T07:35:35Z</time>
      </trkpt>
      <trkpt lat="44.75518" lon="0.04308">
        <ele>49.65</ele>
        <time>2020-07-26T07:35:53Z</time>
      </trkpt>
      <trkpt lat="44.75522" lon="0.04291">
        <ele>49.65</ele>
        <time>2020-07-26T07:36:04Z</time>
      </trkpt>
      <trkpt lat="44.75522" lon="0.0429">
        <ele>49.65</ele>
        <time>2020-07-26T07:36:05Z</time>
      </trkpt>
      <trkpt lat="44.75525" lon="0.04285">
        <ele>50.13</ele>
        <time>2020-07-26T07:36:09Z</time>
      </trkpt>
      <trkpt lat="44.75527" lon="0.04278">
        <ele>50.13</ele>
        <time>2020-07-26T07:36:13Z</time>
      </trkpt>
      <trkpt lat="44.75531" lon="0.04271">
        <ele>50.13</ele>
        <time>2020-07-26T07:36:18Z</time>
      </trkpt>
      <trkpt lat="44.75532" lon="0.04268">
        <ele>50.13</ele>
        <time>2020-07-26T07:36:20Z</time>
      </trkpt>
      <trkpt lat="44.75545" lon="0.04251">
        <ele>50.13</ele>
        <time>2020-07-26T07:36:37Z</time>
      </trkpt>
      <trkpt lat="44.75563" lon="0.04229">
        <ele>51.09</ele>
        <time>2020-07-26T07:37:00Z</time>
      </trkpt>
      <trkpt lat="44.75579" lon="0.042">
        <ele>52.05</ele>
        <time>2020-07-26T07:37:23Z</time>
      </trkpt>
      <trkpt lat="44.75581" lon="0.04192">
        <ele>52.53</ele>
        <time>2020-07-26T07:37:28Z</time>
      </trkpt>
      <trkpt lat="44.75581" lon="0.04188">
        <ele>52.53</ele>
        <time>2020-07-26T07:37:30Z</time>
      </trkpt>
      <trkpt lat="44.75584" lon="0.04155">
        <ele>53.49</ele>
        <time>2020-07-26T07:37:52Z</time>
      </trkpt>
      <trkpt lat="44.75583" lon="0.04133">
        <ele>53.97</ele>
        <time>2020-07-26T07:38:06Z</time>
      </trkpt>
      <trkpt lat="44.7559" lon="0.04098">
        <ele>55.41</ele>
        <time>2020-07-26T07:38:30Z</time>
      </trkpt>
      <trkpt lat="44.75603" lon="0.04071">
        <ele>57.34</ele>
        <time>2020-07-26T07:38:52Z</time>
      </trkpt>
      <trkpt lat="44.75617" lon="0.04051">
        <ele>58.3</ele>
        <time>2020-07-26T07:39:12Z</time>
      </trkpt>
      <trkpt lat="44.75633" lon="0.04032">
        <ele>59.74</ele>
        <time>2020-07-26T07:39:34Z</time>
      </trkpt>
      <trkpt lat="44.75643" lon="0.03999">
        <ele>61.18</ele>
        <time>2020-07-26T07:39:56Z</time>
      </trkpt>
      <trkpt lat="44.75635" lon="0.03982">
        <ele>61.66</ele>
        <time>2020-07-26T07:40:10Z</time>
      </trkpt>
      <trkpt lat="44.75615" lon="0.0397">
        <ele>63.1</ele>
        <time>2020-07-26T07:40:29Z</time>
      </trkpt>
      <trkpt lat="44.75597" lon="0.0396">
        <ele>64.07</ele>
        <time>2020-07-26T07:40:48Z</time>
      </trkpt>
      <trkpt lat="44.75577" lon="0.03952">
        <ele>65.99</ele>
        <time>2020-07-26T07:41:08Z</time>
      </trkpt>
      <trkpt lat="44.75559" lon="0.0394">
        <ele>67.91</ele>
        <time>2020-07-26T07:41:27Z</time>
      </trkpt>
      <trkpt lat="44.7555" lon="0.03935">
        <ele>68.39</ele>
        <time>2020-07-26T07:41:37Z</time>
      </trkpt>
      <trkpt lat="44.7554" lon="0.03925">
        <ele>69.35</ele>
        <time>2020-07-26T07:41:51Z</time>
      </trkpt>
      <trkpt lat="44.75528" lon="0.03903">
        <ele>70.79</ele>
        <time>2020-07-26T07:42:11Z</time>
      </trkpt>
      <trkpt lat="44.75515" lon="0.03879">
        <ele>72.24</ele>
        <time>2020-07-26T07:42:30Z</time>
      </trkpt>
      <trkpt lat="44.75498" lon="0.03864">
        <ele>73.68</ele>
        <time>2020-07-26T07:42:53Z</time>
      </trkpt>
      <trkpt lat="44.7548" lon="0.03855">
        <ele>75.6</ele>
        <time>2020-07-26T07:43:12Z</time>
      </trkpt>
      <trkpt lat="44.75463" lon="0.03837">
        <ele>76.08</ele>
        <time>2020-07-26T07:43:32Z</time>
      </trkpt>
      <trkpt lat="44.75453" lon="0.03812">
        <ele>77.52</ele>
        <time>2020-07-26T07:43:53Z</time>
      </trkpt>
      <trkpt lat="44.75446" lon="0.0379">
        <ele>78.97</ele>
        <time>2020-07-26T07:44:12Z</time>
      </trkpt>
      <trkpt lat="44.75437" lon="0.03763">
        <ele>79.93</ele>
        <time>2020-07-26T07:44:32Z</time>
      </trkpt>
      <trkpt lat="44.75428" lon="0.03738">
        <ele>81.85</ele>
        <time>2020-07-26T07:44:51Z</time>
      </trkpt>
      <trkpt lat="44.75426" lon="0.03712">
        <ele>82.81</ele>
        <time>2020-07-26T07:45:10Z</time>
      </trkpt>
      <trkpt lat="44.75428" lon="0.03706">
        <ele>82.81</ele>
        <time>2020-07-26T07:45:14Z</time>
      </trkpt>
      <trkpt lat="44.75429" lon="0.03698">
        <ele>83.29</ele>
        <time>2020-07-26T07:45:19Z</time>
      </trkpt>
      <trkpt lat="44.75441" lon="0.03676">
        <ele>84.25</ele>
        <time>2020-07-26T07:45:38Z</time>
      </trkpt>
      <trkpt lat="44.75459" lon="0.03659">
        <ele>85.69</ele>
        <time>2020-07-26T07:46:01Z</time>
      </trkpt>
      <trkpt lat="44.75459" lon="0.03646">
        <ele>86.18</ele>
        <time>2020-07-26T07:46:17Z</time>
      </trkpt>
      <trkpt lat="44.75461" lon="0.03651">
        <ele>86.18</ele>
        <time>2020-07-26T07:46:34Z</time>
      </trkpt>
      <trkpt lat="44.75465" lon="0.03656">
        <ele>86.18</ele>
        <time>2020-07-26T07:46:55Z</time>
      </trkpt>
      <trkpt lat="44.75464" lon="0.03651">
        <ele>86.18</ele>
        <time>2020-07-26T07:47:25Z</time>
      </trkpt>
      <trkpt lat="44.7547" lon="0.03648">
        <ele>86.66</ele>
        <time>2020-07-26T07:47:51Z</time>
      </trkpt>
      <trkpt lat="44.75489" lon="0.03629">
        <ele>88.1</ele>
        <time>2020-07-26T07:48:13Z</time>
      </trkpt>
      <trkpt lat="44.75512" lon="0.03629">
        <ele>89.54</ele>
        <time>2020-07-26T07:48:36Z</time>
      </trkpt>
      <trkpt lat="44.75527" lon="0.0363">
        <ele>90.5</ele>
        <time>2020-07-26T07:48:49Z</time>
      </trkpt>
      <trkpt lat="44.75546" lon="0.0363">
        <ele>91.46</ele>
        <time>2020-07-26T07:49:07Z</time>
      </trkpt>
      <trkpt lat="44.75559" lon="0.03626">
        <ele>92.42</ele>
        <time>2020-07-26T07:49:20Z</time>
      </trkpt>
      <trkpt lat="44.75577" lon="0.03609">
        <ele>93.39</ele>
        <time>2020-07-26T07:49:39Z</time>
      </trkpt>
      <trkpt lat="44.75585" lon="0.03591">
        <ele>94.35</ele>
        <time>2020-07-26T07:49:55Z</time>
      </trkpt>
      <trkpt lat="44.75594" lon="0.0357">
        <ele>95.79</ele>
        <time>2020-07-26T07:50:13Z</time>
      </trkpt>
      <trkpt lat="44.75604" lon="0.03544">
        <ele>96.75</ele>
        <time>2020-07-26T07:50:33Z</time>
      </trkpt>
      <trkpt lat="44.7561" lon="0.03519">
        <ele>98.19</ele>
        <time>2020-07-26T07:50:53Z</time>
      </trkpt>
      <trkpt lat="44.75618" lon="0.035">
        <ele>98.67</ele>
        <time>2020-07-26T07:51:09Z</time>
      </trkpt>
      <trkpt lat="44.75621" lon="0.03492">
        <ele>98.67</ele>
        <time>2020-07-26T07:51:15Z</time>
      </trkpt>
      <trkpt lat="44.75634" lon="0.0346">
        <ele>100.11</ele>
        <time>2020-07-26T07:51:39Z</time>
      </trkpt>
      <trkpt lat="44.7564" lon="0.03446">
        <ele>101.08</ele>
        <time>2020-07-26T07:51:51Z</time>
      </trkpt>
      <trkpt lat="44.75655" lon="0.03415">
        <ele>101.08</ele>
        <time>2020-07-26T07:52:13Z</time>
      </trkpt>
      <trkpt lat="44.75666" lon="0.03401">
        <ele>100.11</ele>
        <time>2020-07-26T07:52:26Z</time>
      </trkpt>
      <trkpt lat="44.75679" lon="0.0339">
        <ele>100.11</ele>
        <time>2020-07-26T07:52:39Z</time>
      </trkpt>
      <trkpt lat="44.75698" lon="0.03367">
        <ele>99.15</ele>
        <time>2020-07-26T07:53:00Z</time>
      </trkpt>
      <trkpt lat="44.75719" lon="0.0335">
        <ele>98.67</ele>
        <time>2020-07-26T07:53:22Z</time>
      </trkpt>
      <trkpt lat="44.75739" lon="0.03334">
        <ele>98.67</ele>
        <time>2020-07-26T07:53:42Z</time>
      </trkpt>
      <trkpt lat="44.7576" lon="0.03317">
        <ele>100.11</ele>
        <time>2020-07-26T07:54:04Z</time>
      </trkpt>
      <trkpt lat="44.75782" lon="0.03299">
        <ele>100.6</ele>
        <time>2020-07-26T07:54:27Z</time>
      </trkpt>
      <trkpt lat="44.75801" lon="0.03284">
        <ele>101.56</ele>
        <time>2020-07-26T07:54:46Z</time>
      </trkpt>
      <trkpt lat="44.75821" lon="0.03268">
        <ele>102.04</ele>
        <time>2020-07-26T07:55:07Z</time>
      </trkpt>
      <trkpt lat="44.75843" lon="0.03247">
        <ele>103.48</ele>
        <time>2020-07-26T07:55:32Z</time>
      </trkpt>
      <trkpt lat="44.7586" lon="0.03224">
        <ele>104.44</ele>
        <time>2020-07-26T07:55:52Z</time>
      </trkpt>
      <trkpt lat="44.75875" lon="0.03191">
        <ele>105.88</ele>
        <time>2020-07-26T07:56:17Z</time>
      </trkpt>
      <trkpt lat="44.75881" lon="0.03162">
        <ele>107.32</ele>
        <time>2020-07-26T07:56:38Z</time>
      </trkpt>
      <trkpt lat="44.75889" lon="0.0314">
        <ele>108.29</ele>
        <time>2020-07-26T07:56:56Z</time>
      </trkpt>
      <trkpt lat="44.75901" lon="0.03117">
        <ele>106.84</ele>
        <time>2020-07-26T07:57:16Z</time>
      </trkpt>
      <trkpt lat="44.75917" lon="0.03089">
        <ele>106.84</ele>
        <time>2020-07-26T07:57:39Z</time>
      </trkpt>
      <trkpt lat="44.75921" lon="0.03087">
        <ele>106.84</ele>
        <time>2020-07-26T07:58:00Z</time>
      </trkpt>
      <trkpt lat="44.75918" lon="0.03085">
        <ele>107.32</ele>
        <time>2020-07-26T07:58:21Z</time>
      </trkpt>
      <trkpt lat="44.75917" lon="0.03083">
        <ele>107.32</ele>
        <time>2020-07-26T07:58:47Z</time>
      </trkpt>
      <trkpt lat="44.75916" lon="0.03088">
        <ele>107.32</ele>
        <time>2020-07-26T07:59:15Z</time>
      </trkpt>
      <trkpt lat="44.75921" lon="0.03085">
        <ele>107.32</ele>
        <time>2020-07-26T07:59:42Z</time>
      </trkpt>
      <trkpt lat="44.7592" lon="0.03085">
        <ele>107.32</ele>
        <time>2020-07-26T08:00:13Z</time>
      </trkpt>
      <trkpt lat="44.75921" lon="0.03088">
        <ele>107.32</ele>
        <time>2020-07-26T08:00:35Z</time>
      </trkpt>
      <trkpt lat="44.75922" lon="0.0309">
        <ele>107.32</ele>
        <time>2020-07-26T08:00:56Z</time>
      </trkpt>
      <trkpt lat="44.75929" lon="0.03075">
        <ele>107.32</ele>
        <time>2020-07-26T08:01:12Z</time>
      </trkpt>
      <trkpt lat="44.75932" lon="0.03067">
        <ele>106.36</ele>
        <time>2020-07-26T08:01:18Z</time>
      </trkpt>
      <trkpt lat="44.75952" lon="0.03036">
        <ele>106.84</ele>
        <time>2020-07-26T08:01:40Z</time>
      </trkpt>
      <trkpt lat="44.7596" lon="0.03026">
        <ele>104.92</ele>
        <time>2020-07-26T08:01:48Z</time>
      </trkpt>
      <trkpt lat="44.75961" lon="0.03024">
        <ele>106.36</ele>
        <time>2020-07-26T08:01:50Z</time>
      </trkpt>
      <trkpt lat="44.75969" lon="0.0301">
        <ele>106.36</ele>
        <time>2020-07-26T08:02:00Z</time>
      </trkpt>
      <trkpt lat="44.75971" lon="0.03003">
        <ele>106.36</ele>
        <time>2020-07-26T08:02:05Z</time>
      </trkpt>
      <trkpt lat="44.75975" lon="0.02998">
        <ele>106.36</ele>
        <time>2020-07-26T08:02:09Z</time>
      </trkpt>
      <trkpt lat="44.75988" lon="0.02973">
        <ele>104.44</ele>
        <time>2020-07-26T08:02:27Z</time>
      </trkpt>
      <trkpt lat="44.76002" lon="0.02945">
        <ele>106.36</ele>
        <time>2020-07-26T08:02:47Z</time>
      </trkpt>
      <trkpt lat="44.76015" lon="0.02921">
        <ele>106.84</ele>
        <time>2020-07-26T08:03:08Z</time>
      </trkpt>
      <trkpt lat="44.7602" lon="0.02908">
        <ele>107.81</ele>
        <time>2020-07-26T08:03:24Z</time>
      </trkpt>
      <trkpt lat="44.76031" lon="0.02877">
        <ele>108.29</ele>
        <time>2020-07-26T08:03:46Z</time>
      </trkpt>
      <trkpt lat="44.76045" lon="0.02849">
        <ele>108.77</ele>
        <time>2020-07-26T08:04:07Z</time>
      </trkpt>
      <trkpt lat="44.76056" lon="0.0282">
        <ele>109.73</ele>
        <time>2020-07-26T08:04:29Z</time>
      </trkpt>
      <trkpt lat="44.76068" lon="0.02791">
        <ele>110.21</ele>
        <time>2020-07-26T08:04:50Z</time>
      </trkpt>
      <trkpt lat="44.76079" lon="0.02765">
        <ele>110.69</ele>
        <time>2020-07-26T08:05:09Z</time>
      </trkpt>
      <trkpt lat="44.76093" lon="0.02737">
        <ele>111.65</ele>
        <time>2020-07-26T08:05:31Z</time>
      </trkpt>
      <trkpt lat="44.76096" lon="0.02719">
        <ele>112.61</ele>
        <time>2020-07-26T08:05:49Z</time>
      </trkpt>
      <trkpt lat="44.76097" lon="0.02702">
        <ele>112.61</ele>
        <time>2020-07-26T08:06:07Z</time>
      </trkpt>
      <trkpt lat="44.76098" lon="0.02689">
        <ele>113.09</ele>
        <time>2020-07-26T08:06:25Z</time>
      </trkpt>
      <trkpt lat="44.76098" lon="0.02699">
        <ele>113.09</ele>
        <time>2020-07-26T08:06:42Z</time>
      </trkpt>
      <trkpt lat="44.76098" lon="0.02702">
        <ele>113.09</ele>
        <time>2020-07-26T08:07:07Z</time>
      </trkpt>
      <trkpt lat="44.761" lon="0.0271">
        <ele>111.65</ele>
        <time>2020-07-26T08:07:21Z</time>
      </trkpt>
      <trkpt lat="44.76101" lon="0.02713">
        <ele>111.65</ele>
        <time>2020-07-26T08:07:23Z</time>
      </trkpt>
      <trkpt lat="44.76102" lon="0.02719">
        <ele>112.61</ele>
        <time>2020-07-26T08:07:39Z</time>
      </trkpt>
      <trkpt lat="44.761" lon="0.02709">
        <ele>112.61</ele>
        <time>2020-07-26T08:07:55Z</time>
      </trkpt>
      <trkpt lat="44.76099" lon="0.02708">
        <ele>113.09</ele>
        <time>2020-07-26T08:08:17Z</time>
      </trkpt>
      <trkpt lat="44.761" lon="0.02707">
        <ele>112.61</ele>
        <time>2020-07-26T08:08:48Z</time>
      </trkpt>
      <trkpt lat="44.761" lon="0.02707">
        <ele>112.61</ele>
        <time>2020-07-26T08:09:11Z</time>
      </trkpt>
      <trkpt lat="44.76098" lon="0.0271">
        <ele>112.61</ele>
        <time>2020-07-26T08:09:32Z</time>
      </trkpt>
      <trkpt lat="44.76098" lon="0.02708">
        <ele>112.61</ele>
        <time>2020-07-26T08:09:58Z</time>
      </trkpt>
      <trkpt lat="44.761" lon="0.02708">
        <ele>112.61</ele>
        <time>2020-07-26T08:10:22Z</time>
      </trkpt>
      <trkpt lat="44.76098" lon="0.0271">
        <ele>112.61</ele>
        <time>2020-07-26T08:10:45Z</time>
      </trkpt>
      <trkpt lat="44.76099" lon="0.02709">
        <ele>112.61</ele>
        <time>2020-07-26T08:11:14Z</time>
      </trkpt>
      <trkpt lat="44.76099" lon="0.02709">
        <ele>112.61</ele>
        <time>2020-07-26T08:11:42Z</time>
      </trkpt>
      <trkpt lat="44.76101" lon="0.02708">
        <ele>112.61</ele>
        <time>2020-07-26T08:11:57Z</time>
      </trkpt>
      <trkpt lat="44.76101" lon="0.02706">
        <ele>112.61</ele>
        <time>2020-07-26T08:12:24Z</time>
      </trkpt>
      <trkpt lat="44.761" lon="0.02708">
        <ele>112.61</ele>
        <time>2020-07-26T08:12:52Z</time>
      </trkpt>
      <trkpt lat="44.76096" lon="0.02707">
        <ele>112.61</ele>
        <time>2020-07-26T08:13:15Z</time>
      </trkpt>
      <trkpt lat="44.76095" lon="0.02697">
        <ele>112.61</ele>
        <time>2020-07-26T08:13:27Z</time>
      </trkpt>
      <trkpt lat="44.76096" lon="0.02686">
        <ele>111.17</ele>
        <time>2020-07-26T08:13:37Z</time>
      </trkpt>
      <trkpt lat="44.76099" lon="0.02686">
        <ele>111.17</ele>
        <time>2020-07-26T08:13:56Z</time>
      </trkpt>
      <trkpt lat="44.76097" lon="0.02682">
        <ele>112.61</ele>
        <time>2020-07-26T08:14:16Z</time>
      </trkpt>
      <trkpt lat="44.76092" lon="0.02671">
        <ele>112.61</ele>
        <time>2020-07-26T08:14:24Z</time>
      </trkpt>
      <trkpt lat="44.7609" lon="0.02665">
        <ele>111.17</ele>
        <time>2020-07-26T08:14:28Z</time>
      </trkpt>
      <trkpt lat="44.76085" lon="0.02632">
        <ele>111.65</ele>
        <time>2020-07-26T08:14:47Z</time>
      </trkpt>
      <trkpt lat="44.76081" lon="0.02597">
        <ele>111.17</ele>
        <time>2020-07-26T08:15:06Z</time>
      </trkpt>
      <trkpt lat="44.76079" lon="0.02585">
        <ele>111.65</ele>
        <time>2020-07-26T08:15:12Z</time>
      </trkpt>
      <trkpt lat="44.76078" lon="0.02567">
        <ele>109.73</ele>
        <time>2020-07-26T08:15:22Z</time>
      </trkpt>
      <trkpt lat="44.76077" lon="0.02561">
        <ele>111.17</ele>
        <time>2020-07-26T08:15:25Z</time>
      </trkpt>
      <trkpt lat="44.76076" lon="0.02544">
        <ele>110.21</ele>
        <time>2020-07-26T08:15:35Z</time>
      </trkpt>
      <trkpt lat="44.76075" lon="0.02536">
        <ele>111.17</ele>
        <time>2020-07-26T08:15:39Z</time>
      </trkpt>
      <trkpt lat="44.76074" lon="0.02501">
        <ele>110.69</ele>
        <time>2020-07-26T08:15:59Z</time>
      </trkpt>
      <trkpt lat="44.76073" lon="0.02495">
        <ele>109.25</ele>
        <time>2020-07-26T08:16:02Z</time>
      </trkpt>
      <trkpt lat="44.76077" lon="0.02457">
        <ele>109.25</ele>
        <time>2020-07-26T08:16:22Z</time>
      </trkpt>
      <trkpt lat="44.76077" lon="0.02453">
        <ele>107.81</ele>
        <time>2020-07-26T08:16:24Z</time>
      </trkpt>
      <trkpt lat="44.76078" lon="0.02434">
        <ele>106.84</ele>
        <time>2020-07-26T08:16:35Z</time>
      </trkpt>
      <trkpt lat="44.76081" lon="0.02398">
        <ele>105.88</ele>
        <time>2020-07-26T08:16:56Z</time>
      </trkpt>
      <trkpt lat="44.76081" lon="0.02365">
        <ele>105.4</ele>
        <time>2020-07-26T08:17:15Z</time>
      </trkpt>
      <trkpt lat="44.76084" lon="0.02348">
        <ele>104.92</ele>
        <time>2020-07-26T08:17:32Z</time>
      </trkpt>
      <trkpt lat="44.76084" lon="0.02329">
        <ele>104.92</ele>
        <time>2020-07-26T08:17:47Z</time>
      </trkpt>
      <trkpt lat="44.76084" lon="0.02301">
        <ele>103.48</ele>
        <time>2020-07-26T08:18:05Z</time>
      </trkpt>
      <trkpt lat="44.76085" lon="0.02266">
        <ele>103</ele>
        <time>2020-07-26T08:18:26Z</time>
      </trkpt>
      <trkpt lat="44.76086" lon="0.02235">
        <ele>102.04</ele>
        <time>2020-07-26T08:18:45Z</time>
      </trkpt>
      <trkpt lat="44.76087" lon="0.02194">
        <ele>100.11</ele>
        <time>2020-07-26T08:19:11Z</time>
      </trkpt>
      <trkpt lat="44.7609" lon="0.02152">
        <ele>98.19</ele>
        <time>2020-07-26T08:19:33Z</time>
      </trkpt>
      <trkpt lat="44.76091" lon="0.02141">
        <ele>98.19</ele>
        <time>2020-07-26T08:19:55Z</time>
      </trkpt>
      <trkpt lat="44.76091" lon="0.02115">
        <ele>97.23</ele>
        <time>2020-07-26T08:20:12Z</time>
      </trkpt>
      <trkpt lat="44.76093" lon="0.02085">
        <ele>98.19</ele>
        <time>2020-07-26T08:20:29Z</time>
      </trkpt>
      <trkpt lat="44.76096" lon="0.02057">
        <ele>98.19</ele>
        <time>2020-07-26T08:20:44Z</time>
      </trkpt>
      <trkpt lat="44.76095" lon="0.02018">
        <ele>97.71</ele>
        <time>2020-07-26T08:21:06Z</time>
      </trkpt>
      <trkpt lat="44.76095" lon="0.01981">
        <ele>96.27</ele>
        <time>2020-07-26T08:21:27Z</time>
      </trkpt>
      <trkpt lat="44.76097" lon="0.0195">
        <ele>95.31</ele>
        <time>2020-07-26T08:21:44Z</time>
      </trkpt>
      <trkpt lat="44.76098" lon="0.01912">
        <ele>94.35</ele>
        <time>2020-07-26T08:22:07Z</time>
      </trkpt>
      <trkpt lat="44.76101" lon="0.01874">
        <ele>92.42</ele>
        <time>2020-07-26T08:22:28Z</time>
      </trkpt>
      <trkpt lat="44.76099" lon="0.01836">
        <ele>90.98</ele>
        <time>2020-07-26T08:22:50Z</time>
      </trkpt>
      <trkpt lat="44.76102" lon="0.01804">
        <ele>89.54</ele>
        <time>2020-07-26T08:23:10Z</time>
      </trkpt>
      <trkpt lat="44.76104" lon="0.01762">
        <ele>88.1</ele>
        <time>2020-07-26T08:23:31Z</time>
      </trkpt>
      <trkpt lat="44.76106" lon="0.01727">
        <ele>88.1</ele>
        <time>2020-07-26T08:23:51Z</time>
      </trkpt>
      <trkpt lat="44.76111" lon="0.01696">
        <ele>90.02</ele>
        <time>2020-07-26T08:24:12Z</time>
      </trkpt>
      <trkpt lat="44.76117" lon="0.01658">
        <ele>90.5</ele>
        <time>2020-07-26T08:24:34Z</time>
      </trkpt>
      <trkpt lat="44.76125" lon="0.01631">
        <ele>91.46</ele>
        <time>2020-07-26T08:24:50Z</time>
      </trkpt>
      <trkpt lat="44.76131" lon="0.01604">
        <ele>91.94</ele>
        <time>2020-07-26T08:25:09Z</time>
      </trkpt>
      <trkpt lat="44.76141" lon="0.01573">
        <ele>92.9</ele>
        <time>2020-07-26T08:25:28Z</time>
      </trkpt>
      <trkpt lat="44.76149" lon="0.01544">
        <ele>94.35</ele>
        <time>2020-07-26T08:25:48Z</time>
      </trkpt>
      <trkpt lat="44.76154" lon="0.0153">
        <ele>94.83</ele>
        <time>2020-07-26T08:25:57Z</time>
      </trkpt>
      <trkpt lat="44.76161" lon="0.01501">
        <ele>96.27</ele>
        <time>2020-07-26T08:26:16Z</time>
      </trkpt>
      <trkpt lat="44.76169" lon="0.01471">
        <ele>97.23</ele>
        <time>2020-07-26T08:26:37Z</time>
      </trkpt>
      <trkpt lat="44.76179" lon="0.01438">
        <ele>98.67</ele>
        <time>2020-07-26T08:27:01Z</time>
      </trkpt>
      <trkpt lat="44.76186" lon="0.01418">
        <ele>99.15</ele>
        <time>2020-07-26T08:27:18Z</time>
      </trkpt>
      <trkpt lat="44.76193" lon="0.01392">
        <ele>100.6</ele>
        <time>2020-07-26T08:27:37Z</time>
      </trkpt>
      <trkpt lat="44.762" lon="0.01367">
        <ele>101.08</ele>
        <time>2020-07-26T08:27:56Z</time>
      </trkpt>
      <trkpt lat="44.76205" lon="0.01344">
        <ele>102.04</ele>
        <time>2020-07-26T08:28:13Z</time>
      </trkpt>
      <trkpt lat="44.76212" lon="0.01322">
        <ele>103</ele>
        <time>2020-07-26T08:28:30Z</time>
      </trkpt>
      <trkpt lat="44.76219" lon="0.01295">
        <ele>103.96</ele>
        <time>2020-07-26T08:28:48Z</time>
      </trkpt>
      <trkpt lat="44.76226" lon="0.0127">
        <ele>104.44</ele>
        <time>2020-07-26T08:29:05Z</time>
      </trkpt>
      <trkpt lat="44.76237" lon="0.01247">
        <ele>104.92</ele>
        <time>2020-07-26T08:29:24Z</time>
      </trkpt>
      <trkpt lat="44.76245" lon="0.01218">
        <ele>105.4</ele>
        <time>2020-07-26T08:29:45Z</time>
      </trkpt>
      <trkpt lat="44.76248" lon="0.01193">
        <ele>105.4</ele>
        <time>2020-07-26T08:29:59Z</time>
      </trkpt>
      <trkpt lat="44.76253" lon="0.01168">
        <ele>104.92</ele>
        <time>2020-07-26T08:30:18Z</time>
      </trkpt>
      <trkpt lat="44.76258" lon="0.01166">
        <ele>104.92</ele>
        <time>2020-07-26T08:30:31Z</time>
      </trkpt>
      <trkpt lat="44.76258" lon="0.0116">
        <ele>103.96</ele>
        <time>2020-07-26T08:30:35Z</time>
      </trkpt>
      <trkpt lat="44.76263" lon="0.01124">
        <ele>103.48</ele>
        <time>2020-07-26T08:30:58Z</time>
      </trkpt>
      <trkpt lat="44.76267" lon="0.01083">
        <ele>102.52</ele>
        <time>2020-07-26T08:31:20Z</time>
      </trkpt>
      <trkpt lat="44.76268" lon="0.0107">
        <ele>101.56</ele>
        <time>2020-07-26T08:31:28Z</time>
      </trkpt>
      <trkpt lat="44.7627" lon="0.01038">
        <ele>100.11</ele>
        <time>2020-07-26T08:31:46Z</time>
      </trkpt>
      <trkpt lat="44.76275" lon="0.01005">
        <ele>99.63</ele>
        <time>2020-07-26T08:32:07Z</time>
      </trkpt>
      <trkpt lat="44.76278" lon="0.00984">
        <ele>99.63</ele>
        <time>2020-07-26T08:32:24Z</time>
      </trkpt>
      <trkpt lat="44.76272" lon="0.00967">
        <ele>98.67</ele>
        <time>2020-07-26T08:32:39Z</time>
      </trkpt>
      <trkpt lat="44.76273" lon="0.00968">
        <ele>100.11</ele>
        <time>2020-07-26T08:32:43Z</time>
      </trkpt>
      <trkpt lat="44.76274" lon="0.00968">
        <ele>100.6</ele>
        <time>2020-07-26T08:33:00Z</time>
      </trkpt>
      <trkpt lat="44.76272" lon="0.00969">
        <ele>100.6</ele>
        <time>2020-07-26T08:33:17Z</time>
      </trkpt>
      <trkpt lat="44.76271" lon="0.00967">
        <ele>100.6</ele>
        <time>2020-07-26T08:33:38Z</time>
      </trkpt>
      <trkpt lat="44.76273" lon="0.00959">
        <ele>100.6</ele>
        <time>2020-07-26T08:34:04Z</time>
      </trkpt>
      <trkpt lat="44.76275" lon="0.00953">
        <ele>99.15</ele>
        <time>2020-07-26T08:34:09Z</time>
      </trkpt>
      <trkpt lat="44.76284" lon="0.00923">
        <ele>98.67</ele>
        <time>2020-07-26T08:34:30Z</time>
      </trkpt>
      <trkpt lat="44.76294" lon="0.00899">
        <ele>97.71</ele>
        <time>2020-07-26T08:34:49Z</time>
      </trkpt>
      <trkpt lat="44.76303" lon="0.00867">
        <ele>96.75</ele>
        <time>2020-07-26T08:35:10Z</time>
      </trkpt>
      <trkpt lat="44.76314" lon="0.00878">
        <ele>96.75</ele>
        <time>2020-07-26T08:35:25Z</time>
      </trkpt>
      <trkpt lat="44.76325" lon="0.00879">
        <ele>98.19</ele>
        <time>2020-07-26T08:35:42Z</time>
      </trkpt>
      <trkpt lat="44.76329" lon="0.00883">
        <ele>97.71</ele>
        <time>2020-07-26T08:36:00Z</time>
      </trkpt>
      <trkpt lat="44.76334" lon="0.00886">
        <ele>97.71</ele>
        <time>2020-07-26T08:36:22Z</time>
      </trkpt>
      <trkpt lat="44.7632" lon="0.00876">
        <ele>97.71</ele>
        <time>2020-07-26T08:36:42Z</time>
      </trkpt>
      <trkpt lat="44.76321" lon="0.00876">
        <ele>97.71</ele>
        <time>2020-07-26T08:37:07Z</time>
      </trkpt>
      <trkpt lat="44.76316" lon="0.00879">
        <ele>97.71</ele>
        <time>2020-07-26T08:37:18Z</time>
      </trkpt>
      <trkpt lat="44.76303" lon="0.00895">
        <ele>96.27</ele>
        <time>2020-07-26T08:37:33Z</time>
      </trkpt>
      <trkpt lat="44.76301" lon="0.009">
        <ele>97.71</ele>
        <time>2020-07-26T08:37:37Z</time>
      </trkpt>
      <trkpt lat="44.76288" lon="0.00922">
        <ele>98.67</ele>
        <time>2020-07-26T08:37:56Z</time>
      </trkpt>
      <trkpt lat="44.76278" lon="0.00948">
        <ele>99.15</ele>
        <time>2020-07-26T08:38:15Z</time>
      </trkpt>
      <trkpt lat="44.76273" lon="0.00963">
        <ele>99.15</ele>
        <time>2020-07-26T08:38:33Z</time>
      </trkpt>
      <trkpt lat="44.76266" lon="0.00959">
        <ele>99.63</ele>
        <time>2020-07-26T08:38:53Z</time>
      </trkpt>
      <trkpt lat="44.76257" lon="0.0096">
        <ele>99.63</ele>
        <time>2020-07-26T08:39:01Z</time>
      </trkpt>
      <trkpt lat="44.76235" lon="0.00965">
        <ele>101.08</ele>
        <time>2020-07-26T08:39:20Z</time>
      </trkpt>
      <trkpt lat="44.76233" lon="0.00966">
        <ele>101.08</ele>
        <time>2020-07-26T08:39:22Z</time>
      </trkpt>
      <trkpt lat="44.76215" lon="0.00966">
        <ele>102.04</ele>
        <time>2020-07-26T08:39:41Z</time>
      </trkpt>
      <trkpt lat="44.76191" lon="0.00965">
        <ele>103</ele>
        <time>2020-07-26T08:40:02Z</time>
      </trkpt>
      <trkpt lat="44.76164" lon="0.00968">
        <ele>103.96</ele>
        <time>2020-07-26T08:40:23Z</time>
      </trkpt>
      <trkpt lat="44.76146" lon="0.00969">
        <ele>104.44</ele>
        <time>2020-07-26T08:40:38Z</time>
      </trkpt>
      <trkpt lat="44.7613" lon="0.00969">
        <ele>104.92</ele>
        <time>2020-07-26T08:40:53Z</time>
      </trkpt>
      <trkpt lat="44.76114" lon="0.00968">
        <ele>105.4</ele>
        <time>2020-07-26T08:41:12Z</time>
      </trkpt>
      <trkpt lat="44.76109" lon="0.00962">
        <ele>105.4</ele>
        <time>2020-07-26T08:41:33Z</time>
      </trkpt>
      <trkpt lat="44.76097" lon="0.00968">
        <ele>105.88</ele>
        <time>2020-07-26T08:41:51Z</time>
      </trkpt>
      <trkpt lat="44.76073" lon="0.00968">
        <ele>107.32</ele>
        <time>2020-07-26T08:42:10Z</time>
      </trkpt>
      <trkpt lat="44.76053" lon="0.00969">
        <ele>107.32</ele>
        <time>2020-07-26T08:42:27Z</time>
      </trkpt>
      <trkpt lat="44.76023" lon="0.00969">
        <ele>107.81</ele>
        <time>2020-07-26T08:42:51Z</time>
      </trkpt>
      <trkpt lat="44.76006" lon="0.00969">
        <ele>108.29</ele>
        <time>2020-07-26T08:43:09Z</time>
      </trkpt>
      <trkpt lat="44.75989" lon="0.00971">
        <ele>108.29</ele>
        <time>2020-07-26T08:43:25Z</time>
      </trkpt>
      <trkpt lat="44.75965" lon="0.00971">
        <ele>108.77</ele>
        <time>2020-07-26T08:43:45Z</time>
      </trkpt>
      <trkpt lat="44.75941" lon="0.00971">
        <ele>109.25</ele>
        <time>2020-07-26T08:44:07Z</time>
      </trkpt>
      <trkpt lat="44.75925" lon="0.00971">
        <ele>109.73</ele>
        <time>2020-07-26T08:44:24Z</time>
      </trkpt>
      <trkpt lat="44.75898" lon="0.00972">
        <ele>111.17</ele>
        <time>2020-07-26T08:44:45Z</time>
      </trkpt>
      <trkpt lat="44.75877" lon="0.00974">
        <ele>112.13</ele>
        <time>2020-07-26T08:45:04Z</time>
      </trkpt>
      <trkpt lat="44.75855" lon="0.00974">
        <ele>113.09</ele>
        <time>2020-07-26T08:45:25Z</time>
      </trkpt>
      <trkpt lat="44.75834" lon="0.00976">
        <ele>114.05</ele>
        <time>2020-07-26T08:45:45Z</time>
      </trkpt>
      <trkpt lat="44.75822" lon="0.00979">
        <ele>114.53</ele>
        <time>2020-07-26T08:46:02Z</time>
      </trkpt>
      <trkpt lat="44.75814" lon="0.00983">
        <ele>115.01</ele>
        <time>2020-07-26T08:46:20Z</time>
      </trkpt>
      <trkpt lat="44.75809" lon="0.00981">
        <ele>115.98</ele>
        <time>2020-07-26T08:46:54Z</time>
      </trkpt>
      <trkpt lat="44.75788" lon="0.00976">
        <ele>116.46</ele>
        <time>2020-07-26T08:47:12Z</time>
      </trkpt>
      <trkpt lat="44.75768" lon="0.00973">
        <ele>116.94</ele>
        <time>2020-07-26T08:47:32Z</time>
      </trkpt>
      <trkpt lat="44.75762" lon="0.00973">
        <ele>115.98</ele>
        <time>2020-07-26T08:47:37Z</time>
      </trkpt>
      <trkpt lat="44.7573" lon="0.00975">
        <ele>116.94</ele>
        <time>2020-07-26T08:47:58Z</time>
      </trkpt>
      <trkpt lat="44.75712" lon="0.00976">
        <ele>115.5</ele>
        <time>2020-07-26T08:48:10Z</time>
      </trkpt>
      <trkpt lat="44.75678" lon="0.00977">
        <ele>115.01</ele>
        <time>2020-07-26T08:48:36Z</time>
      </trkpt>
      <trkpt lat="44.75656" lon="0.0098">
        <ele>114.53</ele>
        <time>2020-07-26T08:48:55Z</time>
      </trkpt>
      <trkpt lat="44.75636" lon="0.00982">
        <ele>115.5</ele>
        <time>2020-07-26T08:49:10Z</time>
      </trkpt>
      <trkpt lat="44.75633" lon="0.00982">
        <ele>114.05</ele>
        <time>2020-07-26T08:49:12Z</time>
      </trkpt>
      <trkpt lat="44.75608" lon="0.00982">
        <ele>114.05</ele>
        <time>2020-07-26T08:49:30Z</time>
      </trkpt>
      <trkpt lat="44.75583" lon="0.00985">
        <ele>115.01</ele>
        <time>2020-07-26T08:49:48Z</time>
      </trkpt>
      <trkpt lat="44.75557" lon="0.00983">
        <ele>113.57</ele>
        <time>2020-07-26T08:50:05Z</time>
      </trkpt>
      <trkpt lat="44.75531" lon="0.00981">
        <ele>113.57</ele>
        <time>2020-07-26T08:50:25Z</time>
      </trkpt>
      <trkpt lat="44.75532" lon="0.0098">
        <ele>113.57</ele>
        <time>2020-07-26T08:50:31Z</time>
      </trkpt>
      <trkpt lat="44.75506" lon="0.00985">
        <ele>112.61</ele>
        <time>2020-07-26T08:50:55Z</time>
      </trkpt>
      <trkpt lat="44.75493" lon="0.00984">
        <ele>113.09</ele>
        <time>2020-07-26T08:51:12Z</time>
      </trkpt>
      <trkpt lat="44.75487" lon="0.0098">
        <ele>113.09</ele>
        <time>2020-07-26T08:51:24Z</time>
      </trkpt>
      <trkpt lat="44.75467" lon="0.00972">
        <ele>113.09</ele>
        <time>2020-07-26T08:51:43Z</time>
      </trkpt>
      <trkpt lat="44.75463" lon="0.00968">
        <ele>112.61</ele>
        <time>2020-07-26T08:52:02Z</time>
      </trkpt>
      <trkpt lat="44.75464" lon="0.00969">
        <ele>113.09</ele>
        <time>2020-07-26T08:52:32Z</time>
      </trkpt>
      <trkpt lat="44.75455" lon="0.0098">
        <ele>113.09</ele>
        <time>2020-07-26T08:52:47Z</time>
      </trkpt>
      <trkpt lat="44.75427" lon="0.00983">
        <ele>113.57</ele>
        <time>2020-07-26T08:53:09Z</time>
      </trkpt>
      <trkpt lat="44.75401" lon="0.00984">
        <ele>113.57</ele>
        <time>2020-07-26T08:53:29Z</time>
      </trkpt>
      <trkpt lat="44.75373" lon="0.00985">
        <ele>114.53</ele>
        <time>2020-07-26T08:53:50Z</time>
      </trkpt>
      <trkpt lat="44.7535" lon="0.00989">
        <ele>114.53</ele>
        <time>2020-07-26T08:54:09Z</time>
      </trkpt>
      <trkpt lat="44.75324" lon="0.00987">
        <ele>115.01</ele>
        <time>2020-07-26T08:54:27Z</time>
      </trkpt>
      <trkpt lat="44.75319" lon="0.00987">
        <ele>115.01</ele>
        <time>2020-07-26T08:54:31Z</time>
      </trkpt>
      <trkpt lat="44.75298" lon="0.00976">
        <ele>115.01</ele>
        <time>2020-07-26T08:54:49Z</time>
      </trkpt>
      <trkpt lat="44.75292" lon="0.00973">
        <ele>114.05</ele>
        <time>2020-07-26T08:54:56Z</time>
      </trkpt>
      <trkpt lat="44.7529" lon="0.00967">
        <ele>114.05</ele>
        <time>2020-07-26T08:55:00Z</time>
      </trkpt>
      <trkpt lat="44.75285" lon="0.00919">
        <ele>113.57</ele>
        <time>2020-07-26T08:55:26Z</time>
      </trkpt>
      <trkpt lat="44.75282" lon="0.00887">
        <ele>112.61</ele>
        <time>2020-07-26T08:55:43Z</time>
      </trkpt>
      <trkpt lat="44.75279" lon="0.00848">
        <ele>112.13</ele>
        <time>2020-07-26T08:56:03Z</time>
      </trkpt>
      <trkpt lat="44.75275" lon="0.00806">
        <ele>113.09</ele>
        <time>2020-07-26T08:56:25Z</time>
      </trkpt>
      <trkpt lat="44.75272" lon="0.00761">
        <ele>110.21</ele>
        <time>2020-07-26T08:56:49Z</time>
      </trkpt>
      <trkpt lat="44.75272" lon="0.00757">
        <ele>111.65</ele>
        <time>2020-07-26T08:56:51Z</time>
      </trkpt>
      <trkpt lat="44.75272" lon="0.00754">
        <ele>110.21</ele>
        <time>2020-07-26T08:56:53Z</time>
      </trkpt>
      <trkpt lat="44.75272" lon="0.0075">
        <ele>111.65</ele>
        <time>2020-07-26T08:56:55Z</time>
      </trkpt>
      <trkpt lat="44.75274" lon="0.00732">
        <ele>110.21</ele>
        <time>2020-07-26T08:57:05Z</time>
      </trkpt>
      <trkpt lat="44.75276" lon="0.00719">
        <ele>111.17</ele>
        <time>2020-07-26T08:57:13Z</time>
      </trkpt>
      <trkpt lat="44.75283" lon="0.00706">
        <ele>109.25</ele>
        <time>2020-07-26T08:57:24Z</time>
      </trkpt>
      <trkpt lat="44.75285" lon="0.00708">
        <ele>109.25</ele>
        <time>2020-07-26T08:57:38Z</time>
      </trkpt>
      <trkpt lat="44.75285" lon="0.00707">
        <ele>109.25</ele>
        <time>2020-07-26T08:57:44Z</time>
      </trkpt>
      <trkpt lat="44.75286" lon="0.007">
        <ele>110.69</ele>
        <time>2020-07-26T08:57:49Z</time>
      </trkpt>
      <trkpt lat="44.75293" lon="0.00683">
        <ele>109.25</ele>
        <time>2020-07-26T08:58:01Z</time>
      </trkpt>
      <trkpt lat="44.75302" lon="0.00661">
        <ele>108.29</ele>
        <time>2020-07-26T08:58:15Z</time>
      </trkpt>
      <trkpt lat="44.75319" lon="0.00623">
        <ele>109.73</ele>
        <time>2020-07-26T08:58:38Z</time>
      </trkpt>
      <trkpt lat="44.7533" lon="0.00597">
        <ele>109.73</ele>
        <time>2020-07-26T08:58:57Z</time>
      </trkpt>
      <trkpt lat="44.7534" lon="0.00557">
        <ele>109.73</ele>
        <time>2020-07-26T08:59:20Z</time>
      </trkpt>
      <trkpt lat="44.75344" lon="0.00553">
        <ele>108.29</ele>
        <time>2020-07-26T08:59:27Z</time>
      </trkpt>
      <trkpt lat="44.75349" lon="0.00552">
        <ele>107.81</ele>
        <time>2020-07-26T08:59:47Z</time>
      </trkpt>
      <trkpt lat="44.75353" lon="0.00551">
        <ele>107.81</ele>
        <time>2020-07-26T09:00:14Z</time>
      </trkpt>
      <trkpt lat="44.75346" lon="0.00551">
        <ele>107.81</ele>
        <time>2020-07-26T09:00:30Z</time>
      </trkpt>
      <trkpt lat="44.75343" lon="0.00547">
        <ele>107.81</ele>
        <time>2020-07-26T09:00:35Z</time>
      </trkpt>
      <trkpt lat="44.75342" lon="0.00544">
        <ele>109.25</ele>
        <time>2020-07-26T09:00:37Z</time>
      </trkpt>
      <trkpt lat="44.75342" lon="0.0054">
        <ele>109.73</ele>
        <time>2020-07-26T09:00:39Z</time>
      </trkpt>
      <trkpt lat="44.75345" lon="0.00509">
        <ele>108.29</ele>
        <time>2020-07-26T09:00:56Z</time>
      </trkpt>
      <trkpt lat="44.75351" lon="0.00467">
        <ele>108.77</ele>
        <time>2020-07-26T09:01:20Z</time>
      </trkpt>
      <trkpt lat="44.75358" lon="0.00418">
        <ele>107.32</ele>
        <time>2020-07-26T09:01:46Z</time>
      </trkpt>
      <trkpt lat="44.75361" lon="0.00377">
        <ele>108.29</ele>
        <time>2020-07-26T09:02:08Z</time>
      </trkpt>
      <trkpt lat="44.7536" lon="0.00331">
        <ele>107.32</ele>
        <time>2020-07-26T09:02:34Z</time>
      </trkpt>
      <trkpt lat="44.75357" lon="0.00324">
        <ele>106.36</ele>
        <time>2020-07-26T09:02:39Z</time>
      </trkpt>
      <trkpt lat="44.75336" lon="0.00303">
        <ele>106.84</ele>
        <time>2020-07-26T09:02:59Z</time>
      </trkpt>
      <trkpt lat="44.75314" lon="0.00284">
        <ele>104.92</ele>
        <time>2020-07-26T09:03:18Z</time>
      </trkpt>
      <trkpt lat="44.75312" lon="0.00281">
        <ele>104.92</ele>
        <time>2020-07-26T09:03:36Z</time>
      </trkpt>
      <trkpt lat="44.75298" lon="0.0027">
        <ele>102.52</ele>
        <time>2020-07-26T09:03:48Z</time>
      </trkpt>
      <trkpt lat="44.75294" lon="0.00268">
        <ele>103.96</ele>
        <time>2020-07-26T09:03:51Z</time>
      </trkpt>
      <trkpt lat="44.75272" lon="0.00241">
        <ele>101.56</ele>
        <time>2020-07-26T09:04:11Z</time>
      </trkpt>
      <trkpt lat="44.75265" lon="0.00228">
        <ele>102.52</ele>
        <time>2020-07-26T09:04:20Z</time>
      </trkpt>
      <trkpt lat="44.75254" lon="0.00195">
        <ele>100.6</ele>
        <time>2020-07-26T09:04:37Z</time>
      </trkpt>
      <trkpt lat="44.75251" lon="0.00183">
        <ele>101.08</ele>
        <time>2020-07-26T09:04:43Z</time>
      </trkpt>
      <trkpt lat="44.75237" lon="0.00145">
        <ele>101.08</ele>
        <time>2020-07-26T09:05:05Z</time>
      </trkpt>
      <trkpt lat="44.7523" lon="0.00118">
        <ele>99.15</ele>
        <time>2020-07-26T09:05:19Z</time>
      </trkpt>
      <trkpt lat="44.75219" lon="0.00092">
        <ele>100.11</ele>
        <time>2020-07-26T09:05:36Z</time>
      </trkpt>
      <trkpt lat="44.75218" lon="0.00089">
        <ele>98.67</ele>
        <time>2020-07-26T09:05:38Z</time>
      </trkpt>
      <trkpt lat="44.75216" lon="0.00085">
        <ele>100.11</ele>
        <time>2020-07-26T09:05:40Z</time>
      </trkpt>
      <trkpt lat="44.75213" lon="0.00073">
        <ele>98.67</ele>
        <time>2020-07-26T09:05:46Z</time>
      </trkpt>
      <trkpt lat="44.75212" lon="0.00068">
        <ele>100.11</ele>
        <time>2020-07-26T09:05:48Z</time>
      </trkpt>
      <trkpt lat="44.75206" lon="0.00052">
        <ele>98.19</ele>
        <time>2020-07-26T09:05:56Z</time>
      </trkpt>
      <trkpt lat="44.75205" lon="0.00048">
        <ele>99.63</ele>
        <time>2020-07-26T09:05:58Z</time>
      </trkpt>
      <trkpt lat="44.75204" lon="0.00042">
        <ele>98.19</ele>
        <time>2020-07-26T09:06:01Z</time>
      </trkpt>
      <trkpt lat="44.75203" lon="0.00039">
        <ele>99.63</ele>
        <time>2020-07-26T09:06:03Z</time>
      </trkpt>
      <trkpt lat="44.75194" lon="0.0002">
        <ele>98.19</ele>
        <time>2020-07-26T09:06:15Z</time>
      </trkpt>
      <trkpt lat="44.75189" lon="6.0E-5">
        <ele>98.67</ele>
        <time>2020-07-26T09:06:24Z</time>
      </trkpt>
      <trkpt lat="44.75179" lon="-0.00026">
        <ele>99.63</ele>
        <time>2020-07-26T09:06:44Z</time>
      </trkpt>
      <trkpt lat="44.75171" lon="-0.00052">
        <ele>100.11</ele>
        <time>2020-07-26T09:07:02Z</time>
      </trkpt>
      <trkpt lat="44.75161" lon="-0.00075">
        <ele>101.08</ele>
        <time>2020-07-26T09:07:20Z</time>
      </trkpt>
      <trkpt lat="44.75149" lon="-0.00092">
        <ele>102.04</ele>
        <time>2020-07-26T09:07:35Z</time>
      </trkpt>
      <trkpt lat="44.75132" lon="-0.00105">
        <ele>103</ele>
        <time>2020-07-26T09:07:55Z</time>
      </trkpt>
      <trkpt lat="44.75131" lon="-0.00106">
        <ele>102.52</ele>
        <time>2020-07-26T09:08:15Z</time>
      </trkpt>
      <trkpt lat="44.75125" lon="-0.00108">
        <ele>103</ele>
        <time>2020-07-26T09:08:33Z</time>
      </trkpt>
      <trkpt lat="44.75124" lon="-0.00111">
        <ele>103</ele>
        <time>2020-07-26T09:09:00Z</time>
      </trkpt>
      <trkpt lat="44.75122" lon="-0.00113">
        <ele>103.48</ele>
        <time>2020-07-26T09:09:34Z</time>
      </trkpt>
      <trkpt lat="44.75137" lon="-0.00108">
        <ele>102.04</ele>
        <time>2020-07-26T09:09:52Z</time>
      </trkpt>
      <trkpt lat="44.75143" lon="-0.0011">
        <ele>102.04</ele>
        <time>2020-07-26T09:10:06Z</time>
      </trkpt>
      <trkpt lat="44.75137" lon="-0.00112">
        <ele>102.04</ele>
        <time>2020-07-26T09:10:23Z</time>
      </trkpt>
      <trkpt lat="44.75124" lon="-0.00107">
        <ele>102.04</ele>
        <time>2020-07-26T09:10:36Z</time>
      </trkpt>
      <trkpt lat="44.75098" lon="-0.0012">
        <ele>103.48</ele>
        <time>2020-07-26T09:10:56Z</time>
      </trkpt>
      <trkpt lat="44.75076" lon="-0.00131">
        <ele>101.56</ele>
        <time>2020-07-26T09:11:13Z</time>
      </trkpt>
      <trkpt lat="44.75052" lon="-0.0014">
        <ele>101.08</ele>
        <time>2020-07-26T09:11:34Z</time>
      </trkpt>
      <trkpt lat="44.75054" lon="-0.0014">
        <ele>101.08</ele>
        <time>2020-07-26T09:11:42Z</time>
      </trkpt>
      <trkpt lat="44.75057" lon="-0.00137">
        <ele>101.08</ele>
        <time>2020-07-26T09:11:46Z</time>
      </trkpt>
      <trkpt lat="44.75064" lon="-0.00136">
        <ele>100.6</ele>
        <time>2020-07-26T09:11:51Z</time>
      </trkpt>
      <trkpt lat="44.75067" lon="-0.00135">
        <ele>100.6</ele>
        <time>2020-07-26T09:11:54Z</time>
      </trkpt>
      <trkpt lat="44.75075" lon="-0.0013">
        <ele>102.04</ele>
        <time>2020-07-26T09:12:02Z</time>
      </trkpt>
      <trkpt lat="44.75085" lon="-0.00127">
        <ele>102.52</ele>
        <time>2020-07-26T09:12:20Z</time>
      </trkpt>
      <trkpt lat="44.75084" lon="-0.00127">
        <ele>103</ele>
        <time>2020-07-26T09:12:58Z</time>
      </trkpt>
      <trkpt lat="44.75085" lon="-0.0013">
        <ele>103</ele>
        <time>2020-07-26T09:13:20Z</time>
      </trkpt>
      <trkpt lat="44.75087" lon="-0.00129">
        <ele>101.56</ele>
        <time>2020-07-26T09:13:50Z</time>
      </trkpt>
      <trkpt lat="44.75087" lon="-0.00129">
        <ele>101.56</ele>
        <time>2020-07-26T09:13:51Z</time>
      </trkpt>
      <trkpt lat="44.75088" lon="-0.00131">
        <ele>101.56</ele>
        <time>2020-07-26T09:14:23Z</time>
      </trkpt>
      <trkpt lat="44.75086" lon="-0.00129">
        <ele>101.08</ele>
        <time>2020-07-26T09:14:51Z</time>
      </trkpt>
      <trkpt lat="44.75084" lon="-0.00126">
        <ele>101.08</ele>
        <time>2020-07-26T09:15:23Z</time>
      </trkpt>
      <trkpt lat="44.75084" lon="-0.00129">
        <ele>101.08</ele>
        <time>2020-07-26T09:15:54Z</time>
      </trkpt>
      <trkpt lat="44.75083" lon="-0.00128">
        <ele>101.08</ele>
        <time>2020-07-26T09:16:25Z</time>
      </trkpt>
      <trkpt lat="44.75083" lon="-0.00133">
        <ele>101.08</ele>
        <time>2020-07-26T09:16:51Z</time>
      </trkpt>
      <trkpt lat="44.75086" lon="-0.00133">
        <ele>101.08</ele>
        <time>2020-07-26T09:17:22Z</time>
      </trkpt>
      <trkpt lat="44.75084" lon="-0.00125">
        <ele>101.08</ele>
        <time>2020-07-26T09:17:47Z</time>
      </trkpt>
      <trkpt lat="44.75086" lon="-0.00131">
        <ele>101.08</ele>
        <time>2020-07-26T09:18:13Z</time>
      </trkpt>
      <trkpt lat="44.75086" lon="-0.00129">
        <ele>101.08</ele>
        <time>2020-07-26T09:18:37Z</time>
      </trkpt>
      <trkpt lat="44.75086" lon="-0.00131">
        <ele>101.08</ele>
        <time>2020-07-26T09:19:03Z</time>
      </trkpt>
      <trkpt lat="44.75084" lon="-0.00121">
        <ele>101.08</ele>
        <time>2020-07-26T09:19:31Z</time>
      </trkpt>
      <trkpt lat="44.75083" lon="-0.0012">
        <ele>101.08</ele>
        <time>2020-07-26T09:19:50Z</time>
      </trkpt>
      <trkpt lat="44.75085" lon="-0.0013">
        <ele>101.08</ele>
        <time>2020-07-26T09:20:13Z</time>
      </trkpt>
      <trkpt lat="44.75085" lon="-0.0013">
        <ele>101.08</ele>
        <time>2020-07-26T09:20:39Z</time>
      </trkpt>
      <trkpt lat="44.75085" lon="-0.0013">
        <ele>100.6</ele>
        <time>2020-07-26T09:21:03Z</time>
      </trkpt>
      <trkpt lat="44.75085" lon="-0.0013">
        <ele>100.6</ele>
        <time>2020-07-26T09:21:28Z</time>
      </trkpt>
      <trkpt lat="44.75084" lon="-0.00132">
        <ele>100.6</ele>
        <time>2020-07-26T09:21:57Z</time>
      </trkpt>
      <trkpt lat="44.75084" lon="-0.00131">
        <ele>100.6</ele>
        <time>2020-07-26T09:22:32Z</time>
      </trkpt>
      <trkpt lat="44.75086" lon="-0.0013">
        <ele>100.6</ele>
        <time>2020-07-26T09:23:08Z</time>
      </trkpt>
      <trkpt lat="44.75087" lon="-0.0013">
        <ele>100.6</ele>
        <time>2020-07-26T09:23:39Z</time>
      </trkpt>
      <trkpt lat="44.75087" lon="-0.00129">
        <ele>100.6</ele>
        <time>2020-07-26T09:24:01Z</time>
      </trkpt>
      <trkpt lat="44.75086" lon="-0.00132">
        <ele>100.11</ele>
        <time>2020-07-26T09:24:31Z</time>
      </trkpt>
      <trkpt lat="44.75086" lon="-0.00132">
        <ele>100.11</ele>
        <time>2020-07-26T09:24:56Z</time>
      </trkpt>
      <trkpt lat="44.75085" lon="-0.00132">
        <ele>101.08</ele>
        <time>2020-07-26T09:25:14Z</time>
      </trkpt>
      <trkpt lat="44.75086" lon="-0.0013">
        <ele>101.08</ele>
        <time>2020-07-26T09:25:46Z</time>
      </trkpt>
      <trkpt lat="44.75087" lon="-0.00129">
        <ele>101.08</ele>
        <time>2020-07-26T09:26:20Z</time>
      </trkpt>
      <trkpt lat="44.75084" lon="-0.0013">
        <ele>101.08</ele>
        <time>2020-07-26T09:27:00Z</time>
      </trkpt>
      <trkpt lat="44.75086" lon="-0.00132">
        <ele>101.08</ele>
        <time>2020-07-26T09:27:24Z</time>
      </trkpt>
      <trkpt lat="44.75086" lon="-0.0013">
        <ele>99.63</ele>
        <time>2020-07-26T09:27:44Z</time>
      </trkpt>
      <trkpt lat="44.75086" lon="-0.00128">
        <ele>101.08</ele>
        <time>2020-07-26T09:27:50Z</time>
      </trkpt>
      <trkpt lat="44.75087" lon="-0.00127">
        <ele>101.08</ele>
        <time>2020-07-26T09:28:12Z</time>
      </trkpt>
      <trkpt lat="44.75096" lon="-0.00119">
        <ele>101.56</ele>
        <time>2020-07-26T09:28:23Z</time>
      </trkpt>
      <trkpt lat="44.75091" lon="-0.00091">
        <ele>102.52</ele>
        <time>2020-07-26T09:28:41Z</time>
      </trkpt>
      <trkpt lat="44.7509" lon="-0.00085">
        <ele>102.52</ele>
        <time>2020-07-26T09:28:45Z</time>
      </trkpt>
      <trkpt lat="44.75085" lon="-0.0008">
        <ele>102.52</ele>
        <time>2020-07-26T09:28:50Z</time>
      </trkpt>
      <trkpt lat="44.75069" lon="-0.00066">
        <ele>103</ele>
        <time>2020-07-26T09:29:08Z</time>
      </trkpt>
      <trkpt lat="44.75052" lon="-0.00052">
        <ele>103.48</ele>
        <time>2020-07-26T09:29:27Z</time>
      </trkpt>
      <trkpt lat="44.75034" lon="-0.0004">
        <ele>103.48</ele>
        <time>2020-07-26T09:29:46Z</time>
      </trkpt>
      <trkpt lat="44.75014" lon="-0.00028">
        <ele>103.48</ele>
        <time>2020-07-26T09:30:06Z</time>
      </trkpt>
      <trkpt lat="44.74993" lon="-0.00018">
        <ele>103.48</ele>
        <time>2020-07-26T09:30:25Z</time>
      </trkpt>
      <trkpt lat="44.74976" lon="-0.00017">
        <ele>102.52</ele>
        <time>2020-07-26T09:30:42Z</time>
      </trkpt>
      <trkpt lat="44.7497" lon="-0.00019">
        <ele>102.52</ele>
        <time>2020-07-26T09:30:59Z</time>
      </trkpt>
      <trkpt lat="44.7496" lon="-4.0E-5">
        <ele>101.56</ele>
        <time>2020-07-26T09:31:17Z</time>
      </trkpt>
      <trkpt lat="44.74941" lon="0.00017">
        <ele>100.6</ele>
        <time>2020-07-26T09:31:36Z</time>
      </trkpt>
      <trkpt lat="44.74933" lon="0.00022">
        <ele>101.08</ele>
        <time>2020-07-26T09:31:44Z</time>
      </trkpt>
      <trkpt lat="44.74929" lon="0.00024">
        <ele>99.63</ele>
        <time>2020-07-26T09:31:48Z</time>
      </trkpt>
      <trkpt lat="44.74918" lon="0.00031">
        <ele>98.67</ele>
        <time>2020-07-26T09:32:03Z</time>
      </trkpt>
      <trkpt lat="44.74902" lon="0.0004">
        <ele>97.71</ele>
        <time>2020-07-26T09:32:23Z</time>
      </trkpt>
      <trkpt lat="44.74887" lon="0.00045">
        <ele>96.27</ele>
        <time>2020-07-26T09:32:35Z</time>
      </trkpt>
      <trkpt lat="44.74867" lon="0.00048">
        <ele>95.79</ele>
        <time>2020-07-26T09:32:52Z</time>
      </trkpt>
      <trkpt lat="44.74853" lon="0.0005">
        <ele>95.79</ele>
        <time>2020-07-26T09:33:06Z</time>
      </trkpt>
      <trkpt lat="44.74831" lon="0.00057">
        <ele>93.87</ele>
        <time>2020-07-26T09:33:23Z</time>
      </trkpt>
      <trkpt lat="44.748" lon="0.00063">
        <ele>94.83</ele>
        <time>2020-07-26T09:33:45Z</time>
      </trkpt>
      <trkpt lat="44.74774" lon="0.00067">
        <ele>92.9</ele>
        <time>2020-07-26T09:34:05Z</time>
      </trkpt>
      <trkpt lat="44.74757" lon="0.00072">
        <ele>92.9</ele>
        <time>2020-07-26T09:34:18Z</time>
      </trkpt>
      <trkpt lat="44.74752" lon="0.00074">
        <ele>92.9</ele>
        <time>2020-07-26T09:34:22Z</time>
      </trkpt>
      <trkpt lat="44.7473" lon="0.00075">
        <ele>91.46</ele>
        <time>2020-07-26T09:34:40Z</time>
      </trkpt>
      <trkpt lat="44.74704" lon="0.00084">
        <ele>90.5</ele>
        <time>2020-07-26T09:35:00Z</time>
      </trkpt>
      <trkpt lat="44.7468" lon="0.00081">
        <ele>90.98</ele>
        <time>2020-07-26T09:35:15Z</time>
      </trkpt>
      <trkpt lat="44.74664" lon="0.00075">
        <ele>89.54</ele>
        <time>2020-07-26T09:35:28Z</time>
      </trkpt>
      <trkpt lat="44.74642" lon="0.00072">
        <ele>89.06</ele>
        <time>2020-07-26T09:35:45Z</time>
      </trkpt>
      <trkpt lat="44.74631" lon="0.00073">
        <ele>89.06</ele>
        <time>2020-07-26T09:35:54Z</time>
      </trkpt>
      <trkpt lat="44.74628" lon="0.00074">
        <ele>90.02</ele>
        <time>2020-07-26T09:35:57Z</time>
      </trkpt>
      <trkpt lat="44.74611" lon="0.00071">
        <ele>89.06</ele>
        <time>2020-07-26T09:36:10Z</time>
      </trkpt>
      <trkpt lat="44.74605" lon="0.0007">
        <ele>89.06</ele>
        <time>2020-07-26T09:36:14Z</time>
      </trkpt>
      <trkpt lat="44.74596" lon="0.00076">
        <ele>89.06</ele>
        <time>2020-07-26T09:36:30Z</time>
      </trkpt>
      <trkpt lat="44.74598" lon="0.00076">
        <ele>90.02</ele>
        <time>2020-07-26T09:36:44Z</time>
      </trkpt>
      <trkpt lat="44.74596" lon="0.00077">
        <ele>89.06</ele>
        <time>2020-07-26T09:36:46Z</time>
      </trkpt>
      <trkpt lat="44.74595" lon="0.0008">
        <ele>89.06</ele>
        <time>2020-07-26T09:36:54Z</time>
      </trkpt>
      <trkpt lat="44.74592" lon="0.00082">
        <ele>89.54</ele>
        <time>2020-07-26T09:37:06Z</time>
      </trkpt>
      <trkpt lat="44.74597" lon="0.0008">
        <ele>89.06</ele>
        <time>2020-07-26T09:37:28Z</time>
      </trkpt>
      <trkpt lat="44.74585" lon="0.00089">
        <ele>90.02</ele>
        <time>2020-07-26T09:37:50Z</time>
      </trkpt>
      <trkpt lat="44.74583" lon="0.00089">
        <ele>90.02</ele>
        <time>2020-07-26T09:37:51Z</time>
      </trkpt>
      <trkpt lat="44.74593" lon="0.00078">
        <ele>88.58</ele>
        <time>2020-07-26T09:37:59Z</time>
      </trkpt>
      <trkpt lat="44.74584" lon="0.00071">
        <ele>88.1</ele>
        <time>2020-07-26T09:38:07Z</time>
      </trkpt>
      <trkpt lat="44.74561" lon="0.00065">
        <ele>89.54</ele>
        <time>2020-07-26T09:38:24Z</time>
      </trkpt>
      <trkpt lat="44.74549" lon="0.00061">
        <ele>89.54</ele>
        <time>2020-07-26T09:38:36Z</time>
      </trkpt>
      <trkpt lat="44.74533" lon="0.00058">
        <ele>87.62</ele>
        <time>2020-07-26T09:38:49Z</time>
      </trkpt>
      <trkpt lat="44.74526" lon="0.00056">
        <ele>87.62</ele>
        <time>2020-07-26T09:38:54Z</time>
      </trkpt>
      <trkpt lat="44.74517" lon="0.00042">
        <ele>87.62</ele>
        <time>2020-07-26T09:39:07Z</time>
      </trkpt>
      <trkpt lat="44.74518" lon="0.00035">
        <ele>87.62</ele>
        <time>2020-07-26T09:39:10Z</time>
      </trkpt>
      <trkpt lat="44.74518" lon="0.00032">
        <ele>87.62</ele>
        <time>2020-07-26T09:39:11Z</time>
      </trkpt>
      <trkpt lat="44.74518" lon="0.00031">
        <ele>87.62</ele>
        <time>2020-07-26T09:39:12Z</time>
      </trkpt>
      <trkpt lat="44.74518" lon="0.00029">
        <ele>87.62</ele>
        <time>2020-07-26T09:39:13Z</time>
      </trkpt>
      <trkpt lat="44.74519" lon="0.00027">
        <ele>87.62</ele>
        <time>2020-07-26T09:39:14Z</time>
      </trkpt>
      <trkpt lat="44.74519" lon="0.00025">
        <ele>87.62</ele>
        <time>2020-07-26T09:39:15Z</time>
      </trkpt>
      <trkpt lat="44.74519" lon="0.00023">
        <ele>87.62</ele>
        <time>2020-07-26T09:39:16Z</time>
      </trkpt>
      <trkpt lat="44.74525" lon="-7.0E-5">
        <ele>88.58</ele>
        <time>2020-07-26T09:39:34Z</time>
      </trkpt>
      <trkpt lat="44.74532" lon="-0.00038">
        <ele>87.62</ele>
        <time>2020-07-26T09:39:56Z</time>
      </trkpt>
      <trkpt lat="44.74536" lon="-0.00074">
        <ele>88.1</ele>
        <time>2020-07-26T09:40:15Z</time>
      </trkpt>
      <trkpt lat="44.74539" lon="-0.00099">
        <ele>88.1</ele>
        <time>2020-07-26T09:40:29Z</time>
      </trkpt>
      <trkpt lat="44.74538" lon="-0.0011">
        <ele>88.58</ele>
        <time>2020-07-26T09:40:38Z</time>
      </trkpt>
      <trkpt lat="44.74538" lon="-0.00112">
        <ele>88.58</ele>
        <time>2020-07-26T09:40:39Z</time>
      </trkpt>
      <trkpt lat="44.74539" lon="-0.00114">
        <ele>88.58</ele>
        <time>2020-07-26T09:40:40Z</time>
      </trkpt>
      <trkpt lat="44.7454" lon="-0.00116">
        <ele>88.58</ele>
        <time>2020-07-26T09:40:41Z</time>
      </trkpt>
      <trkpt lat="44.74541" lon="-0.00119">
        <ele>88.58</ele>
        <time>2020-07-26T09:40:42Z</time>
      </trkpt>
      <trkpt lat="44.74541" lon="-0.00121">
        <ele>88.58</ele>
        <time>2020-07-26T09:40:43Z</time>
      </trkpt>
      <trkpt lat="44.74544" lon="-0.00138">
        <ele>88.58</ele>
        <time>2020-07-26T09:40:56Z</time>
      </trkpt>
      <trkpt lat="44.74545" lon="-0.0014">
        <ele>88.58</ele>
        <time>2020-07-26T09:40:57Z</time>
      </trkpt>
      <trkpt lat="44.74546" lon="-0.00143">
        <ele>88.58</ele>
        <time>2020-07-26T09:40:58Z</time>
      </trkpt>
      <trkpt lat="44.74547" lon="-0.00148">
        <ele>88.58</ele>
        <time>2020-07-26T09:41:01Z</time>
      </trkpt>
      <trkpt lat="44.74549" lon="-0.00151">
        <ele>88.58</ele>
        <time>2020-07-26T09:41:04Z</time>
      </trkpt>
      <trkpt lat="44.7455" lon="-0.00153">
        <ele>88.58</ele>
        <time>2020-07-26T09:41:05Z</time>
      </trkpt>
      <trkpt lat="44.74557" lon="-0.00173">
        <ele>88.58</ele>
        <time>2020-07-26T09:41:18Z</time>
      </trkpt>
      <trkpt lat="44.74557" lon="-0.00175">
        <ele>88.58</ele>
        <time>2020-07-26T09:41:19Z</time>
      </trkpt>
      <trkpt lat="44.74559" lon="-0.00212">
        <ele>90.02</ele>
        <time>2020-07-26T09:41:39Z</time>
      </trkpt>
      <trkpt lat="44.74564" lon="-0.00242">
        <ele>90.98</ele>
        <time>2020-07-26T09:41:58Z</time>
      </trkpt>
      <trkpt lat="44.74572" lon="-0.0025">
        <ele>91.46</ele>
        <time>2020-07-26T09:42:06Z</time>
      </trkpt>
      <trkpt lat="44.74573" lon="-0.00251">
        <ele>91.94</ele>
        <time>2020-07-26T09:42:07Z</time>
      </trkpt>
      <trkpt lat="44.74575" lon="-0.00274">
        <ele>92.9</ele>
        <time>2020-07-26T09:42:21Z</time>
      </trkpt>
      <trkpt lat="44.74575" lon="-0.00276">
        <ele>92.9</ele>
        <time>2020-07-26T09:42:22Z</time>
      </trkpt>
      <trkpt lat="44.74576" lon="-0.00278">
        <ele>92.9</ele>
        <time>2020-07-26T09:42:23Z</time>
      </trkpt>
      <trkpt lat="44.74578" lon="-0.00287">
        <ele>93.39</ele>
        <time>2020-07-26T09:42:38Z</time>
      </trkpt>
      <trkpt lat="44.7458" lon="-0.00302">
        <ele>93.39</ele>
        <time>2020-07-26T09:42:50Z</time>
      </trkpt>
      <trkpt lat="44.7458" lon="-0.00322">
        <ele>94.35</ele>
        <time>2020-07-26T09:43:04Z</time>
      </trkpt>
      <trkpt lat="44.74577" lon="-0.00347">
        <ele>94.83</ele>
        <time>2020-07-26T09:43:19Z</time>
      </trkpt>
      <trkpt lat="44.7458" lon="-0.00385">
        <ele>96.27</ele>
        <time>2020-07-26T09:43:42Z</time>
      </trkpt>
      <trkpt lat="44.74576" lon="-0.00421">
        <ele>96.75</ele>
        <time>2020-07-26T09:44:01Z</time>
      </trkpt>
      <trkpt lat="44.74572" lon="-0.0046">
        <ele>98.19</ele>
        <time>2020-07-26T09:44:23Z</time>
      </trkpt>
      <trkpt lat="44.74579" lon="-0.00492">
        <ele>98.19</ele>
        <time>2020-07-26T09:44:40Z</time>
      </trkpt>
      <trkpt lat="44.7458" lon="-0.00493">
        <ele>98.19</ele>
        <time>2020-07-26T09:44:41Z</time>
      </trkpt>
      <trkpt lat="44.74582" lon="-0.00494">
        <ele>98.19</ele>
        <time>2020-07-26T09:44:42Z</time>
      </trkpt>
      <trkpt lat="44.74585" lon="-0.00502">
        <ele>98.19</ele>
        <time>2020-07-26T09:44:47Z</time>
      </trkpt>
      <trkpt lat="44.74589" lon="-0.00524">
        <ele>98.19</ele>
        <time>2020-07-26T09:45:02Z</time>
      </trkpt>
      <trkpt lat="44.74596" lon="-0.00568">
        <ele>98.67</ele>
        <time>2020-07-26T09:45:24Z</time>
      </trkpt>
      <trkpt lat="44.74601" lon="-0.00604">
        <ele>98.67</ele>
        <time>2020-07-26T09:45:47Z</time>
      </trkpt>
      <trkpt lat="44.74604" lon="-0.00612">
        <ele>99.15</ele>
        <time>2020-07-26T09:45:53Z</time>
      </trkpt>
      <trkpt lat="44.74614" lon="-0.00645">
        <ele>97.71</ele>
        <time>2020-07-26T09:46:13Z</time>
      </trkpt>
      <trkpt lat="44.74623" lon="-0.0068">
        <ele>97.71</ele>
        <time>2020-07-26T09:46:35Z</time>
      </trkpt>
      <trkpt lat="44.74633" lon="-0.00711">
        <ele>97.71</ele>
        <time>2020-07-26T09:46:57Z</time>
      </trkpt>
      <trkpt lat="44.74638" lon="-0.00744">
        <ele>97.71</ele>
        <time>2020-07-26T09:47:17Z</time>
      </trkpt>
      <trkpt lat="44.7464" lon="-0.00754">
        <ele>98.67</ele>
        <time>2020-07-26T09:47:24Z</time>
      </trkpt>
      <trkpt lat="44.74645" lon="-0.00771">
        <ele>97.23</ele>
        <time>2020-07-26T09:47:33Z</time>
      </trkpt>
      <trkpt lat="44.74647" lon="-0.00774">
        <ele>98.67</ele>
        <time>2020-07-26T09:47:35Z</time>
      </trkpt>
      <trkpt lat="44.74658" lon="-0.00802">
        <ele>98.67</ele>
        <time>2020-07-26T09:47:57Z</time>
      </trkpt>
      <trkpt lat="44.74665" lon="-0.00844">
        <ele>98.67</ele>
        <time>2020-07-26T09:48:20Z</time>
      </trkpt>
      <trkpt lat="44.74675" lon="-0.00873">
        <ele>98.67</ele>
        <time>2020-07-26T09:48:42Z</time>
      </trkpt>
      <trkpt lat="44.74683" lon="-0.00896">
        <ele>97.23</ele>
        <time>2020-07-26T09:49:01Z</time>
      </trkpt>
      <trkpt lat="44.74687" lon="-0.00936">
        <ele>96.75</ele>
        <time>2020-07-26T09:49:24Z</time>
      </trkpt>
      <trkpt lat="44.74688" lon="-0.00943">
        <ele>96.75</ele>
        <time>2020-07-26T09:49:27Z</time>
      </trkpt>
      <trkpt lat="44.74688" lon="-0.00945">
        <ele>96.75</ele>
        <time>2020-07-26T09:49:28Z</time>
      </trkpt>
      <trkpt lat="44.74689" lon="-0.00963">
        <ele>96.75</ele>
        <time>2020-07-26T09:49:41Z</time>
      </trkpt>
      <trkpt lat="44.74692" lon="-0.00989">
        <ele>95.31</ele>
        <time>2020-07-26T09:50:01Z</time>
      </trkpt>
      <trkpt lat="44.74693" lon="-0.00994">
        <ele>96.75</ele>
        <time>2020-07-26T09:50:04Z</time>
      </trkpt>
      <trkpt lat="44.74695" lon="-0.0104">
        <ele>96.27</ele>
        <time>2020-07-26T09:50:27Z</time>
      </trkpt>
      <trkpt lat="44.74696" lon="-0.01073">
        <ele>94.35</ele>
        <time>2020-07-26T09:50:46Z</time>
      </trkpt>
      <trkpt lat="44.74696" lon="-0.01074">
        <ele>94.35</ele>
        <time>2020-07-26T09:50:47Z</time>
      </trkpt>
      <trkpt lat="44.74696" lon="-0.01114">
        <ele>94.35</ele>
        <time>2020-07-26T09:51:09Z</time>
      </trkpt>
      <trkpt lat="44.74694" lon="-0.01136">
        <ele>94.35</ele>
        <time>2020-07-26T09:51:22Z</time>
      </trkpt>
      <trkpt lat="44.74694" lon="-0.01138">
        <ele>94.35</ele>
        <time>2020-07-26T09:51:23Z</time>
      </trkpt>
      <trkpt lat="44.74698" lon="-0.01171">
        <ele>92.9</ele>
        <time>2020-07-26T09:51:43Z</time>
      </trkpt>
      <trkpt lat="44.747" lon="-0.01211">
        <ele>91.94</ele>
        <time>2020-07-26T09:52:05Z</time>
      </trkpt>
      <trkpt lat="44.74708" lon="-0.01248">
        <ele>91.46</ele>
        <time>2020-07-26T09:52:28Z</time>
      </trkpt>
      <trkpt lat="44.7471" lon="-0.01262">
        <ele>90.5</ele>
        <time>2020-07-26T09:52:37Z</time>
      </trkpt>
      <trkpt lat="44.74715" lon="-0.01296">
        <ele>89.54</ele>
        <time>2020-07-26T09:52:58Z</time>
      </trkpt>
      <trkpt lat="44.74721" lon="-0.01333">
        <ele>89.54</ele>
        <time>2020-07-26T09:53:20Z</time>
      </trkpt>
      <trkpt lat="44.74726" lon="-0.0136">
        <ele>89.54</ele>
        <time>2020-07-26T09:53:36Z</time>
      </trkpt>
      <trkpt lat="44.74738" lon="-0.01384">
        <ele>88.1</ele>
        <time>2020-07-26T09:53:54Z</time>
      </trkpt>
      <trkpt lat="44.74739" lon="-0.01402">
        <ele>88.1</ele>
        <time>2020-07-26T09:54:12Z</time>
      </trkpt>
      <trkpt lat="44.74738" lon="-0.01402">
        <ele>87.62</ele>
        <time>2020-07-26T09:54:46Z</time>
      </trkpt>
      <trkpt lat="44.74719" lon="-0.01412">
        <ele>87.62</ele>
        <time>2020-07-26T09:55:15Z</time>
      </trkpt>
      <trkpt lat="44.74711" lon="-0.01415">
        <ele>88.1</ele>
        <time>2020-07-26T09:55:37Z</time>
      </trkpt>
      <trkpt lat="44.74702" lon="-0.0143">
        <ele>88.58</ele>
        <time>2020-07-26T09:55:47Z</time>
      </trkpt>
      <trkpt lat="44.74686" lon="-0.01457">
        <ele>89.06</ele>
        <time>2020-07-26T09:56:07Z</time>
      </trkpt>
      <trkpt lat="44.74667" lon="-0.01477">
        <ele>90.5</ele>
        <time>2020-07-26T09:56:27Z</time>
      </trkpt>
      <trkpt lat="44.74659" lon="-0.0149">
        <ele>90.98</ele>
        <time>2020-07-26T09:56:39Z</time>
      </trkpt>
      <trkpt lat="44.74657" lon="-0.01491">
        <ele>90.98</ele>
        <time>2020-07-26T09:56:40Z</time>
      </trkpt>
      <trkpt lat="44.74657" lon="-0.01492">
        <ele>90.98</ele>
        <time>2020-07-26T09:56:41Z</time>
      </trkpt>
      <trkpt lat="44.7465" lon="-0.015">
        <ele>91.46</ele>
        <time>2020-07-26T09:56:49Z</time>
      </trkpt>
      <trkpt lat="44.74639" lon="-0.01511">
        <ele>91.94</ele>
        <time>2020-07-26T09:57:02Z</time>
      </trkpt>
      <trkpt lat="44.74636" lon="-0.01515">
        <ele>91.94</ele>
        <time>2020-07-26T09:57:08Z</time>
      </trkpt>
      <trkpt lat="44.74635" lon="-0.01516">
        <ele>91.94</ele>
        <time>2020-07-26T09:57:09Z</time>
      </trkpt>
      <trkpt lat="44.74624" lon="-0.01531">
        <ele>93.39</ele>
        <time>2020-07-26T09:57:24Z</time>
      </trkpt>
      <trkpt lat="44.74605" lon="-0.01554">
        <ele>93.39</ele>
        <time>2020-07-26T09:57:45Z</time>
      </trkpt>
      <trkpt lat="44.74589" lon="-0.01574">
        <ele>93.87</ele>
        <time>2020-07-26T09:58:06Z</time>
      </trkpt>
      <trkpt lat="44.74582" lon="-0.01588">
        <ele>92.42</ele>
        <time>2020-07-26T09:58:15Z</time>
      </trkpt>
      <trkpt lat="44.74566" lon="-0.0161">
        <ele>93.39</ele>
        <time>2020-07-26T09:58:35Z</time>
      </trkpt>
      <trkpt lat="44.74555" lon="-0.01624">
        <ele>92.42</ele>
        <time>2020-07-26T09:58:52Z</time>
      </trkpt>
      <trkpt lat="44.74543" lon="-0.01645">
        <ele>92.9</ele>
        <time>2020-07-26T09:59:07Z</time>
      </trkpt>
      <trkpt lat="44.74535" lon="-0.01655">
        <ele>92.9</ele>
        <time>2020-07-26T09:59:19Z</time>
      </trkpt>
      <trkpt lat="44.74514" lon="-0.01679">
        <ele>93.87</ele>
        <time>2020-07-26T09:59:42Z</time>
      </trkpt>
      <trkpt lat="44.74502" lon="-0.01693">
        <ele>94.35</ele>
        <time>2020-07-26T10:00:00Z</time>
      </trkpt>
      <trkpt lat="44.7449" lon="-0.01704">
        <ele>94.35</ele>
        <time>2020-07-26T10:00:16Z</time>
      </trkpt>
      <trkpt lat="44.74481" lon="-0.01709">
        <ele>94.35</ele>
        <time>2020-07-26T10:00:39Z</time>
      </trkpt>
      <trkpt lat="44.74477" lon="-0.01712">
        <ele>95.79</ele>
        <time>2020-07-26T10:00:42Z</time>
      </trkpt>
      <trkpt lat="44.74459" lon="-0.01726">
        <ele>96.27</ele>
        <time>2020-07-26T10:00:57Z</time>
      </trkpt>
      <trkpt lat="44.74436" lon="-0.01743">
        <ele>95.79</ele>
        <time>2020-07-26T10:01:17Z</time>
      </trkpt>
      <trkpt lat="44.74434" lon="-0.01745">
        <ele>97.23</ele>
        <time>2020-07-26T10:01:19Z</time>
      </trkpt>
      <trkpt lat="44.74427" lon="-0.01751">
        <ele>97.71</ele>
        <time>2020-07-26T10:01:26Z</time>
      </trkpt>
      <trkpt lat="44.74405" lon="-0.01764">
        <ele>96.75</ele>
        <time>2020-07-26T10:01:44Z</time>
      </trkpt>
      <trkpt lat="44.74403" lon="-0.01765">
        <ele>98.67</ele>
        <time>2020-07-26T10:01:46Z</time>
      </trkpt>
      <trkpt lat="44.74395" lon="-0.01769">
        <ele>97.23</ele>
        <time>2020-07-26T10:01:53Z</time>
      </trkpt>
      <trkpt lat="44.74393" lon="-0.0177">
        <ele>98.67</ele>
        <time>2020-07-26T10:01:55Z</time>
      </trkpt>
      <trkpt lat="44.74372" lon="-0.01784">
        <ele>99.63</ele>
        <time>2020-07-26T10:02:15Z</time>
      </trkpt>
      <trkpt lat="44.74347" lon="-0.01794">
        <ele>98.67</ele>
        <time>2020-07-26T10:02:36Z</time>
      </trkpt>
      <trkpt lat="44.7432" lon="-0.01804">
        <ele>100.6</ele>
        <time>2020-07-26T10:02:56Z</time>
      </trkpt>
      <trkpt lat="44.74315" lon="-0.01805">
        <ele>99.63</ele>
        <time>2020-07-26T10:03:00Z</time>
      </trkpt>
      <trkpt lat="44.74291" lon="-0.01809">
        <ele>101.56</ele>
        <time>2020-07-26T10:03:18Z</time>
      </trkpt>
      <trkpt lat="44.74279" lon="-0.01813">
        <ele>101.08</ele>
        <time>2020-07-26T10:03:28Z</time>
      </trkpt>
      <trkpt lat="44.74257" lon="-0.01819">
        <ele>103</ele>
        <time>2020-07-26T10:03:48Z</time>
      </trkpt>
      <trkpt lat="44.74237" lon="-0.01823">
        <ele>103.96</ele>
        <time>2020-07-26T10:04:08Z</time>
      </trkpt>
      <trkpt lat="44.74237" lon="-0.01823">
        <ele>103.96</ele>
        <time>2020-07-26T10:04:28Z</time>
      </trkpt>
      <trkpt lat="44.74235" lon="-0.01823">
        <ele>103.96</ele>
        <time>2020-07-26T10:04:44Z</time>
      </trkpt>
      <trkpt lat="44.7423" lon="-0.01824">
        <ele>104.44</ele>
        <time>2020-07-26T10:04:48Z</time>
      </trkpt>
      <trkpt lat="44.74226" lon="-0.01825">
        <ele>104.44</ele>
        <time>2020-07-26T10:04:52Z</time>
      </trkpt>
      <trkpt lat="44.74203" lon="-0.01831">
        <ele>104.44</ele>
        <time>2020-07-26T10:05:11Z</time>
      </trkpt>
      <trkpt lat="44.74187" lon="-0.01836">
        <ele>104.44</ele>
        <time>2020-07-26T10:05:24Z</time>
      </trkpt>
      <trkpt lat="44.74167" lon="-0.01845">
        <ele>104.44</ele>
        <time>2020-07-26T10:05:40Z</time>
      </trkpt>
      <trkpt lat="44.74149" lon="-0.01856">
        <ele>104.44</ele>
        <time>2020-07-26T10:05:55Z</time>
      </trkpt>
      <trkpt lat="44.7413" lon="-0.01867">
        <ele>104.44</ele>
        <time>2020-07-26T10:06:12Z</time>
      </trkpt>
      <trkpt lat="44.74127" lon="-0.01869">
        <ele>103.48</ele>
        <time>2020-07-26T10:06:15Z</time>
      </trkpt>
      <trkpt lat="44.74123" lon="-0.01874">
        <ele>103.48</ele>
        <time>2020-07-26T10:06:19Z</time>
      </trkpt>
      <trkpt lat="44.74123" lon="-0.01875">
        <ele>103.48</ele>
        <time>2020-07-26T10:06:20Z</time>
      </trkpt>
      <trkpt lat="44.74122" lon="-0.01877">
        <ele>103.48</ele>
        <time>2020-07-26T10:06:21Z</time>
      </trkpt>
      <trkpt lat="44.74122" lon="-0.01879">
        <ele>103.48</ele>
        <time>2020-07-26T10:06:22Z</time>
      </trkpt>
      <trkpt lat="44.74122" lon="-0.0188">
        <ele>103.48</ele>
        <time>2020-07-26T10:06:23Z</time>
      </trkpt>
      <trkpt lat="44.74123" lon="-0.01882">
        <ele>103.48</ele>
        <time>2020-07-26T10:06:24Z</time>
      </trkpt>
      <trkpt lat="44.74123" lon="-0.01883">
        <ele>103.48</ele>
        <time>2020-07-26T10:06:25Z</time>
      </trkpt>
      <trkpt lat="44.74124" lon="-0.01884">
        <ele>103.48</ele>
        <time>2020-07-26T10:06:26Z</time>
      </trkpt>
      <trkpt lat="44.74124" lon="-0.01885">
        <ele>103.48</ele>
        <time>2020-07-26T10:06:27Z</time>
      </trkpt>
      <trkpt lat="44.74125" lon="-0.01886">
        <ele>103.48</ele>
        <time>2020-07-26T10:06:28Z</time>
      </trkpt>
      <trkpt lat="44.74132" lon="-0.01897">
        <ele>103.48</ele>
        <time>2020-07-26T10:06:40Z</time>
      </trkpt>
      <trkpt lat="44.74148" lon="-0.01916">
        <ele>101.56</ele>
        <time>2020-07-26T10:06:58Z</time>
      </trkpt>
      <trkpt lat="44.74169" lon="-0.01944">
        <ele>100.11</ele>
        <time>2020-07-26T10:07:20Z</time>
      </trkpt>
      <trkpt lat="44.74175" lon="-0.01962">
        <ele>101.56</ele>
        <time>2020-07-26T10:07:31Z</time>
      </trkpt>
      <trkpt lat="44.74186" lon="-0.01988">
        <ele>99.15</ele>
        <time>2020-07-26T10:07:48Z</time>
      </trkpt>
      <trkpt lat="44.74194" lon="-0.02018">
        <ele>99.63</ele>
        <time>2020-07-26T10:08:07Z</time>
      </trkpt>
      <trkpt lat="44.74194" lon="-0.02021">
        <ele>98.19</ele>
        <time>2020-07-26T10:08:09Z</time>
      </trkpt>
      <trkpt lat="44.74196" lon="-0.02028">
        <ele>98.19</ele>
        <time>2020-07-26T10:08:15Z</time>
      </trkpt>
      <trkpt lat="44.74203" lon="-0.02063">
        <ele>96.75</ele>
        <time>2020-07-26T10:08:35Z</time>
      </trkpt>
      <trkpt lat="44.74203" lon="-0.02065">
        <ele>96.75</ele>
        <time>2020-07-26T10:08:36Z</time>
      </trkpt>
      <trkpt lat="44.74206" lon="-0.0209">
        <ele>95.79</ele>
        <time>2020-07-26T10:08:56Z</time>
      </trkpt>
      <trkpt lat="44.74205" lon="-0.02091">
        <ele>95.79</ele>
        <time>2020-07-26T10:09:21Z</time>
      </trkpt>
      <trkpt lat="44.74204" lon="-0.02094">
        <ele>95.79</ele>
        <time>2020-07-26T10:10:00Z</time>
      </trkpt>
      <trkpt lat="44.74207" lon="-0.02089">
        <ele>95.79</ele>
        <time>2020-07-26T10:10:24Z</time>
      </trkpt>
      <trkpt lat="44.74207" lon="-0.02097">
        <ele>95.79</ele>
        <time>2020-07-26T10:10:38Z</time>
      </trkpt>
      <trkpt lat="44.74212" lon="-0.02128">
        <ele>94.83</ele>
        <time>2020-07-26T10:10:58Z</time>
      </trkpt>
      <trkpt lat="44.74218" lon="-0.02163">
        <ele>93.39</ele>
        <time>2020-07-26T10:11:21Z</time>
      </trkpt>
      <trkpt lat="44.74219" lon="-0.02165">
        <ele>93.39</ele>
        <time>2020-07-26T10:11:22Z</time>
      </trkpt>
      <trkpt lat="44.74224" lon="-0.02195">
        <ele>91.94</ele>
        <time>2020-07-26T10:11:41Z</time>
      </trkpt>
      <trkpt lat="44.74231" lon="-0.02226">
        <ele>91.94</ele>
        <time>2020-07-26T10:12:00Z</time>
      </trkpt>
      <trkpt lat="44.74232" lon="-0.02234">
        <ele>90.5</ele>
        <time>2020-07-26T10:12:05Z</time>
      </trkpt>
      <trkpt lat="44.74233" lon="-0.02241">
        <ele>91.46</ele>
        <time>2020-07-26T10:12:09Z</time>
      </trkpt>
      <trkpt lat="44.74236" lon="-0.02249">
        <ele>90.02</ele>
        <time>2020-07-26T10:12:15Z</time>
      </trkpt>
      <trkpt lat="44.74239" lon="-0.0227">
        <ele>90.02</ele>
        <time>2020-07-26T10:12:27Z</time>
      </trkpt>
      <trkpt lat="44.74249" lon="-0.02306">
        <ele>88.58</ele>
        <time>2020-07-26T10:12:49Z</time>
      </trkpt>
      <trkpt lat="44.74259" lon="-0.02334">
        <ele>88.1</ele>
        <time>2020-07-26T10:13:08Z</time>
      </trkpt>
      <trkpt lat="44.74272" lon="-0.02369">
        <ele>87.14</ele>
        <time>2020-07-26T10:13:29Z</time>
      </trkpt>
      <trkpt lat="44.74281" lon="-0.02394">
        <ele>86.18</ele>
        <time>2020-07-26T10:13:47Z</time>
      </trkpt>
      <trkpt lat="44.74288" lon="-0.02417">
        <ele>86.18</ele>
        <time>2020-07-26T10:14:01Z</time>
      </trkpt>
      <trkpt lat="44.743" lon="-0.02445">
        <ele>85.69</ele>
        <time>2020-07-26T10:14:19Z</time>
      </trkpt>
      <trkpt lat="44.74303" lon="-0.02455">
        <ele>87.14</ele>
        <time>2020-07-26T10:14:26Z</time>
      </trkpt>
      <trkpt lat="44.74305" lon="-0.02461">
        <ele>85.69</ele>
        <time>2020-07-26T10:14:30Z</time>
      </trkpt>
      <trkpt lat="44.74314" lon="-0.02494">
        <ele>86.66</ele>
        <time>2020-07-26T10:14:51Z</time>
      </trkpt>
      <trkpt lat="44.74319" lon="-0.02525">
        <ele>87.14</ele>
        <time>2020-07-26T10:15:10Z</time>
      </trkpt>
      <trkpt lat="44.7432" lon="-0.02531">
        <ele>85.69</ele>
        <time>2020-07-26T10:15:24Z</time>
      </trkpt>
      <trkpt lat="44.74318" lon="-0.0252">
        <ele>85.69</ele>
        <time>2020-07-26T10:15:30Z</time>
      </trkpt>
      <trkpt lat="44.74315" lon="-0.02518">
        <ele>86.66</ele>
        <time>2020-07-26T10:15:34Z</time>
      </trkpt>
      <trkpt lat="44.74312" lon="-0.02531">
        <ele>86.66</ele>
        <time>2020-07-26T10:15:47Z</time>
      </trkpt>
      <trkpt lat="44.74312" lon="-0.02528">
        <ele>86.66</ele>
        <time>2020-07-26T10:16:06Z</time>
      </trkpt>
      <trkpt lat="44.74313" lon="-0.0253">
        <ele>86.66</ele>
        <time>2020-07-26T10:16:29Z</time>
      </trkpt>
      <trkpt lat="44.74311" lon="-0.0253">
        <ele>86.66</ele>
        <time>2020-07-26T10:16:52Z</time>
      </trkpt>
      <trkpt lat="44.74312" lon="-0.02529">
        <ele>86.66</ele>
        <time>2020-07-26T10:17:28Z</time>
      </trkpt>
      <trkpt lat="44.74316" lon="-0.02516">
        <ele>86.66</ele>
        <time>2020-07-26T10:17:45Z</time>
      </trkpt>
      <trkpt lat="44.74317" lon="-0.02528">
        <ele>86.66</ele>
        <time>2020-07-26T10:17:59Z</time>
      </trkpt>
      <trkpt lat="44.74319" lon="-0.02534">
        <ele>86.66</ele>
        <time>2020-07-26T10:18:15Z</time>
      </trkpt>
      <trkpt lat="44.74326" lon="-0.0256">
        <ele>85.21</ele>
        <time>2020-07-26T10:18:34Z</time>
      </trkpt>
      <trkpt lat="44.74336" lon="-0.02593">
        <ele>84.25</ele>
        <time>2020-07-26T10:18:55Z</time>
      </trkpt>
      <trkpt lat="44.74344" lon="-0.0263">
        <ele>82.81</ele>
        <time>2020-07-26T10:19:17Z</time>
      </trkpt>
      <trkpt lat="44.74353" lon="-0.02667">
        <ele>81.85</ele>
        <time>2020-07-26T10:19:39Z</time>
      </trkpt>
      <trkpt lat="44.74359" lon="-0.02691">
        <ele>80.89</ele>
        <time>2020-07-26T10:19:58Z</time>
      </trkpt>
      <trkpt lat="44.74367" lon="-0.02724">
        <ele>80.41</ele>
        <time>2020-07-26T10:20:17Z</time>
      </trkpt>
      <trkpt lat="44.74377" lon="-0.02754">
        <ele>79.45</ele>
        <time>2020-07-26T10:20:35Z</time>
      </trkpt>
      <trkpt lat="44.74383" lon="-0.02778">
        <ele>78.97</ele>
        <time>2020-07-26T10:20:49Z</time>
      </trkpt>
      <trkpt lat="44.74392" lon="-0.02807">
        <ele>78.48</ele>
        <time>2020-07-26T10:21:05Z</time>
      </trkpt>
      <trkpt lat="44.74407" lon="-0.02836">
        <ele>78.48</ele>
        <time>2020-07-26T10:21:24Z</time>
      </trkpt>
      <trkpt lat="44.74421" lon="-0.02859">
        <ele>79.45</ele>
        <time>2020-07-26T10:21:42Z</time>
      </trkpt>
      <trkpt lat="44.74431" lon="-0.02877">
        <ele>78</ele>
        <time>2020-07-26T10:21:55Z</time>
      </trkpt>
      <trkpt lat="44.74437" lon="-0.02886">
        <ele>77.52</ele>
        <time>2020-07-26T10:22:03Z</time>
      </trkpt>
      <trkpt lat="44.74439" lon="-0.02889">
        <ele>78.48</ele>
        <time>2020-07-26T10:22:05Z</time>
      </trkpt>
      <trkpt lat="44.74449" lon="-0.02908">
        <ele>77.04</ele>
        <time>2020-07-26T10:22:19Z</time>
      </trkpt>
      <trkpt lat="44.74451" lon="-0.02911">
        <ele>78.48</ele>
        <time>2020-07-26T10:22:22Z</time>
      </trkpt>
      <trkpt lat="44.74454" lon="-0.02915">
        <ele>77.04</ele>
        <time>2020-07-26T10:22:25Z</time>
      </trkpt>
      <trkpt lat="44.74464" lon="-0.02928">
        <ele>76.08</ele>
        <time>2020-07-26T10:22:35Z</time>
      </trkpt>
      <trkpt lat="44.74466" lon="-0.0293">
        <ele>77.52</ele>
        <time>2020-07-26T10:22:37Z</time>
      </trkpt>
      <trkpt lat="44.74486" lon="-0.02946">
        <ele>75.6</ele>
        <time>2020-07-26T10:22:56Z</time>
      </trkpt>
      <trkpt lat="44.74501" lon="-0.02968">
        <ele>75.6</ele>
        <time>2020-07-26T10:23:15Z</time>
      </trkpt>
      <trkpt lat="44.74506" lon="-0.02973">
        <ele>75.6</ele>
        <time>2020-07-26T10:23:33Z</time>
      </trkpt>
      <trkpt lat="44.74505" lon="-0.02972">
        <ele>76.56</ele>
        <time>2020-07-26T10:23:51Z</time>
      </trkpt>
      <trkpt lat="44.74494" lon="-0.02985">
        <ele>75.6</ele>
        <time>2020-07-26T10:24:09Z</time>
      </trkpt>
      <trkpt lat="44.74493" lon="-0.02987">
        <ele>75.12</ele>
        <time>2020-07-26T10:24:10Z</time>
      </trkpt>
      <trkpt lat="44.74478" lon="-0.02999">
        <ele>73.68</ele>
        <time>2020-07-26T10:24:30Z</time>
      </trkpt>
      <trkpt lat="44.74464" lon="-0.03007">
        <ele>73.68</ele>
        <time>2020-07-26T10:24:45Z</time>
      </trkpt>
      <trkpt lat="44.74447" lon="-0.03015">
        <ele>74.16</ele>
        <time>2020-07-26T10:25:01Z</time>
      </trkpt>
      <trkpt lat="44.74446" lon="-0.03016">
        <ele>74.16</ele>
        <time>2020-07-26T10:25:02Z</time>
      </trkpt>
      <trkpt lat="44.74426" lon="-0.03026">
        <ele>75.6</ele>
        <time>2020-07-26T10:25:19Z</time>
      </trkpt>
      <trkpt lat="44.74423" lon="-0.03035">
        <ele>75.6</ele>
        <time>2020-07-26T10:25:32Z</time>
      </trkpt>
      <trkpt lat="44.74412" lon="-0.03058">
        <ele>75.6</ele>
        <time>2020-07-26T10:25:52Z</time>
      </trkpt>
      <trkpt lat="44.74401" lon="-0.03072">
        <ele>75.6</ele>
        <time>2020-07-26T10:26:12Z</time>
      </trkpt>
      <trkpt lat="44.74405" lon="-0.03072">
        <ele>75.6</ele>
        <time>2020-07-26T10:26:41Z</time>
      </trkpt>
      <trkpt lat="44.74405" lon="-0.03071">
        <ele>75.6</ele>
        <time>2020-07-26T10:27:05Z</time>
      </trkpt>
      <trkpt lat="44.74407" lon="-0.0307">
        <ele>75.12</ele>
        <time>2020-07-26T10:27:28Z</time>
      </trkpt>
      <trkpt lat="44.74402" lon="-0.03066">
        <ele>75.12</ele>
        <time>2020-07-26T10:27:50Z</time>
      </trkpt>
      <trkpt lat="44.74403" lon="-0.03069">
        <ele>75.12</ele>
        <time>2020-07-26T10:28:16Z</time>
      </trkpt>
      <trkpt lat="44.74401" lon="-0.03069">
        <ele>74.64</ele>
        <time>2020-07-26T10:28:42Z</time>
      </trkpt>
      <trkpt lat="44.74392" lon="-0.03067">
        <ele>74.64</ele>
        <time>2020-07-26T10:29:13Z</time>
      </trkpt>
      <trkpt lat="44.74398" lon="-0.03069">
        <ele>74.64</ele>
        <time>2020-07-26T10:29:38Z</time>
      </trkpt>
      <trkpt lat="44.74402" lon="-0.0307">
        <ele>74.16</ele>
        <time>2020-07-26T10:30:05Z</time>
      </trkpt>
      <trkpt lat="44.74401" lon="-0.03071">
        <ele>72.72</ele>
        <time>2020-07-26T10:30:28Z</time>
      </trkpt>
      <trkpt lat="44.74409" lon="-0.03068">
        <ele>72.72</ele>
        <time>2020-07-26T10:30:51Z</time>
      </trkpt>
      <trkpt lat="44.74408" lon="-0.03071">
        <ele>72.72</ele>
        <time>2020-07-26T10:31:17Z</time>
      </trkpt>
      <trkpt lat="44.74404" lon="-0.03069">
        <ele>72.72</ele>
        <time>2020-07-26T10:31:40Z</time>
      </trkpt>
      <trkpt lat="44.74405" lon="-0.03071">
        <ele>72.72</ele>
        <time>2020-07-26T10:32:02Z</time>
      </trkpt>
      <trkpt lat="44.74404" lon="-0.03074">
        <ele>72.72</ele>
        <time>2020-07-26T10:32:31Z</time>
      </trkpt>
      <trkpt lat="44.74402" lon="-0.03071">
        <ele>72.72</ele>
        <time>2020-07-26T10:33:05Z</time>
      </trkpt>
      <trkpt lat="44.74403" lon="-0.0307">
        <ele>72.72</ele>
        <time>2020-07-26T10:33:42Z</time>
      </trkpt>
      <trkpt lat="44.74403" lon="-0.03073">
        <ele>72.72</ele>
        <time>2020-07-26T10:34:10Z</time>
      </trkpt>
      <trkpt lat="44.74405" lon="-0.03078">
        <ele>72.72</ele>
        <time>2020-07-26T10:34:41Z</time>
      </trkpt>
      <trkpt lat="44.74404" lon="-0.03073">
        <ele>72.72</ele>
        <time>2020-07-26T10:35:13Z</time>
      </trkpt>
      <trkpt lat="44.74403" lon="-0.03072">
        <ele>72.72</ele>
        <time>2020-07-26T10:35:40Z</time>
      </trkpt>
      <trkpt lat="44.74403" lon="-0.03073">
        <ele>72.72</ele>
        <time>2020-07-26T10:36:06Z</time>
      </trkpt>
      <trkpt lat="44.74402" lon="-0.03076">
        <ele>72.72</ele>
        <time>2020-07-26T10:36:27Z</time>
      </trkpt>
      <trkpt lat="44.74403" lon="-0.03075">
        <ele>73.2</ele>
        <time>2020-07-26T10:36:55Z</time>
      </trkpt>
      <trkpt lat="44.744" lon="-0.03073">
        <ele>73.2</ele>
        <time>2020-07-26T10:37:20Z</time>
      </trkpt>
      <trkpt lat="44.74402" lon="-0.03073">
        <ele>73.2</ele>
        <time>2020-07-26T10:37:42Z</time>
      </trkpt>
      <trkpt lat="44.74404" lon="-0.03073">
        <ele>73.2</ele>
        <time>2020-07-26T10:38:14Z</time>
      </trkpt>
      <trkpt lat="44.74399" lon="-0.0307">
        <ele>73.2</ele>
        <time>2020-07-26T10:38:36Z</time>
      </trkpt>
      <trkpt lat="44.744" lon="-0.0307">
        <ele>73.2</ele>
        <time>2020-07-26T10:38:53Z</time>
      </trkpt>
      <trkpt lat="44.744" lon="-0.03071">
        <ele>73.2</ele>
        <time>2020-07-26T10:39:14Z</time>
      </trkpt>
      <trkpt lat="44.74402" lon="-0.03073">
        <ele>73.2</ele>
        <time>2020-07-26T10:39:43Z</time>
      </trkpt>
      <trkpt lat="44.74406" lon="-0.03074">
        <ele>73.2</ele>
        <time>2020-07-26T10:40:06Z</time>
      </trkpt>
      <trkpt lat="44.74405" lon="-0.03071">
        <ele>73.2</ele>
        <time>2020-07-26T10:40:28Z</time>
      </trkpt>
      <trkpt lat="44.74402" lon="-0.03072">
        <ele>73.2</ele>
        <time>2020-07-26T10:40:51Z</time>
      </trkpt>
      <trkpt lat="44.74404" lon="-0.03074">
        <ele>73.2</ele>
        <time>2020-07-26T10:41:24Z</time>
      </trkpt>
      <trkpt lat="44.74404" lon="-0.03072">
        <ele>73.2</ele>
        <time>2020-07-26T10:41:50Z</time>
      </trkpt>
      <trkpt lat="44.74403" lon="-0.03073">
        <ele>73.2</ele>
        <time>2020-07-26T10:42:13Z</time>
      </trkpt>
      <trkpt lat="44.74404" lon="-0.03071">
        <ele>73.2</ele>
        <time>2020-07-26T10:42:33Z</time>
      </trkpt>
      <trkpt lat="44.74402" lon="-0.03073">
        <ele>73.2</ele>
        <time>2020-07-26T10:42:55Z</time>
      </trkpt>
      <trkpt lat="44.74403" lon="-0.03073">
        <ele>73.2</ele>
        <time>2020-07-26T10:43:25Z</time>
      </trkpt>
      <trkpt lat="44.74403" lon="-0.03073">
        <ele>73.68</ele>
        <time>2020-07-26T10:43:49Z</time>
      </trkpt>
      <trkpt lat="44.74403" lon="-0.03068">
        <ele>73.68</ele>
        <time>2020-07-26T10:44:15Z</time>
      </trkpt>
      <trkpt lat="44.74403" lon="-0.03067">
        <ele>73.68</ele>
        <time>2020-07-26T10:44:35Z</time>
      </trkpt>
      <trkpt lat="44.74404" lon="-0.03067">
        <ele>73.68</ele>
        <time>2020-07-26T10:45:00Z</time>
      </trkpt>
      <trkpt lat="44.74403" lon="-0.03071">
        <ele>73.68</ele>
        <time>2020-07-26T10:45:22Z</time>
      </trkpt>
      <trkpt lat="44.74402" lon="-0.03071">
        <ele>74.16</ele>
        <time>2020-07-26T10:45:48Z</time>
      </trkpt>
      <trkpt lat="44.74402" lon="-0.03069">
        <ele>74.16</ele>
        <time>2020-07-26T10:46:10Z</time>
      </trkpt>
      <trkpt lat="44.74402" lon="-0.03068">
        <ele>74.16</ele>
        <time>2020-07-26T10:46:38Z</time>
      </trkpt>
      <trkpt lat="44.74403" lon="-0.03068">
        <ele>74.16</ele>
        <time>2020-07-26T10:47:04Z</time>
      </trkpt>
      <trkpt lat="44.74403" lon="-0.03069">
        <ele>74.16</ele>
        <time>2020-07-26T10:47:30Z</time>
      </trkpt>
      <trkpt lat="44.74402" lon="-0.0307">
        <ele>74.16</ele>
        <time>2020-07-26T10:47:54Z</time>
      </trkpt>
      <trkpt lat="44.74403" lon="-0.0307">
        <ele>74.16</ele>
        <time>2020-07-26T10:48:26Z</time>
      </trkpt>
      <trkpt lat="44.74402" lon="-0.03071">
        <ele>74.16</ele>
        <time>2020-07-26T10:48:42Z</time>
      </trkpt>
      <trkpt lat="44.744" lon="-0.03071">
        <ele>75.6</ele>
        <time>2020-07-26T10:49:15Z</time>
      </trkpt>
      <trkpt lat="44.74403" lon="-0.03072">
        <ele>75.6</ele>
        <time>2020-07-26T10:49:41Z</time>
      </trkpt>
      <trkpt lat="44.74402" lon="-0.03072">
        <ele>75.6</ele>
        <time>2020-07-26T10:50:04Z</time>
      </trkpt>
      <trkpt lat="44.74403" lon="-0.03071">
        <ele>75.6</ele>
        <time>2020-07-26T10:50:35Z</time>
      </trkpt>
      <trkpt lat="44.74404" lon="-0.03069">
        <ele>75.6</ele>
        <time>2020-07-26T10:51:03Z</time>
      </trkpt>
      <trkpt lat="44.74403" lon="-0.0307">
        <ele>75.6</ele>
        <time>2020-07-26T10:51:28Z</time>
      </trkpt>
      <trkpt lat="44.74403" lon="-0.03071">
        <ele>75.6</ele>
        <time>2020-07-26T10:52:00Z</time>
      </trkpt>
      <trkpt lat="44.74402" lon="-0.03071">
        <ele>75.6</ele>
        <time>2020-07-26T10:52:30Z</time>
      </trkpt>
      <trkpt lat="44.74401" lon="-0.03071">
        <ele>75.6</ele>
        <time>2020-07-26T10:52:56Z</time>
      </trkpt>
      <trkpt lat="44.74399" lon="-0.0307">
        <ele>76.08</ele>
        <time>2020-07-26T10:53:21Z</time>
      </trkpt>
      <trkpt lat="44.74401" lon="-0.0307">
        <ele>76.56</ele>
        <time>2020-07-26T10:53:43Z</time>
      </trkpt>
      <trkpt lat="44.74401" lon="-0.0307">
        <ele>76.56</ele>
        <time>2020-07-26T10:54:07Z</time>
      </trkpt>
      <trkpt lat="44.74404" lon="-0.03072">
        <ele>76.56</ele>
        <time>2020-07-26T10:54:37Z</time>
      </trkpt>
      <trkpt lat="44.74405" lon="-0.03073">
        <ele>76.56</ele>
        <time>2020-07-26T10:55:08Z</time>
      </trkpt>
      <trkpt lat="44.74404" lon="-0.03072">
        <ele>76.56</ele>
        <time>2020-07-26T10:55:36Z</time>
      </trkpt>
      <trkpt lat="44.74403" lon="-0.03072">
        <ele>76.56</ele>
        <time>2020-07-26T10:55:59Z</time>
      </trkpt>
      <trkpt lat="44.74402" lon="-0.03072">
        <ele>76.56</ele>
        <time>2020-07-26T10:56:18Z</time>
      </trkpt>
      <trkpt lat="44.74402" lon="-0.03071">
        <ele>76.56</ele>
        <time>2020-07-26T10:56:43Z</time>
      </trkpt>
      <trkpt lat="44.74403" lon="-0.03074">
        <ele>76.56</ele>
        <time>2020-07-26T10:57:16Z</time>
      </trkpt>
      <trkpt lat="44.74403" lon="-0.03072">
        <ele>76.56</ele>
        <time>2020-07-26T10:57:43Z</time>
      </trkpt>
      <trkpt lat="44.74403" lon="-0.03072">
        <ele>76.56</ele>
        <time>2020-07-26T10:58:11Z</time>
      </trkpt>
      <trkpt lat="44.74402" lon="-0.03071">
        <ele>76.56</ele>
        <time>2020-07-26T10:58:39Z</time>
      </trkpt>
      <trkpt lat="44.74402" lon="-0.03071">
        <ele>76.56</ele>
        <time>2020-07-26T10:59:00Z</time>
      </trkpt>
      <trkpt lat="44.74403" lon="-0.03072">
        <ele>76.56</ele>
        <time>2020-07-26T10:59:19Z</time>
      </trkpt>
      <trkpt lat="44.74403" lon="-0.03072">
        <ele>76.56</ele>
        <time>2020-07-26T10:59:46Z</time>
      </trkpt>
      <trkpt lat="44.74402" lon="-0.03072">
        <ele>76.56</ele>
        <time>2020-07-26T11:00:06Z</time>
      </trkpt>
      <trkpt lat="44.74402" lon="-0.03072">
        <ele>76.56</ele>
        <time>2020-07-26T11:00:28Z</time>
      </trkpt>
      <trkpt lat="44.74401" lon="-0.03074">
        <ele>76.56</ele>
        <time>2020-07-26T11:00:50Z</time>
      </trkpt>
      <trkpt lat="44.74402" lon="-0.03073">
        <ele>76.56</ele>
        <time>2020-07-26T11:01:11Z</time>
      </trkpt>
      <trkpt lat="44.74403" lon="-0.03072">
        <ele>76.56</ele>
        <time>2020-07-26T11:01:41Z</time>
      </trkpt>
      <trkpt lat="44.74402" lon="-0.03072">
        <ele>76.56</ele>
        <time>2020-07-26T11:02:11Z</time>
      </trkpt>
      <trkpt lat="44.74404" lon="-0.03071">
        <ele>76.56</ele>
        <time>2020-07-26T11:02:33Z</time>
      </trkpt>
      <trkpt lat="44.74403" lon="-0.03071">
        <ele>76.56</ele>
        <time>2020-07-26T11:03:06Z</time>
      </trkpt>
      <trkpt lat="44.74403" lon="-0.03072">
        <ele>76.56</ele>
        <time>2020-07-26T11:03:29Z</time>
      </trkpt>
      <trkpt lat="44.74402" lon="-0.03071">
        <ele>76.56</ele>
        <time>2020-07-26T11:03:57Z</time>
      </trkpt>
      <trkpt lat="44.74401" lon="-0.03072">
        <ele>76.56</ele>
        <time>2020-07-26T11:04:22Z</time>
      </trkpt>
      <trkpt lat="44.74402" lon="-0.03074">
        <ele>76.56</ele>
        <time>2020-07-26T11:04:54Z</time>
      </trkpt>
      <trkpt lat="44.74404" lon="-0.0307">
        <ele>76.56</ele>
        <time>2020-07-26T11:05:23Z</time>
      </trkpt>
      <trkpt lat="44.74404" lon="-0.03069">
        <ele>76.56</ele>
        <time>2020-07-26T11:05:51Z</time>
      </trkpt>
      <trkpt lat="44.74404" lon="-0.03072">
        <ele>76.56</ele>
        <time>2020-07-26T11:06:21Z</time>
      </trkpt>
      <trkpt lat="44.74405" lon="-0.03071">
        <ele>76.56</ele>
        <time>2020-07-26T11:06:47Z</time>
      </trkpt>
      <trkpt lat="44.74405" lon="-0.03072">
        <ele>77.04</ele>
        <time>2020-07-26T11:07:24Z</time>
      </trkpt>
      <trkpt lat="44.74406" lon="-0.03071">
        <ele>77.04</ele>
        <time>2020-07-26T11:07:50Z</time>
      </trkpt>
      <trkpt lat="44.74406" lon="-0.03072">
        <ele>77.04</ele>
        <time>2020-07-26T11:08:16Z</time>
      </trkpt>
      <trkpt lat="44.74404" lon="-0.03072">
        <ele>77.04</ele>
        <time>2020-07-26T11:08:36Z</time>
      </trkpt>
      <trkpt lat="44.74405" lon="-0.03071">
        <ele>77.04</ele>
        <time>2020-07-26T11:09:02Z</time>
      </trkpt>
      <trkpt lat="44.74405" lon="-0.03072">
        <ele>77.04</ele>
        <time>2020-07-26T11:09:27Z</time>
      </trkpt>
      <trkpt lat="44.74404" lon="-0.0307">
        <ele>77.04</ele>
        <time>2020-07-26T11:10:01Z</time>
      </trkpt>
      <trkpt lat="44.74403" lon="-0.03071">
        <ele>76.56</ele>
        <time>2020-07-26T11:10:26Z</time>
      </trkpt>
      <trkpt lat="44.74403" lon="-0.03071">
        <ele>76.56</ele>
        <time>2020-07-26T11:11:01Z</time>
      </trkpt>
      <trkpt lat="44.74402" lon="-0.03071">
        <ele>76.56</ele>
        <time>2020-07-26T11:11:29Z</time>
      </trkpt>
      <trkpt lat="44.74403" lon="-0.0307">
        <ele>76.56</ele>
        <time>2020-07-26T11:11:52Z</time>
      </trkpt>
      <trkpt lat="44.74405" lon="-0.03072">
        <ele>76.56</ele>
        <time>2020-07-26T11:12:23Z</time>
      </trkpt>
      <trkpt lat="44.74402" lon="-0.03071">
        <ele>76.56</ele>
        <time>2020-07-26T11:13:05Z</time>
      </trkpt>
      <trkpt lat="44.74404" lon="-0.03072">
        <ele>76.56</ele>
        <time>2020-07-26T11:13:30Z</time>
      </trkpt>
      <trkpt lat="44.74403" lon="-0.03069">
        <ele>76.56</ele>
        <time>2020-07-26T11:14:01Z</time>
      </trkpt>
      <trkpt lat="44.74402" lon="-0.03072">
        <ele>76.56</ele>
        <time>2020-07-26T11:14:42Z</time>
      </trkpt>
      <trkpt lat="44.74403" lon="-0.0307">
        <ele>76.56</ele>
        <time>2020-07-26T11:15:09Z</time>
      </trkpt>
      <trkpt lat="44.74403" lon="-0.03073">
        <ele>76.56</ele>
        <time>2020-07-26T11:15:43Z</time>
      </trkpt>
      <trkpt lat="44.74401" lon="-0.03074">
        <ele>76.56</ele>
        <time>2020-07-26T11:16:16Z</time>
      </trkpt>
      <trkpt lat="44.74403" lon="-0.03074">
        <ele>76.56</ele>
        <time>2020-07-26T11:16:45Z</time>
      </trkpt>
      <trkpt lat="44.74403" lon="-0.03075">
        <ele>76.56</ele>
        <time>2020-07-26T11:17:04Z</time>
      </trkpt>
      <trkpt lat="44.74403" lon="-0.03071">
        <ele>76.56</ele>
        <time>2020-07-26T11:17:21Z</time>
      </trkpt>
      <trkpt lat="44.74404" lon="-0.03071">
        <ele>76.56</ele>
        <time>2020-07-26T11:17:44Z</time>
      </trkpt>
      <trkpt lat="44.74404" lon="-0.03073">
        <ele>76.56</ele>
        <time>2020-07-26T11:18:07Z</time>
      </trkpt>
      <trkpt lat="44.74401" lon="-0.0307">
        <ele>77.04</ele>
        <time>2020-07-26T11:18:42Z</time>
      </trkpt>
      <trkpt lat="44.74402" lon="-0.03073">
        <ele>77.04</ele>
        <time>2020-07-26T11:19:18Z</time>
      </trkpt>
      <trkpt lat="44.74402" lon="-0.03071">
        <ele>76.56</ele>
        <time>2020-07-26T11:19:49Z</time>
      </trkpt>
      <trkpt lat="44.74402" lon="-0.03073">
        <ele>76.56</ele>
        <time>2020-07-26T11:20:26Z</time>
      </trkpt>
      <trkpt lat="44.74403" lon="-0.03073">
        <ele>76.56</ele>
        <time>2020-07-26T11:20:57Z</time>
      </trkpt>
      <trkpt lat="44.74401" lon="-0.03072">
        <ele>76.56</ele>
        <time>2020-07-26T11:21:25Z</time>
      </trkpt>
      <trkpt lat="44.74402" lon="-0.03074">
        <ele>76.56</ele>
        <time>2020-07-26T11:21:59Z</time>
      </trkpt>
      <trkpt lat="44.74403" lon="-0.03074">
        <ele>76.56</ele>
        <time>2020-07-26T11:22:17Z</time>
      </trkpt>
      <trkpt lat="44.74405" lon="-0.03075">
        <ele>76.56</ele>
        <time>2020-07-26T11:22:45Z</time>
      </trkpt>
      <trkpt lat="44.74404" lon="-0.03076">
        <ele>76.56</ele>
        <time>2020-07-26T11:23:17Z</time>
      </trkpt>
      <trkpt lat="44.74403" lon="-0.03076">
        <ele>76.56</ele>
        <time>2020-07-26T11:23:41Z</time>
      </trkpt>
      <trkpt lat="44.74403" lon="-0.03075">
        <ele>76.56</ele>
        <time>2020-07-26T11:24:07Z</time>
      </trkpt>
      <trkpt lat="44.74405" lon="-0.03074">
        <ele>76.56</ele>
        <time>2020-07-26T11:24:34Z</time>
      </trkpt>
      <trkpt lat="44.74404" lon="-0.03074">
        <ele>76.56</ele>
        <time>2020-07-26T11:25:00Z</time>
      </trkpt>
      <trkpt lat="44.74404" lon="-0.03073">
        <ele>76.56</ele>
        <time>2020-07-26T11:25:32Z</time>
      </trkpt>
      <trkpt lat="44.74403" lon="-0.03072">
        <ele>76.56</ele>
        <time>2020-07-26T11:25:56Z</time>
      </trkpt>
      <trkpt lat="44.74402" lon="-0.03072">
        <ele>76.56</ele>
        <time>2020-07-26T11:26:15Z</time>
      </trkpt>
      <trkpt lat="44.74402" lon="-0.03072">
        <ele>76.56</ele>
        <time>2020-07-26T11:26:37Z</time>
      </trkpt>
      <trkpt lat="44.74403" lon="-0.03072">
        <ele>76.56</ele>
        <time>2020-07-26T11:27:02Z</time>
      </trkpt>
      <trkpt lat="44.74403" lon="-0.03069">
        <ele>76.56</ele>
        <time>2020-07-26T11:27:27Z</time>
      </trkpt>
      <trkpt lat="44.74402" lon="-0.03072">
        <ele>76.08</ele>
        <time>2020-07-26T11:27:54Z</time>
      </trkpt>
      <trkpt lat="44.74403" lon="-0.03071">
        <ele>76.08</ele>
        <time>2020-07-26T11:28:25Z</time>
      </trkpt>
      <trkpt lat="44.74403" lon="-0.03082">
        <ele>76.08</ele>
        <time>2020-07-26T11:28:51Z</time>
      </trkpt>
      <trkpt lat="44.744" lon="-0.03087">
        <ele>76.56</ele>
        <time>2020-07-26T11:28:59Z</time>
      </trkpt>
      <trkpt lat="44.74398" lon="-0.03098">
        <ele>76.56</ele>
        <time>2020-07-26T11:29:08Z</time>
      </trkpt>
      <trkpt lat="44.74401" lon="-0.03119">
        <ele>76.56</ele>
        <time>2020-07-26T11:29:24Z</time>
      </trkpt>
      <trkpt lat="44.74397" lon="-0.03135">
        <ele>76.56</ele>
        <time>2020-07-26T11:29:39Z</time>
      </trkpt>
      <trkpt lat="44.74397" lon="-0.03158">
        <ele>76.08</ele>
        <time>2020-07-26T11:29:58Z</time>
      </trkpt>
      <trkpt lat="44.74396" lon="-0.03164">
        <ele>76.08</ele>
        <time>2020-07-26T11:30:14Z</time>
      </trkpt>
      <trkpt lat="44.74397" lon="-0.03164">
        <ele>76.08</ele>
        <time>2020-07-26T11:30:34Z</time>
      </trkpt>
      <trkpt lat="44.74402" lon="-0.03189">
        <ele>76.08</ele>
        <time>2020-07-26T11:30:52Z</time>
      </trkpt>
      <trkpt lat="44.74417" lon="-0.03217">
        <ele>76.08</ele>
        <time>2020-07-26T11:31:12Z</time>
      </trkpt>
      <trkpt lat="44.74425" lon="-0.03226">
        <ele>74.64</ele>
        <time>2020-07-26T11:31:21Z</time>
      </trkpt>
      <trkpt lat="44.74439" lon="-0.03244">
        <ele>75.12</ele>
        <time>2020-07-26T11:31:36Z</time>
      </trkpt>
      <trkpt lat="44.74458" lon="-0.03267">
        <ele>76.08</ele>
        <time>2020-07-26T11:31:55Z</time>
      </trkpt>
      <trkpt lat="44.74472" lon="-0.03285">
        <ele>76.08</ele>
        <time>2020-07-26T11:32:11Z</time>
      </trkpt>
      <trkpt lat="44.74489" lon="-0.03307">
        <ele>76.08</ele>
        <time>2020-07-26T11:32:31Z</time>
      </trkpt>
      <trkpt lat="44.74507" lon="-0.03332">
        <ele>76.08</ele>
        <time>2020-07-26T11:32:52Z</time>
      </trkpt>
      <trkpt lat="44.74515" lon="-0.03348">
        <ele>76.56</ele>
        <time>2020-07-26T11:33:09Z</time>
      </trkpt>
      <trkpt lat="44.74521" lon="-0.03356">
        <ele>75.6</ele>
        <time>2020-07-26T11:33:15Z</time>
      </trkpt>
      <trkpt lat="44.7454" lon="-0.03386">
        <ele>76.56</ele>
        <time>2020-07-26T11:33:38Z</time>
      </trkpt>
      <trkpt lat="44.74544" lon="-0.03399">
        <ele>75.6</ele>
        <time>2020-07-26T11:33:56Z</time>
      </trkpt>
      <trkpt lat="44.74542" lon="-0.03401">
        <ele>76.56</ele>
        <time>2020-07-26T11:34:11Z</time>
      </trkpt>
      <trkpt lat="44.74546" lon="-0.03407">
        <ele>76.56</ele>
        <time>2020-07-26T11:34:28Z</time>
      </trkpt>
      <trkpt lat="44.74554" lon="-0.03406">
        <ele>76.56</ele>
        <time>2020-07-26T11:34:51Z</time>
      </trkpt>
      <trkpt lat="44.74554" lon="-0.03406">
        <ele>77.04</ele>
        <time>2020-07-26T11:35:17Z</time>
      </trkpt>
      <trkpt lat="44.74546" lon="-0.03404">
        <ele>77.04</ele>
        <time>2020-07-26T11:35:45Z</time>
      </trkpt>
      <trkpt lat="44.74545" lon="-0.03409">
        <ele>77.04</ele>
        <time>2020-07-26T11:36:21Z</time>
      </trkpt>
      <trkpt lat="44.74546" lon="-0.03403">
        <ele>77.04</ele>
        <time>2020-07-26T11:36:54Z</time>
      </trkpt>
      <trkpt lat="44.74558" lon="-0.03415">
        <ele>77.04</ele>
        <time>2020-07-26T11:37:10Z</time>
      </trkpt>
      <trkpt lat="44.74566" lon="-0.03425">
        <ele>75.6</ele>
        <time>2020-07-26T11:37:19Z</time>
      </trkpt>
      <trkpt lat="44.74583" lon="-0.03453">
        <ele>75.6</ele>
        <time>2020-07-26T11:37:41Z</time>
      </trkpt>
      <trkpt lat="44.74593" lon="-0.03473">
        <ele>77.04</ele>
        <time>2020-07-26T11:37:56Z</time>
      </trkpt>
      <trkpt lat="44.74591" lon="-0.03479">
        <ele>77.04</ele>
        <time>2020-07-26T11:38:13Z</time>
      </trkpt>
      <trkpt lat="44.74578" lon="-0.03497">
        <ele>78.97</ele>
        <time>2020-07-26T11:38:31Z</time>
      </trkpt>
      <trkpt lat="44.74568" lon="-0.03513">
        <ele>79.93</ele>
        <time>2020-07-26T11:38:49Z</time>
      </trkpt>
      <trkpt lat="44.7457" lon="-0.03534">
        <ele>81.85</ele>
        <time>2020-07-26T11:39:08Z</time>
      </trkpt>
      <trkpt lat="44.74568" lon="-0.0357">
        <ele>81.85</ele>
        <time>2020-07-26T11:39:30Z</time>
      </trkpt>
      <trkpt lat="44.74562" lon="-0.03569">
        <ele>83.29</ele>
        <time>2020-07-26T11:39:49Z</time>
      </trkpt>
      <trkpt lat="44.74563" lon="-0.03566">
        <ele>81.85</ele>
        <time>2020-07-26T11:39:52Z</time>
      </trkpt>
      <trkpt lat="44.74561" lon="-0.03563">
        <ele>81.37</ele>
        <time>2020-07-26T11:40:05Z</time>
      </trkpt>
      <trkpt lat="44.74561" lon="-0.03582">
        <ele>80.89</ele>
        <time>2020-07-26T11:42:56Z</time>
      </trkpt>
      <trkpt lat="44.74561" lon="-0.03578">
        <ele>82.33</ele>
        <time>2020-07-26T11:42:58Z</time>
      </trkpt>
      <trkpt lat="44.74558" lon="-0.03568">
        <ele>82.33</ele>
        <time>2020-07-26T11:43:20Z</time>
      </trkpt>
      <trkpt lat="44.74551" lon="-0.0358">
        <ele>82.81</ele>
        <time>2020-07-26T11:43:36Z</time>
      </trkpt>
      <trkpt lat="44.74548" lon="-0.03581">
        <ele>82.81</ele>
        <time>2020-07-26T11:43:57Z</time>
      </trkpt>
      <trkpt lat="44.74546" lon="-0.03573">
        <ele>82.81</ele>
        <time>2020-07-26T11:44:22Z</time>
      </trkpt>
      <trkpt lat="44.74549" lon="-0.03584">
        <ele>82.81</ele>
        <time>2020-07-26T11:44:42Z</time>
      </trkpt>
      <trkpt lat="44.74545" lon="-0.03565">
        <ele>83.29</ele>
        <time>2020-07-26T11:45:11Z</time>
      </trkpt>
      <trkpt lat="44.74544" lon="-0.03566">
        <ele>83.29</ele>
        <time>2020-07-26T11:45:41Z</time>
      </trkpt>
      <trkpt lat="44.74541" lon="-0.0357">
        <ele>83.29</ele>
        <time>2020-07-26T11:45:58Z</time>
      </trkpt>
      <trkpt lat="44.74536" lon="-0.03579">
        <ele>83.29</ele>
        <time>2020-07-26T11:46:15Z</time>
      </trkpt>
      <trkpt lat="44.74537" lon="-0.03581">
        <ele>83.29</ele>
        <time>2020-07-26T11:46:39Z</time>
      </trkpt>
      <trkpt lat="44.74535" lon="-0.03574">
        <ele>83.77</ele>
        <time>2020-07-26T11:47:04Z</time>
      </trkpt>
      <trkpt lat="44.74527" lon="-0.03553">
        <ele>84.25</ele>
        <time>2020-07-26T11:47:23Z</time>
      </trkpt>
      <trkpt lat="44.74528" lon="-0.03544">
        <ele>84.25</ele>
        <time>2020-07-26T11:47:47Z</time>
      </trkpt>
      <trkpt lat="44.74533" lon="-0.03535">
        <ele>84.25</ele>
        <time>2020-07-26T11:48:12Z</time>
      </trkpt>
      <trkpt lat="44.74549" lon="-0.03524">
        <ele>82.81</ele>
        <time>2020-07-26T11:48:29Z</time>
      </trkpt>
      <trkpt lat="44.74564" lon="-0.03518">
        <ele>82.81</ele>
        <time>2020-07-26T11:48:48Z</time>
      </trkpt>
      <trkpt lat="44.74567" lon="-0.03519">
        <ele>82.81</ele>
        <time>2020-07-26T11:49:04Z</time>
      </trkpt>
      <trkpt lat="44.74567" lon="-0.03518">
        <ele>82.81</ele>
        <time>2020-07-26T11:49:36Z</time>
      </trkpt>
      <trkpt lat="44.7457" lon="-0.03508">
        <ele>80.41</ele>
        <time>2020-07-26T11:49:56Z</time>
      </trkpt>
      <trkpt lat="44.74585" lon="-0.0349">
        <ele>79.45</ele>
        <time>2020-07-26T11:50:15Z</time>
      </trkpt>
      <trkpt lat="44.74587" lon="-0.03477">
        <ele>78</ele>
        <time>2020-07-26T11:50:32Z</time>
      </trkpt>
      <trkpt lat="44.74594" lon="-0.03484">
        <ele>78</ele>
        <time>2020-07-26T11:50:56Z</time>
      </trkpt>
      <trkpt lat="44.74595" lon="-0.03477">
        <ele>78</ele>
        <time>2020-07-26T11:51:21Z</time>
      </trkpt>
      <trkpt lat="44.74593" lon="-0.03475">
        <ele>77.52</ele>
        <time>2020-07-26T11:51:48Z</time>
      </trkpt>
      <trkpt lat="44.74597" lon="-0.03471">
        <ele>77.52</ele>
        <time>2020-07-26T11:52:22Z</time>
      </trkpt>
      <trkpt lat="44.74606" lon="-0.03485">
        <ele>77.04</ele>
        <time>2020-07-26T11:52:42Z</time>
      </trkpt>
      <trkpt lat="44.74624" lon="-0.03511">
        <ele>75.6</ele>
        <time>2020-07-26T11:53:05Z</time>
      </trkpt>
      <trkpt lat="44.74642" lon="-0.03542">
        <ele>74.16</ele>
        <time>2020-07-26T11:53:26Z</time>
      </trkpt>
      <trkpt lat="44.74659" lon="-0.03576">
        <ele>71.27</ele>
        <time>2020-07-26T11:53:49Z</time>
      </trkpt>
      <trkpt lat="44.74669" lon="-0.03606">
        <ele>70.31</ele>
        <time>2020-07-26T11:54:08Z</time>
      </trkpt>
      <trkpt lat="44.74674" lon="-0.03628">
        <ele>67.91</ele>
        <time>2020-07-26T11:54:20Z</time>
      </trkpt>
      <trkpt lat="44.7468" lon="-0.03667">
        <ele>66.95</ele>
        <time>2020-07-26T11:54:42Z</time>
      </trkpt>
      <trkpt lat="44.74685" lon="-0.03693">
        <ele>65.03</ele>
        <time>2020-07-26T11:54:58Z</time>
      </trkpt>
      <trkpt lat="44.74689" lon="-0.03716">
        <ele>63.58</ele>
        <time>2020-07-26T11:55:20Z</time>
      </trkpt>
      <trkpt lat="44.74699" lon="-0.03749">
        <ele>61.66</ele>
        <time>2020-07-26T11:55:38Z</time>
      </trkpt>
      <trkpt lat="44.74707" lon="-0.03786">
        <ele>59.26</ele>
        <time>2020-07-26T11:55:59Z</time>
      </trkpt>
      <trkpt lat="44.74716" lon="-0.03802">
        <ele>58.78</ele>
        <time>2020-07-26T11:56:10Z</time>
      </trkpt>
      <trkpt lat="44.74724" lon="-0.03807">
        <ele>58.78</ele>
        <time>2020-07-26T11:56:17Z</time>
      </trkpt>
      <trkpt lat="44.7473" lon="-0.03809">
        <ele>57.34</ele>
        <time>2020-07-26T11:56:21Z</time>
      </trkpt>
      <trkpt lat="44.7476" lon="-0.03816">
        <ele>57.34</ele>
        <time>2020-07-26T11:56:43Z</time>
      </trkpt>
      <trkpt lat="44.74763" lon="-0.03816">
        <ele>55.41</ele>
        <time>2020-07-26T11:56:45Z</time>
      </trkpt>
      <trkpt lat="44.7479" lon="-0.03818">
        <ele>55.41</ele>
        <time>2020-07-26T11:57:04Z</time>
      </trkpt>
      <trkpt lat="44.74801" lon="-0.03822">
        <ele>54.93</ele>
        <time>2020-07-26T11:57:13Z</time>
      </trkpt>
      <trkpt lat="44.74811" lon="-0.03824">
        <ele>54.45</ele>
        <time>2020-07-26T11:57:20Z</time>
      </trkpt>
      <trkpt lat="44.74821" lon="-0.03829">
        <ele>53.01</ele>
        <time>2020-07-26T11:57:28Z</time>
      </trkpt>
      <trkpt lat="44.74823" lon="-0.0383">
        <ele>53.97</ele>
        <time>2020-07-26T11:57:30Z</time>
      </trkpt>
      <trkpt lat="44.74826" lon="-0.03832">
        <ele>53.01</ele>
        <time>2020-07-26T11:57:32Z</time>
      </trkpt>
      <trkpt lat="44.74839" lon="-0.03839">
        <ele>51.57</ele>
        <time>2020-07-26T11:57:43Z</time>
      </trkpt>
      <trkpt lat="44.74841" lon="-0.03841">
        <ele>52.53</ele>
        <time>2020-07-26T11:57:45Z</time>
      </trkpt>
      <trkpt lat="44.74852" lon="-0.03848">
        <ele>51.09</ele>
        <time>2020-07-26T11:57:53Z</time>
      </trkpt>
      <trkpt lat="44.74868" lon="-0.03859">
        <ele>50.61</ele>
        <time>2020-07-26T11:58:06Z</time>
      </trkpt>
      <trkpt lat="44.74885" lon="-0.03873">
        <ele>51.09</ele>
        <time>2020-07-26T11:58:20Z</time>
      </trkpt>
      <trkpt lat="44.74888" lon="-0.03875">
        <ele>49.65</ele>
        <time>2020-07-26T11:58:22Z</time>
      </trkpt>
      <trkpt lat="44.74898" lon="-0.03884">
        <ele>49.16</ele>
        <time>2020-07-26T11:58:32Z</time>
      </trkpt>
      <trkpt lat="44.74916" lon="-0.039">
        <ele>47.72</ele>
        <time>2020-07-26T11:58:49Z</time>
      </trkpt>
      <trkpt lat="44.74918" lon="-0.03903">
        <ele>49.16</ele>
        <time>2020-07-26T11:58:51Z</time>
      </trkpt>
      <trkpt lat="44.74935" lon="-0.03915">
        <ele>46.76</ele>
        <time>2020-07-26T11:59:04Z</time>
      </trkpt>
      <trkpt lat="44.74938" lon="-0.03917">
        <ele>47.72</ele>
        <time>2020-07-26T11:59:06Z</time>
      </trkpt>
      <trkpt lat="44.74941" lon="-0.03919">
        <ele>46.76</ele>
        <time>2020-07-26T11:59:08Z</time>
      </trkpt>
      <trkpt lat="44.74964" lon="-0.03937">
        <ele>44.84</ele>
        <time>2020-07-26T11:59:27Z</time>
      </trkpt>
      <trkpt lat="44.74972" lon="-0.03943">
        <ele>44.84</ele>
        <time>2020-07-26T11:59:34Z</time>
      </trkpt>
      <trkpt lat="44.75" lon="-0.03963">
        <ele>44.84</ele>
        <time>2020-07-26T11:59:55Z</time>
      </trkpt>
      <trkpt lat="44.75005" lon="-0.03966">
        <ele>43.4</ele>
        <time>2020-07-26T11:59:59Z</time>
      </trkpt>
      <trkpt lat="44.75012" lon="-0.03972">
        <ele>44.36</ele>
        <time>2020-07-26T12:00:05Z</time>
      </trkpt>
      <trkpt lat="44.75036" lon="-0.03992">
        <ele>44.36</ele>
        <time>2020-07-26T12:00:26Z</time>
      </trkpt>
      <trkpt lat="44.7505" lon="-0.04">
        <ele>42.92</ele>
        <time>2020-07-26T12:00:38Z</time>
      </trkpt>
      <trkpt lat="44.75076" lon="-0.04007">
        <ele>43.88</ele>
        <time>2020-07-26T12:00:58Z</time>
      </trkpt>
      <trkpt lat="44.75104" lon="-0.04013">
        <ele>41.95</ele>
        <time>2020-07-26T12:01:19Z</time>
      </trkpt>
      <trkpt lat="44.7513" lon="-0.04019">
        <ele>40.99</ele>
        <time>2020-07-26T12:01:40Z</time>
      </trkpt>
      <trkpt lat="44.75138" lon="-0.04021">
        <ele>40.51</ele>
        <time>2020-07-26T12:01:47Z</time>
      </trkpt>
      <trkpt lat="44.75163" lon="-0.04025">
        <ele>41.95</ele>
        <time>2020-07-26T12:02:05Z</time>
      </trkpt>
      <trkpt lat="44.75164" lon="-0.04025">
        <ele>40.03</ele>
        <time>2020-07-26T12:02:06Z</time>
      </trkpt>
      <trkpt lat="44.75168" lon="-0.04025">
        <ele>41.47</ele>
        <time>2020-07-26T12:02:09Z</time>
      </trkpt>
      <trkpt lat="44.75188" lon="-0.04031">
        <ele>41.47</ele>
        <time>2020-07-26T12:02:26Z</time>
      </trkpt>
      <trkpt lat="44.75203" lon="-0.04034">
        <ele>41.95</ele>
        <time>2020-07-26T12:02:37Z</time>
      </trkpt>
      <trkpt lat="44.75205" lon="-0.04036">
        <ele>41.95</ele>
        <time>2020-07-26T12:02:51Z</time>
      </trkpt>
      <trkpt lat="44.75204" lon="-0.04041">
        <ele>41.95</ele>
        <time>2020-07-26T12:02:55Z</time>
      </trkpt>
      <trkpt lat="44.75204" lon="-0.04042">
        <ele>41.95</ele>
        <time>2020-07-26T12:02:56Z</time>
      </trkpt>
      <trkpt lat="44.75204" lon="-0.04044">
        <ele>41.95</ele>
        <time>2020-07-26T12:02:57Z</time>
      </trkpt>
      <trkpt lat="44.75204" lon="-0.04046">
        <ele>41.95</ele>
        <time>2020-07-26T12:02:58Z</time>
      </trkpt>
      <trkpt lat="44.75203" lon="-0.04048">
        <ele>41.95</ele>
        <time>2020-07-26T12:02:59Z</time>
      </trkpt>
      <trkpt lat="44.75203" lon="-0.04049">
        <ele>41.95</ele>
        <time>2020-07-26T12:03:00Z</time>
      </trkpt>
      <trkpt lat="44.75203" lon="-0.04051">
        <ele>41.95</ele>
        <time>2020-07-26T12:03:01Z</time>
      </trkpt>
      <trkpt lat="44.75203" lon="-0.04052">
        <ele>41.95</ele>
        <time>2020-07-26T12:03:02Z</time>
      </trkpt>
      <trkpt lat="44.75202" lon="-0.04061">
        <ele>40.03</ele>
        <time>2020-07-26T12:03:07Z</time>
      </trkpt>
      <trkpt lat="44.75202" lon="-0.04074">
        <ele>40.99</ele>
        <time>2020-07-26T12:03:23Z</time>
      </trkpt>
      <trkpt lat="44.75202" lon="-0.0407">
        <ele>40.99</ele>
        <time>2020-07-26T12:03:46Z</time>
      </trkpt>
      <trkpt lat="44.75197" lon="-0.0406">
        <ele>40.99</ele>
        <time>2020-07-26T12:04:11Z</time>
      </trkpt>
      <trkpt lat="44.75203" lon="-0.04091">
        <ele>40.99</ele>
        <time>2020-07-26T12:04:33Z</time>
      </trkpt>
      <trkpt lat="44.75204" lon="-0.04098">
        <ele>40.03</ele>
        <time>2020-07-26T12:04:38Z</time>
      </trkpt>
      <trkpt lat="44.75213" lon="-0.04126">
        <ele>40.03</ele>
        <time>2020-07-26T12:04:55Z</time>
      </trkpt>
      <trkpt lat="44.75219" lon="-0.04148">
        <ele>38.59</ele>
        <time>2020-07-26T12:05:08Z</time>
      </trkpt>
      <trkpt lat="44.75222" lon="-0.04162">
        <ele>38.59</ele>
        <time>2020-07-26T12:05:16Z</time>
      </trkpt>
      <trkpt lat="44.75224" lon="-0.04168">
        <ele>40.03</ele>
        <time>2020-07-26T12:05:19Z</time>
      </trkpt>
      <trkpt lat="44.75229" lon="-0.04197">
        <ele>40.03</ele>
        <time>2020-07-26T12:05:36Z</time>
      </trkpt>
      <trkpt lat="44.7523" lon="-0.0421">
        <ele>38.59</ele>
        <time>2020-07-26T12:05:43Z</time>
      </trkpt>
      <trkpt lat="44.75231" lon="-0.0422">
        <ele>40.03</ele>
        <time>2020-07-26T12:05:48Z</time>
      </trkpt>
      <trkpt lat="44.75234" lon="-0.04237">
        <ele>38.59</ele>
        <time>2020-07-26T12:05:58Z</time>
      </trkpt>
      <trkpt lat="44.75236" lon="-0.04266">
        <ele>38.59</ele>
        <time>2020-07-26T12:06:15Z</time>
      </trkpt>
      <trkpt lat="44.75237" lon="-0.04279">
        <ele>39.07</ele>
        <time>2020-07-26T12:06:22Z</time>
      </trkpt>
      <trkpt lat="44.75239" lon="-0.0431">
        <ele>37.63</ele>
        <time>2020-07-26T12:06:39Z</time>
      </trkpt>
      <trkpt lat="44.7524" lon="-0.04314">
        <ele>39.07</ele>
        <time>2020-07-26T12:06:41Z</time>
      </trkpt>
      <trkpt lat="44.75243" lon="-0.04347">
        <ele>39.07</ele>
        <time>2020-07-26T12:06:59Z</time>
      </trkpt>
      <trkpt lat="44.75242" lon="-0.04372">
        <ele>39.07</ele>
        <time>2020-07-26T12:07:13Z</time>
      </trkpt>
      <trkpt lat="44.75242" lon="-0.04397">
        <ele>39.07</ele>
        <time>2020-07-26T12:07:30Z</time>
      </trkpt>
      <trkpt lat="44.75243" lon="-0.04396">
        <ele>39.07</ele>
        <time>2020-07-26T12:08:00Z</time>
      </trkpt>
      <trkpt lat="44.7524" lon="-0.04401">
        <ele>38.59</ele>
        <time>2020-07-26T12:08:20Z</time>
      </trkpt>
      <trkpt lat="44.75242" lon="-0.04408">
        <ele>38.59</ele>
        <time>2020-07-26T12:08:37Z</time>
      </trkpt>
      <trkpt lat="44.75242" lon="-0.04409">
        <ele>38.59</ele>
        <time>2020-07-26T12:08:40Z</time>
      </trkpt>
      <trkpt lat="44.75242" lon="-0.04411">
        <ele>38.59</ele>
        <time>2020-07-26T12:08:41Z</time>
      </trkpt>
      <trkpt lat="44.75244" lon="-0.04425">
        <ele>38.59</ele>
        <time>2020-07-26T12:08:54Z</time>
      </trkpt>
      <trkpt lat="44.75244" lon="-0.04431">
        <ele>37.15</ele>
        <time>2020-07-26T12:08:58Z</time>
      </trkpt>
      <trkpt lat="44.75243" lon="-0.04435">
        <ele>37.15</ele>
        <time>2020-07-26T12:09:00Z</time>
      </trkpt>
      <trkpt lat="44.75244" lon="-0.04469">
        <ele>36.67</ele>
        <time>2020-07-26T12:09:21Z</time>
      </trkpt>
      <trkpt lat="44.75245" lon="-0.0449">
        <ele>38.11</ele>
        <time>2020-07-26T12:09:43Z</time>
      </trkpt>
      <trkpt lat="44.75246" lon="-0.04502">
        <ele>36.67</ele>
        <time>2020-07-26T12:09:59Z</time>
      </trkpt>
      <trkpt lat="44.75247" lon="-0.0452">
        <ele>37.63</ele>
        <time>2020-07-26T12:10:09Z</time>
      </trkpt>
      <trkpt lat="44.75245" lon="-0.04534">
        <ele>36.19</ele>
        <time>2020-07-26T12:10:17Z</time>
      </trkpt>
      <trkpt lat="44.75244" lon="-0.04547">
        <ele>36.19</ele>
        <time>2020-07-26T12:10:26Z</time>
      </trkpt>
      <trkpt lat="44.75245" lon="-0.04556">
        <ele>37.63</ele>
        <time>2020-07-26T12:10:31Z</time>
      </trkpt>
      <trkpt lat="44.75245" lon="-0.04562">
        <ele>35.71</ele>
        <time>2020-07-26T12:10:34Z</time>
      </trkpt>
      <trkpt lat="44.75245" lon="-0.04566">
        <ele>37.63</ele>
        <time>2020-07-26T12:10:36Z</time>
      </trkpt>
      <trkpt lat="44.75247" lon="-0.04581">
        <ele>37.63</ele>
        <time>2020-07-26T12:10:53Z</time>
      </trkpt>
      <trkpt lat="44.75246" lon="-0.0459">
        <ele>37.15</ele>
        <time>2020-07-26T12:11:04Z</time>
      </trkpt>
      <trkpt lat="44.75236" lon="-0.04621">
        <ele>36.19</ele>
        <time>2020-07-26T12:11:22Z</time>
      </trkpt>
      <trkpt lat="44.75235" lon="-0.04627">
        <ele>37.63</ele>
        <time>2020-07-26T12:11:26Z</time>
      </trkpt>
      <trkpt lat="44.75223" lon="-0.04648">
        <ele>37.63</ele>
        <time>2020-07-26T12:11:40Z</time>
      </trkpt>
      <trkpt lat="44.75221" lon="-0.04652">
        <ele>35.71</ele>
        <time>2020-07-26T12:11:42Z</time>
      </trkpt>
      <trkpt lat="44.75219" lon="-0.04658">
        <ele>37.15</ele>
        <time>2020-07-26T12:11:45Z</time>
      </trkpt>
      <trkpt lat="44.75213" lon="-0.04671">
        <ele>37.15</ele>
        <time>2020-07-26T12:12:03Z</time>
      </trkpt>
      <trkpt lat="44.75194" lon="-0.04697">
        <ele>35.71</ele>
        <time>2020-07-26T12:12:22Z</time>
      </trkpt>
      <trkpt lat="44.75193" lon="-0.047">
        <ele>37.63</ele>
        <time>2020-07-26T12:12:24Z</time>
      </trkpt>
      <trkpt lat="44.7518" lon="-0.04718">
        <ele>37.63</ele>
        <time>2020-07-26T12:12:38Z</time>
      </trkpt>
      <trkpt lat="44.75179" lon="-0.0472">
        <ele>37.63</ele>
        <time>2020-07-26T12:12:39Z</time>
      </trkpt>
      <trkpt lat="44.75177" lon="-0.04721">
        <ele>37.63</ele>
        <time>2020-07-26T12:12:40Z</time>
      </trkpt>
      <trkpt lat="44.75176" lon="-0.04722">
        <ele>37.63</ele>
        <time>2020-07-26T12:12:41Z</time>
      </trkpt>
      <trkpt lat="44.75175" lon="-0.04724">
        <ele>37.15</ele>
        <time>2020-07-26T12:12:42Z</time>
      </trkpt>
      <trkpt lat="44.75174" lon="-0.04725">
        <ele>37.63</ele>
        <time>2020-07-26T12:12:43Z</time>
      </trkpt>
      <trkpt lat="44.75162" lon="-0.04733">
        <ele>35.71</ele>
        <time>2020-07-26T12:12:53Z</time>
      </trkpt>
      <trkpt lat="44.75145" lon="-0.04746">
        <ele>36.67</ele>
        <time>2020-07-26T12:13:11Z</time>
      </trkpt>
      <trkpt lat="44.7514" lon="-0.04756">
        <ele>36.67</ele>
        <time>2020-07-26T12:13:29Z</time>
      </trkpt>
      <trkpt lat="44.75133" lon="-0.04765">
        <ele>35.71</ele>
        <time>2020-07-26T12:13:37Z</time>
      </trkpt>
      <trkpt lat="44.7513" lon="-0.04768">
        <ele>36.67</ele>
        <time>2020-07-26T12:13:40Z</time>
      </trkpt>
      <trkpt lat="44.75124" lon="-0.04779">
        <ele>35.23</ele>
        <time>2020-07-26T12:13:48Z</time>
      </trkpt>
      <trkpt lat="44.75105" lon="-0.04808">
        <ele>35.71</ele>
        <time>2020-07-26T12:14:09Z</time>
      </trkpt>
      <trkpt lat="44.75103" lon="-0.0481">
        <ele>36.67</ele>
        <time>2020-07-26T12:14:11Z</time>
      </trkpt>
      <trkpt lat="44.75091" lon="-0.04817">
        <ele>35.23</ele>
        <time>2020-07-26T12:14:22Z</time>
      </trkpt>
      <trkpt lat="44.75086" lon="-0.04819">
        <ele>36.19</ele>
        <time>2020-07-26T12:14:26Z</time>
      </trkpt>
      <trkpt lat="44.75068" lon="-0.04833">
        <ele>36.19</ele>
        <time>2020-07-26T12:14:41Z</time>
      </trkpt>
      <trkpt lat="44.75065" lon="-0.04838">
        <ele>34.74</ele>
        <time>2020-07-26T12:14:46Z</time>
      </trkpt>
      <trkpt lat="44.7505" lon="-0.04856">
        <ele>35.23</ele>
        <time>2020-07-26T12:15:02Z</time>
      </trkpt>
      <trkpt lat="44.75031" lon="-0.04883">
        <ele>34.74</ele>
        <time>2020-07-26T12:15:22Z</time>
      </trkpt>
      <trkpt lat="44.75029" lon="-0.04887">
        <ele>35.71</ele>
        <time>2020-07-26T12:15:25Z</time>
      </trkpt>
      <trkpt lat="44.75023" lon="-0.04901">
        <ele>34.26</ele>
        <time>2020-07-26T12:15:33Z</time>
      </trkpt>
      <trkpt lat="44.7502" lon="-0.0491">
        <ele>35.23</ele>
        <time>2020-07-26T12:15:38Z</time>
      </trkpt>
      <trkpt lat="44.75018" lon="-0.04937">
        <ele>35.23</ele>
        <time>2020-07-26T12:15:55Z</time>
      </trkpt>
      <trkpt lat="44.75024" lon="-0.04965">
        <ele>35.23</ele>
        <time>2020-07-26T12:16:15Z</time>
      </trkpt>
      <trkpt lat="44.75022" lon="-0.0498">
        <ele>35.23</ele>
        <time>2020-07-26T12:16:32Z</time>
      </trkpt>
      <trkpt lat="44.75024" lon="-0.04988">
        <ele>33.78</ele>
        <time>2020-07-26T12:16:38Z</time>
      </trkpt>
      <trkpt lat="44.75026" lon="-0.04991">
        <ele>35.23</ele>
        <time>2020-07-26T12:16:40Z</time>
      </trkpt>
      <trkpt lat="44.75028" lon="-0.05">
        <ele>35.23</ele>
        <time>2020-07-26T12:16:47Z</time>
      </trkpt>
      <trkpt lat="44.75031" lon="-0.05012">
        <ele>35.23</ele>
        <time>2020-07-26T12:16:55Z</time>
      </trkpt>
      <trkpt lat="44.75035" lon="-0.05044">
        <ele>35.23</ele>
        <time>2020-07-26T12:17:14Z</time>
      </trkpt>
      <trkpt lat="44.75039" lon="-0.05074">
        <ele>34.26</ele>
        <time>2020-07-26T12:17:32Z</time>
      </trkpt>
      <trkpt lat="44.75045" lon="-0.051">
        <ele>33.78</ele>
        <time>2020-07-26T12:17:49Z</time>
      </trkpt>
      <trkpt lat="44.75046" lon="-0.05103">
        <ele>35.23</ele>
        <time>2020-07-26T12:17:51Z</time>
      </trkpt>
      <trkpt lat="44.75054" lon="-0.05138">
        <ele>35.23</ele>
        <time>2020-07-26T12:18:13Z</time>
      </trkpt>
      <trkpt lat="44.75061" lon="-0.0516">
        <ele>33.3</ele>
        <time>2020-07-26T12:18:24Z</time>
      </trkpt>
      <trkpt lat="44.75062" lon="-0.05164">
        <ele>34.74</ele>
        <time>2020-07-26T12:18:26Z</time>
      </trkpt>
      <trkpt lat="44.75065" lon="-0.05177">
        <ele>34.26</ele>
        <time>2020-07-26T12:18:35Z</time>
      </trkpt>
      <trkpt lat="44.7507" lon="-0.0519">
        <ele>35.71</ele>
        <time>2020-07-26T12:18:44Z</time>
      </trkpt>
      <trkpt lat="44.75071" lon="-0.05195">
        <ele>34.26</ele>
        <time>2020-07-26T12:18:47Z</time>
      </trkpt>
      <trkpt lat="44.75075" lon="-0.05227">
        <ele>34.26</ele>
        <time>2020-07-26T12:19:06Z</time>
      </trkpt>
      <trkpt lat="44.75074" lon="-0.05236">
        <ele>34.26</ele>
        <time>2020-07-26T12:19:11Z</time>
      </trkpt>
      <trkpt lat="44.75071" lon="-0.05254">
        <ele>34.26</ele>
        <time>2020-07-26T12:19:21Z</time>
      </trkpt>
      <trkpt lat="44.75065" lon="-0.05278">
        <ele>34.26</ele>
        <time>2020-07-26T12:19:37Z</time>
      </trkpt>
      <trkpt lat="44.75055" lon="-0.05311">
        <ele>34.26</ele>
        <time>2020-07-26T12:19:58Z</time>
      </trkpt>
      <trkpt lat="44.7505" lon="-0.05342">
        <ele>34.74</ele>
        <time>2020-07-26T12:20:16Z</time>
      </trkpt>
      <trkpt lat="44.75051" lon="-0.05358">
        <ele>34.26</ele>
        <time>2020-07-26T12:20:33Z</time>
      </trkpt>
      <trkpt lat="44.75055" lon="-0.05389">
        <ele>33.3</ele>
        <time>2020-07-26T12:20:54Z</time>
      </trkpt>
      <trkpt lat="44.75065" lon="-0.05423">
        <ele>32.82</ele>
        <time>2020-07-26T12:21:16Z</time>
      </trkpt>
      <trkpt lat="44.75073" lon="-0.05452">
        <ele>34.26</ele>
        <time>2020-07-26T12:21:37Z</time>
      </trkpt>
      <trkpt lat="44.75072" lon="-0.05442">
        <ele>33.78</ele>
        <time>2020-07-26T12:22:01Z</time>
      </trkpt>
      <trkpt lat="44.75072" lon="-0.05457">
        <ele>33.78</ele>
        <time>2020-07-26T12:22:15Z</time>
      </trkpt>
      <trkpt lat="44.75077" lon="-0.0549">
        <ele>32.82</ele>
        <time>2020-07-26T12:22:33Z</time>
      </trkpt>
      <trkpt lat="44.7508" lon="-0.05496">
        <ele>33.78</ele>
        <time>2020-07-26T12:22:38Z</time>
      </trkpt>
      <trkpt lat="44.75082" lon="-0.05504">
        <ele>33.78</ele>
        <time>2020-07-26T12:22:42Z</time>
      </trkpt>
      <trkpt lat="44.75083" lon="-0.05507">
        <ele>33.78</ele>
        <time>2020-07-26T12:22:43Z</time>
      </trkpt>
      <trkpt lat="44.75084" lon="-0.0551">
        <ele>33.78</ele>
        <time>2020-07-26T12:22:44Z</time>
      </trkpt>
      <trkpt lat="44.75084" lon="-0.05512">
        <ele>33.78</ele>
        <time>2020-07-26T12:22:45Z</time>
      </trkpt>
      <trkpt lat="44.75085" lon="-0.05514">
        <ele>33.78</ele>
        <time>2020-07-26T12:22:46Z</time>
      </trkpt>
      <trkpt lat="44.75085" lon="-0.05516">
        <ele>33.78</ele>
        <time>2020-07-26T12:22:47Z</time>
      </trkpt>
      <trkpt lat="44.75085" lon="-0.05517">
        <ele>33.78</ele>
        <time>2020-07-26T12:22:48Z</time>
      </trkpt>
      <trkpt lat="44.75085" lon="-0.0552">
        <ele>33.78</ele>
        <time>2020-07-26T12:22:49Z</time>
      </trkpt>
      <trkpt lat="44.75093" lon="-0.05543">
        <ele>33.78</ele>
        <time>2020-07-26T12:23:04Z</time>
      </trkpt>
      <trkpt lat="44.75094" lon="-0.05559">
        <ele>33.78</ele>
        <time>2020-07-26T12:23:16Z</time>
      </trkpt>
      <trkpt lat="44.75094" lon="-0.05564">
        <ele>33.78</ele>
        <time>2020-07-26T12:23:19Z</time>
      </trkpt>
      <trkpt lat="44.75091" lon="-0.0558">
        <ele>33.78</ele>
        <time>2020-07-26T12:23:31Z</time>
      </trkpt>
      <trkpt lat="44.75088" lon="-0.05598">
        <ele>33.78</ele>
        <time>2020-07-26T12:23:43Z</time>
      </trkpt>
      <trkpt lat="44.75087" lon="-0.05604">
        <ele>33.78</ele>
        <time>2020-07-26T12:23:46Z</time>
      </trkpt>
      <trkpt lat="44.75082" lon="-0.05624">
        <ele>33.78</ele>
        <time>2020-07-26T12:23:57Z</time>
      </trkpt>
      <trkpt lat="44.75081" lon="-0.05635">
        <ele>33.78</ele>
        <time>2020-07-26T12:24:03Z</time>
      </trkpt>
      <trkpt lat="44.75077" lon="-0.05655">
        <ele>33.78</ele>
        <time>2020-07-26T12:24:17Z</time>
      </trkpt>
      <trkpt lat="44.75073" lon="-0.05682">
        <ele>33.78</ele>
        <time>2020-07-26T12:24:35Z</time>
      </trkpt>
      <trkpt lat="44.75072" lon="-0.05701">
        <ele>33.78</ele>
        <time>2020-07-26T12:24:46Z</time>
      </trkpt>
      <trkpt lat="44.75067" lon="-0.0573">
        <ele>31.86</ele>
        <time>2020-07-26T12:25:04Z</time>
      </trkpt>
      <trkpt lat="44.75059" lon="-0.05765">
        <ele>32.34</ele>
        <time>2020-07-26T12:25:25Z</time>
      </trkpt>
      <trkpt lat="44.75061" lon="-0.05791">
        <ele>31.86</ele>
        <time>2020-07-26T12:25:43Z</time>
      </trkpt>
      <trkpt lat="44.75064" lon="-0.05807">
        <ele>31.86</ele>
        <time>2020-07-26T12:25:53Z</time>
      </trkpt>
      <trkpt lat="44.75076" lon="-0.05818">
        <ele>30.9</ele>
        <time>2020-07-26T12:26:06Z</time>
      </trkpt>
      <trkpt lat="44.75081" lon="-0.05822">
        <ele>29.94</ele>
        <time>2020-07-26T12:26:14Z</time>
      </trkpt>
      <trkpt lat="44.75083" lon="-0.05822">
        <ele>31.38</ele>
        <time>2020-07-26T12:26:16Z</time>
      </trkpt>
      <trkpt lat="44.75097" lon="-0.05845">
        <ele>29.94</ele>
        <time>2020-07-26T12:26:32Z</time>
      </trkpt>
      <trkpt lat="44.75105" lon="-0.05868">
        <ele>31.38</ele>
        <time>2020-07-26T12:26:45Z</time>
      </trkpt>
      <trkpt lat="44.75109" lon="-0.05887">
        <ele>29.94</ele>
        <time>2020-07-26T12:26:56Z</time>
      </trkpt>
      <trkpt lat="44.75117" lon="-0.05906">
        <ele>31.38</ele>
        <time>2020-07-26T12:27:09Z</time>
      </trkpt>
      <trkpt lat="44.75118" lon="-0.05908">
        <ele>29.46</ele>
        <time>2020-07-26T12:27:11Z</time>
      </trkpt>
      <trkpt lat="44.75121" lon="-0.05916">
        <ele>30.9</ele>
        <time>2020-07-26T12:27:18Z</time>
      </trkpt>
      <trkpt lat="44.75124" lon="-0.05925">
        <ele>29.46</ele>
        <time>2020-07-26T12:27:23Z</time>
      </trkpt>
      <trkpt lat="44.75134" lon="-0.05951">
        <ele>30.9</ele>
        <time>2020-07-26T12:27:42Z</time>
      </trkpt>
      <trkpt lat="44.75144" lon="-0.05976">
        <ele>30.9</ele>
        <time>2020-07-26T12:28:01Z</time>
      </trkpt>
      <trkpt lat="44.75162" lon="-0.06005">
        <ele>30.9</ele>
        <time>2020-07-26T12:28:22Z</time>
      </trkpt>
      <trkpt lat="44.7518" lon="-0.06023">
        <ele>30.9</ele>
        <time>2020-07-26T12:28:41Z</time>
      </trkpt>
      <trkpt lat="44.75198" lon="-0.06043">
        <ele>30.9</ele>
        <time>2020-07-26T12:29:01Z</time>
      </trkpt>
      <trkpt lat="44.75205" lon="-0.06056">
        <ele>29.46</ele>
        <time>2020-07-26T12:29:11Z</time>
      </trkpt>
      <trkpt lat="44.75206" lon="-0.06058">
        <ele>30.9</ele>
        <time>2020-07-26T12:29:13Z</time>
      </trkpt>
      <trkpt lat="44.75217" lon="-0.06087">
        <ele>30.9</ele>
        <time>2020-07-26T12:29:32Z</time>
      </trkpt>
      <trkpt lat="44.75224" lon="-0.06107">
        <ele>30.42</ele>
        <time>2020-07-26T12:29:49Z</time>
      </trkpt>
      <trkpt lat="44.75221" lon="-0.06105">
        <ele>30.42</ele>
        <time>2020-07-26T12:30:13Z</time>
      </trkpt>
      <trkpt lat="44.75222" lon="-0.06109">
        <ele>30.42</ele>
        <time>2020-07-26T12:30:36Z</time>
      </trkpt>
      <trkpt lat="44.75228" lon="-0.06112">
        <ele>29.94</ele>
        <time>2020-07-26T12:30:58Z</time>
      </trkpt>
      <trkpt lat="44.75239" lon="-0.06153">
        <ele>28.98</ele>
        <time>2020-07-26T12:31:20Z</time>
      </trkpt>
      <trkpt lat="44.75246" lon="-0.06178">
        <ele>28.98</ele>
        <time>2020-07-26T12:31:38Z</time>
      </trkpt>
      <trkpt lat="44.75252" lon="-0.06193">
        <ele>29.94</ele>
        <time>2020-07-26T12:31:48Z</time>
      </trkpt>
      <trkpt lat="44.75257" lon="-0.06209">
        <ele>28.98</ele>
        <time>2020-07-26T12:31:59Z</time>
      </trkpt>
      <trkpt lat="44.75258" lon="-0.06212">
        <ele>30.42</ele>
        <time>2020-07-26T12:32:01Z</time>
      </trkpt>
      <trkpt lat="44.75261" lon="-0.0622">
        <ele>28.98</ele>
        <time>2020-07-26T12:32:07Z</time>
      </trkpt>
      <trkpt lat="44.75262" lon="-0.06223">
        <ele>29.94</ele>
        <time>2020-07-26T12:32:09Z</time>
      </trkpt>
      <trkpt lat="44.75266" lon="-0.06234">
        <ele>28.98</ele>
        <time>2020-07-26T12:32:16Z</time>
      </trkpt>
      <trkpt lat="44.75274" lon="-0.06259">
        <ele>29.46</ele>
        <time>2020-07-26T12:32:36Z</time>
      </trkpt>
      <trkpt lat="44.75285" lon="-0.06283">
        <ele>28.5</ele>
        <time>2020-07-26T12:32:53Z</time>
      </trkpt>
      <trkpt lat="44.75297" lon="-0.06311">
        <ele>28.5</ele>
        <time>2020-07-26T12:33:12Z</time>
      </trkpt>
      <trkpt lat="44.75303" lon="-0.06319">
        <ele>29.46</ele>
        <time>2020-07-26T12:33:18Z</time>
      </trkpt>
      <trkpt lat="44.75319" lon="-0.06336">
        <ele>28.5</ele>
        <time>2020-07-26T12:33:36Z</time>
      </trkpt>
      <trkpt lat="44.75334" lon="-0.06348">
        <ele>28.5</ele>
        <time>2020-07-26T12:33:52Z</time>
      </trkpt>
      <trkpt lat="44.7534" lon="-0.06351">
        <ele>29.46</ele>
        <time>2020-07-26T12:33:58Z</time>
      </trkpt>
      <trkpt lat="44.75348" lon="-0.06355">
        <ele>28.5</ele>
        <time>2020-07-26T12:34:04Z</time>
      </trkpt>
      <trkpt lat="44.75366" lon="-0.06365">
        <ele>28.5</ele>
        <time>2020-07-26T12:34:21Z</time>
      </trkpt>
      <trkpt lat="44.7538" lon="-0.06371">
        <ele>28.5</ele>
        <time>2020-07-26T12:34:38Z</time>
      </trkpt>
      <trkpt lat="44.75391" lon="-0.06378">
        <ele>29.46</ele>
        <time>2020-07-26T12:34:47Z</time>
      </trkpt>
      <trkpt lat="44.75392" lon="-0.0638">
        <ele>29.46</ele>
        <time>2020-07-26T12:34:49Z</time>
      </trkpt>
      <trkpt lat="44.7539" lon="-0.06392">
        <ele>29.46</ele>
        <time>2020-07-26T12:34:57Z</time>
      </trkpt>
      <trkpt lat="44.75393" lon="-0.06404">
        <ele>29.46</ele>
        <time>2020-07-26T12:35:06Z</time>
      </trkpt>
      <trkpt lat="44.75405" lon="-0.06428">
        <ele>28.5</ele>
        <time>2020-07-26T12:35:25Z</time>
      </trkpt>
      <trkpt lat="44.75408" lon="-0.06434">
        <ele>28.98</ele>
        <time>2020-07-26T12:35:29Z</time>
      </trkpt>
      <trkpt lat="44.75413" lon="-0.06445">
        <ele>27.53</ele>
        <time>2020-07-26T12:35:37Z</time>
      </trkpt>
      <trkpt lat="44.75417" lon="-0.06455">
        <ele>28.98</ele>
        <time>2020-07-26T12:35:44Z</time>
      </trkpt>
      <trkpt lat="44.75429" lon="-0.06485">
        <ele>28.98</ele>
        <time>2020-07-26T12:36:05Z</time>
      </trkpt>
      <trkpt lat="44.7543" lon="-0.06487">
        <ele>28.5</ele>
        <time>2020-07-26T12:36:07Z</time>
      </trkpt>
      <trkpt lat="44.75433" lon="-0.06494">
        <ele>28.5</ele>
        <time>2020-07-26T12:36:11Z</time>
      </trkpt>
      <trkpt lat="44.75441" lon="-0.06517">
        <ele>28.5</ele>
        <time>2020-07-26T12:36:26Z</time>
      </trkpt>
      <trkpt lat="44.7545" lon="-0.06536">
        <ele>28.5</ele>
        <time>2020-07-26T12:36:37Z</time>
      </trkpt>
      <trkpt lat="44.75456" lon="-0.06548">
        <ele>28.5</ele>
        <time>2020-07-26T12:36:48Z</time>
      </trkpt>
      <trkpt lat="44.75457" lon="-0.0655">
        <ele>28.5</ele>
        <time>2020-07-26T12:36:49Z</time>
      </trkpt>
      <trkpt lat="44.75458" lon="-0.06554">
        <ele>28.5</ele>
        <time>2020-07-26T12:36:52Z</time>
      </trkpt>
      <trkpt lat="44.75465" lon="-0.06579">
        <ele>28.98</ele>
        <time>2020-07-26T12:37:08Z</time>
      </trkpt>
      <trkpt lat="44.75472" lon="-0.066">
        <ele>28.98</ele>
        <time>2020-07-26T12:37:23Z</time>
      </trkpt>
      <trkpt lat="44.75476" lon="-0.06617">
        <ele>28.98</ele>
        <time>2020-07-26T12:37:40Z</time>
      </trkpt>
      <trkpt lat="44.75484" lon="-0.06646">
        <ele>28.98</ele>
        <time>2020-07-26T12:37:59Z</time>
      </trkpt>
      <trkpt lat="44.7548" lon="-0.0666">
        <ele>28.98</ele>
        <time>2020-07-26T12:38:15Z</time>
      </trkpt>
      <trkpt lat="44.75469" lon="-0.06674">
        <ele>29.94</ele>
        <time>2020-07-26T12:38:30Z</time>
      </trkpt>
      <trkpt lat="44.75463" lon="-0.06679">
        <ele>30.42</ele>
        <time>2020-07-26T12:38:37Z</time>
      </trkpt>
      <trkpt lat="44.75446" lon="-0.06694">
        <ele>31.38</ele>
        <time>2020-07-26T12:38:55Z</time>
      </trkpt>
      <trkpt lat="44.75427" lon="-0.06712">
        <ele>33.3</ele>
        <time>2020-07-26T12:39:16Z</time>
      </trkpt>
      <trkpt lat="44.75415" lon="-0.06724">
        <ele>33.3</ele>
        <time>2020-07-26T12:39:33Z</time>
      </trkpt>
      <trkpt lat="44.75415" lon="-0.06729">
        <ele>33.3</ele>
        <time>2020-07-26T12:39:50Z</time>
      </trkpt>
      <trkpt lat="44.754" lon="-0.0674">
        <ele>34.74</ele>
        <time>2020-07-26T12:40:08Z</time>
      </trkpt>
      <trkpt lat="44.75382" lon="-0.06757">
        <ele>36.67</ele>
        <time>2020-07-26T12:40:29Z</time>
      </trkpt>
      <trkpt lat="44.75365" lon="-0.06771">
        <ele>39.55</ele>
        <time>2020-07-26T12:40:47Z</time>
      </trkpt>
      <trkpt lat="44.7535" lon="-0.06783">
        <ele>42.44</ele>
        <time>2020-07-26T12:41:06Z</time>
      </trkpt>
      <trkpt lat="44.75337" lon="-0.06795">
        <ele>44.84</ele>
        <time>2020-07-26T12:41:26Z</time>
      </trkpt>
      <trkpt lat="44.75329" lon="-0.06814">
        <ele>48.2</ele>
        <time>2020-07-26T12:41:45Z</time>
      </trkpt>
      <trkpt lat="44.75329" lon="-0.06835">
        <ele>51.09</ele>
        <time>2020-07-26T12:42:04Z</time>
      </trkpt>
      <trkpt lat="44.75329" lon="-0.06858">
        <ele>53.49</ele>
        <time>2020-07-26T12:42:25Z</time>
      </trkpt>
      <trkpt lat="44.75329" lon="-0.0686">
        <ele>54.93</ele>
        <time>2020-07-26T12:42:27Z</time>
      </trkpt>
      <trkpt lat="44.75331" lon="-0.06877">
        <ele>55.89</ele>
        <time>2020-07-26T12:42:46Z</time>
      </trkpt>
      <trkpt lat="44.75332" lon="-0.0688">
        <ele>55.89</ele>
        <time>2020-07-26T12:43:06Z</time>
      </trkpt>
      <trkpt lat="44.75332" lon="-0.06877">
        <ele>55.89</ele>
        <time>2020-07-26T12:43:32Z</time>
      </trkpt>
      <trkpt lat="44.75337" lon="-0.06873">
        <ele>55.89</ele>
        <time>2020-07-26T12:44:00Z</time>
      </trkpt>
      <trkpt lat="44.75337" lon="-0.0687">
        <ele>56.37</ele>
        <time>2020-07-26T12:44:27Z</time>
      </trkpt>
      <trkpt lat="44.75332" lon="-0.0687">
        <ele>56.37</ele>
        <time>2020-07-26T12:44:58Z</time>
      </trkpt>
      <trkpt lat="44.75331" lon="-0.06879">
        <ele>56.37</ele>
        <time>2020-07-26T12:45:26Z</time>
      </trkpt>
      <trkpt lat="44.75332" lon="-0.06883">
        <ele>56.86</ele>
        <time>2020-07-26T12:45:47Z</time>
      </trkpt>
      <trkpt lat="44.75333" lon="-0.06884">
        <ele>56.86</ele>
        <time>2020-07-26T12:46:16Z</time>
      </trkpt>
      <trkpt lat="44.75331" lon="-0.06884">
        <ele>56.86</ele>
        <time>2020-07-26T12:46:33Z</time>
      </trkpt>
      <trkpt lat="44.7533" lon="-0.06884">
        <ele>57.34</ele>
        <time>2020-07-26T12:46:54Z</time>
      </trkpt>
      <trkpt lat="44.7533" lon="-0.06888">
        <ele>57.34</ele>
        <time>2020-07-26T12:47:22Z</time>
      </trkpt>
      <trkpt lat="44.7533" lon="-0.0689">
        <ele>57.34</ele>
        <time>2020-07-26T12:47:42Z</time>
      </trkpt>
      <trkpt lat="44.75328" lon="-0.06897">
        <ele>56.86</ele>
        <time>2020-07-26T12:48:07Z</time>
      </trkpt>
      <trkpt lat="44.75331" lon="-0.06913">
        <ele>57.82</ele>
        <time>2020-07-26T12:48:23Z</time>
      </trkpt>
      <trkpt lat="44.75332" lon="-0.06933">
        <ele>58.78</ele>
        <time>2020-07-26T12:48:40Z</time>
      </trkpt>
      <trkpt lat="44.75327" lon="-0.06956">
        <ele>59.26</ele>
        <time>2020-07-26T12:48:59Z</time>
      </trkpt>
      <trkpt lat="44.75327" lon="-0.06965">
        <ele>59.26</ele>
        <time>2020-07-26T12:49:16Z</time>
      </trkpt>
      <trkpt lat="44.75326" lon="-0.0697">
        <ele>59.26</ele>
        <time>2020-07-26T12:49:22Z</time>
      </trkpt>
      <trkpt lat="44.75325" lon="-0.06975">
        <ele>59.26</ele>
        <time>2020-07-26T12:49:26Z</time>
      </trkpt>
      <trkpt lat="44.75319" lon="-0.07001">
        <ele>57.82</ele>
        <time>2020-07-26T12:49:42Z</time>
      </trkpt>
      <trkpt lat="44.75317" lon="-0.07006">
        <ele>57.34</ele>
        <time>2020-07-26T12:49:46Z</time>
      </trkpt>
      <trkpt lat="44.75309" lon="-0.07019">
        <ele>56.37</ele>
        <time>2020-07-26T12:49:55Z</time>
      </trkpt>
      <trkpt lat="44.75292" lon="-0.07041">
        <ele>55.41</ele>
        <time>2020-07-26T12:50:13Z</time>
      </trkpt>
      <trkpt lat="44.75278" lon="-0.07068">
        <ele>55.89</ele>
        <time>2020-07-26T12:50:33Z</time>
      </trkpt>
      <trkpt lat="44.75275" lon="-0.07075">
        <ele>54.45</ele>
        <time>2020-07-26T12:50:38Z</time>
      </trkpt>
      <trkpt lat="44.75275" lon="-0.07077">
        <ele>55.89</ele>
        <time>2020-07-26T12:50:40Z</time>
      </trkpt>
      <trkpt lat="44.75267" lon="-0.07106">
        <ele>55.89</ele>
        <time>2020-07-26T12:50:57Z</time>
      </trkpt>
      <trkpt lat="44.75258" lon="-0.07133">
        <ele>57.34</ele>
        <time>2020-07-26T12:51:14Z</time>
      </trkpt>
      <trkpt lat="44.75247" lon="-0.07157">
        <ele>57.82</ele>
        <time>2020-07-26T12:51:30Z</time>
      </trkpt>
      <trkpt lat="44.75238" lon="-0.07173">
        <ele>57.82</ele>
        <time>2020-07-26T12:51:43Z</time>
      </trkpt>
      <trkpt lat="44.75237" lon="-0.07174">
        <ele>56.86</ele>
        <time>2020-07-26T12:51:44Z</time>
      </trkpt>
      <trkpt lat="44.75235" lon="-0.07181">
        <ele>58.3</ele>
        <time>2020-07-26T12:51:47Z</time>
      </trkpt>
      <trkpt lat="44.75234" lon="-0.07183">
        <ele>58.3</ele>
        <time>2020-07-26T12:51:48Z</time>
      </trkpt>
      <trkpt lat="44.75222" lon="-0.07207">
        <ele>57.34</ele>
        <time>2020-07-26T12:52:05Z</time>
      </trkpt>
      <trkpt lat="44.75218" lon="-0.07217">
        <ele>55.89</ele>
        <time>2020-07-26T12:52:11Z</time>
      </trkpt>
      <trkpt lat="44.75217" lon="-0.0722">
        <ele>57.34</ele>
        <time>2020-07-26T12:52:13Z</time>
      </trkpt>
      <trkpt lat="44.75198" lon="-0.07253">
        <ele>57.34</ele>
        <time>2020-07-26T12:52:38Z</time>
      </trkpt>
      <trkpt lat="44.75186" lon="-0.07276">
        <ele>56.37</ele>
        <time>2020-07-26T12:52:54Z</time>
      </trkpt>
      <trkpt lat="44.75186" lon="-0.07277">
        <ele>57.34</ele>
        <time>2020-07-26T12:52:56Z</time>
      </trkpt>
      <trkpt lat="44.75185" lon="-0.07282">
        <ele>57.34</ele>
        <time>2020-07-26T12:53:19Z</time>
      </trkpt>
      <trkpt lat="44.75181" lon="-0.07287">
        <ele>57.34</ele>
        <time>2020-07-26T12:53:24Z</time>
      </trkpt>
      <trkpt lat="44.75162" lon="-0.07308">
        <ele>56.86</ele>
        <time>2020-07-26T12:53:44Z</time>
      </trkpt>
      <trkpt lat="44.75156" lon="-0.07314">
        <ele>57.82</ele>
        <time>2020-07-26T12:53:50Z</time>
      </trkpt>
      <trkpt lat="44.75135" lon="-0.0733">
        <ele>57.34</ele>
        <time>2020-07-26T12:54:11Z</time>
      </trkpt>
      <trkpt lat="44.75126" lon="-0.07338">
        <ele>55.89</ele>
        <time>2020-07-26T12:54:19Z</time>
      </trkpt>
      <trkpt lat="44.75114" lon="-0.07346">
        <ele>56.86</ele>
        <time>2020-07-26T12:54:29Z</time>
      </trkpt>
      <trkpt lat="44.7511" lon="-0.07347">
        <ele>56.86</ele>
        <time>2020-07-26T12:54:31Z</time>
      </trkpt>
      <trkpt lat="44.75107" lon="-0.07348">
        <ele>56.86</ele>
        <time>2020-07-26T12:54:42Z</time>
      </trkpt>
      <trkpt lat="44.75103" lon="-0.0735">
        <ele>56.86</ele>
        <time>2020-07-26T12:54:47Z</time>
      </trkpt>
      <trkpt lat="44.75095" lon="-0.07357">
        <ele>56.86</ele>
        <time>2020-07-26T12:54:54Z</time>
      </trkpt>
      <trkpt lat="44.75089" lon="-0.0736">
        <ele>56.86</ele>
        <time>2020-07-26T12:54:58Z</time>
      </trkpt>
      <trkpt lat="44.75076" lon="-0.07366">
        <ele>56.86</ele>
        <time>2020-07-26T12:55:13Z</time>
      </trkpt>
      <trkpt lat="44.75058" lon="-0.07381">
        <ele>56.86</ele>
        <time>2020-07-26T12:55:27Z</time>
      </trkpt>
      <trkpt lat="44.75042" lon="-0.0739">
        <ele>56.86</ele>
        <time>2020-07-26T12:55:41Z</time>
      </trkpt>
      <trkpt lat="44.75022" lon="-0.07402">
        <ele>57.34</ele>
        <time>2020-07-26T12:56:01Z</time>
      </trkpt>
      <trkpt lat="44.75021" lon="-0.07406">
        <ele>57.34</ele>
        <time>2020-07-26T12:56:29Z</time>
      </trkpt>
      <trkpt lat="44.7502" lon="-0.07408">
        <ele>57.34</ele>
        <time>2020-07-26T12:56:59Z</time>
      </trkpt>
      <trkpt lat="44.7502" lon="-0.07409">
        <ele>57.82</ele>
        <time>2020-07-26T12:57:29Z</time>
      </trkpt>
      <trkpt lat="44.75005" lon="-0.07414">
        <ele>58.78</ele>
        <time>2020-07-26T12:57:43Z</time>
      </trkpt>
      <trkpt lat="44.74987" lon="-0.07428">
        <ele>60.22</ele>
        <time>2020-07-26T12:58:03Z</time>
      </trkpt>
      <trkpt lat="44.74966" lon="-0.07444">
        <ele>61.66</ele>
        <time>2020-07-26T12:58:24Z</time>
      </trkpt>
      <trkpt lat="44.74949" lon="-0.07457">
        <ele>62.62</ele>
        <time>2020-07-26T12:58:41Z</time>
      </trkpt>
      <trkpt lat="44.74933" lon="-0.07471">
        <ele>62.62</ele>
        <time>2020-07-26T12:58:57Z</time>
      </trkpt>
      <trkpt lat="44.74929" lon="-0.07474">
        <ele>61.18</ele>
        <time>2020-07-26T12:59:00Z</time>
      </trkpt>
      <trkpt lat="44.74923" lon="-0.07475">
        <ele>61.18</ele>
        <time>2020-07-26T12:59:16Z</time>
      </trkpt>
      <trkpt lat="44.74924" lon="-0.07477">
        <ele>61.18</ele>
        <time>2020-07-26T12:59:27Z</time>
      </trkpt>
      <trkpt lat="44.74928" lon="-0.07483">
        <ele>61.66</ele>
        <time>2020-07-26T12:59:32Z</time>
      </trkpt>
      <trkpt lat="44.7493" lon="-0.07495">
        <ele>61.66</ele>
        <time>2020-07-26T12:59:46Z</time>
      </trkpt>
      <trkpt lat="44.74933" lon="-0.07503">
        <ele>60.7</ele>
        <time>2020-07-26T13:00:03Z</time>
      </trkpt>
      <trkpt lat="44.74941" lon="-0.07521">
        <ele>60.7</ele>
        <time>2020-07-26T13:00:17Z</time>
      </trkpt>
      <trkpt lat="44.74949" lon="-0.0753">
        <ele>59.74</ele>
        <time>2020-07-26T13:00:29Z</time>
      </trkpt>
      <trkpt lat="44.74955" lon="-0.07535">
        <ele>59.26</ele>
        <time>2020-07-26T13:00:34Z</time>
      </trkpt>
      <trkpt lat="44.74963" lon="-0.0755">
        <ele>59.26</ele>
        <time>2020-07-26T13:00:51Z</time>
      </trkpt>
      <trkpt lat="44.74968" lon="-0.07555">
        <ele>58.78</ele>
        <time>2020-07-26T13:00:58Z</time>
      </trkpt>
      <trkpt lat="44.74965" lon="-0.07566">
        <ele>58.3</ele>
        <time>2020-07-26T13:01:02Z</time>
      </trkpt>
      <trkpt lat="44.74976" lon="-0.07583">
        <ele>58.3</ele>
        <time>2020-07-26T13:01:17Z</time>
      </trkpt>
      <trkpt lat="44.74981" lon="-0.07603">
        <ele>57.82</ele>
        <time>2020-07-26T13:01:31Z</time>
      </trkpt>
      <trkpt lat="44.74993" lon="-0.07626">
        <ele>56.86</ele>
        <time>2020-07-26T13:01:49Z</time>
      </trkpt>
      <trkpt lat="44.74994" lon="-0.07624">
        <ele>56.86</ele>
        <time>2020-07-26T13:01:53Z</time>
      </trkpt>
      <trkpt lat="44.74995" lon="-0.07619">
        <ele>57.82</ele>
        <time>2020-07-26T13:02:05Z</time>
      </trkpt>
      <trkpt lat="44.74994" lon="-0.07627">
        <ele>57.82</ele>
        <time>2020-07-26T13:02:09Z</time>
      </trkpt>
      <trkpt lat="44.75001" lon="-0.07654">
        <ele>57.82</ele>
        <time>2020-07-26T13:02:27Z</time>
      </trkpt>
      <trkpt lat="44.75005" lon="-0.07661">
        <ele>57.82</ele>
        <time>2020-07-26T13:02:31Z</time>
      </trkpt>
      <trkpt lat="44.75007" lon="-0.07664">
        <ele>56.37</ele>
        <time>2020-07-26T13:02:33Z</time>
      </trkpt>
      <trkpt lat="44.75014" lon="-0.07675">
        <ele>55.41</ele>
        <time>2020-07-26T13:02:47Z</time>
      </trkpt>
      <trkpt lat="44.75022" lon="-0.07688">
        <ele>54.93</ele>
        <time>2020-07-26T13:03:05Z</time>
      </trkpt>
      <trkpt lat="44.75019" lon="-0.07689">
        <ele>54.93</ele>
        <time>2020-07-26T13:03:31Z</time>
      </trkpt>
      <trkpt lat="44.75022" lon="-0.07689">
        <ele>54.45</ele>
        <time>2020-07-26T13:03:57Z</time>
      </trkpt>
      <trkpt lat="44.75035" lon="-0.07685">
        <ele>54.93</ele>
        <time>2020-07-26T13:04:14Z</time>
      </trkpt>
      <trkpt lat="44.75035" lon="-0.07684">
        <ele>53.97</ele>
        <time>2020-07-26T13:04:28Z</time>
      </trkpt>
      <trkpt lat="44.75019" lon="-0.07687">
        <ele>53.97</ele>
        <time>2020-07-26T13:04:43Z</time>
      </trkpt>
      <trkpt lat="44.75018" lon="-0.07685">
        <ele>55.41</ele>
        <time>2020-07-26T13:04:46Z</time>
      </trkpt>
      <trkpt lat="44.7501" lon="-0.07674">
        <ele>55.89</ele>
        <time>2020-07-26T13:05:01Z</time>
      </trkpt>
      <trkpt lat="44.75005" lon="-0.07674">
        <ele>56.37</ele>
        <time>2020-07-26T13:05:15Z</time>
      </trkpt>
      <trkpt lat="44.75004" lon="-0.07665">
        <ele>56.86</ele>
        <time>2020-07-26T13:05:34Z</time>
      </trkpt>
      <trkpt lat="44.74999" lon="-0.0764">
        <ele>57.82</ele>
        <time>2020-07-26T13:05:51Z</time>
      </trkpt>
      <trkpt lat="44.74996" lon="-0.07632">
        <ele>58.3</ele>
        <time>2020-07-26T13:05:57Z</time>
      </trkpt>
      <trkpt lat="44.74988" lon="-0.07605">
        <ele>58.78</ele>
        <time>2020-07-26T13:06:15Z</time>
      </trkpt>
      <trkpt lat="44.74981" lon="-0.07585">
        <ele>59.74</ele>
        <time>2020-07-26T13:06:27Z</time>
      </trkpt>
      <trkpt lat="44.74977" lon="-0.0758">
        <ele>59.74</ele>
        <time>2020-07-26T13:06:32Z</time>
      </trkpt>
      <trkpt lat="44.74971" lon="-0.07569">
        <ele>59.74</ele>
        <time>2020-07-26T13:06:39Z</time>
      </trkpt>
      <trkpt lat="44.7497" lon="-0.07566">
        <ele>58.3</ele>
        <time>2020-07-26T13:06:41Z</time>
      </trkpt>
      <trkpt lat="44.74969" lon="-0.07563">
        <ele>60.22</ele>
        <time>2020-07-26T13:06:43Z</time>
      </trkpt>
      <trkpt lat="44.74963" lon="-0.07546">
        <ele>60.7</ele>
        <time>2020-07-26T13:06:54Z</time>
      </trkpt>
      <trkpt lat="44.74962" lon="-0.07537">
        <ele>58.78</ele>
        <time>2020-07-26T13:07:00Z</time>
      </trkpt>
      <trkpt lat="44.7496" lon="-0.07535">
        <ele>60.7</ele>
        <time>2020-07-26T13:07:02Z</time>
      </trkpt>
      <trkpt lat="44.7494" lon="-0.0753">
        <ele>60.22</ele>
        <time>2020-07-26T13:07:18Z</time>
      </trkpt>
      <trkpt lat="44.74934" lon="-0.07529">
        <ele>60.22</ele>
        <time>2020-07-26T13:07:22Z</time>
      </trkpt>
      <trkpt lat="44.74936" lon="-0.07533">
        <ele>60.22</ele>
        <time>2020-07-26T13:07:37Z</time>
      </trkpt>
      <trkpt lat="44.74932" lon="-0.07536">
        <ele>60.22</ele>
        <time>2020-07-26T13:07:54Z</time>
      </trkpt>
      <trkpt lat="44.74931" lon="-0.07533">
        <ele>60.22</ele>
        <time>2020-07-26T13:08:05Z</time>
      </trkpt>
      <trkpt lat="44.74929" lon="-0.07534">
        <ele>60.22</ele>
        <time>2020-07-26T13:08:09Z</time>
      </trkpt>
      <trkpt lat="44.74916" lon="-0.07542">
        <ele>59.26</ele>
        <time>2020-07-26T13:08:25Z</time>
      </trkpt>
      <trkpt lat="44.74908" lon="-0.07544">
        <ele>59.26</ele>
        <time>2020-07-26T13:08:41Z</time>
      </trkpt>
      <trkpt lat="44.74906" lon="-0.0755">
        <ele>58.78</ele>
        <time>2020-07-26T13:08:58Z</time>
      </trkpt>
      <trkpt lat="44.74903" lon="-0.07547">
        <ele>59.74</ele>
        <time>2020-07-26T13:09:19Z</time>
      </trkpt>
      <trkpt lat="44.74901" lon="-0.07543">
        <ele>59.74</ele>
        <time>2020-07-26T13:09:25Z</time>
      </trkpt>
      <trkpt lat="44.74901" lon="-0.07525">
        <ele>60.22</ele>
        <time>2020-07-26T13:09:40Z</time>
      </trkpt>
      <trkpt lat="44.74897" lon="-0.07511">
        <ele>60.22</ele>
        <time>2020-07-26T13:09:54Z</time>
      </trkpt>
      <trkpt lat="44.74897" lon="-0.07511">
        <ele>60.22</ele>
        <time>2020-07-26T13:09:56Z</time>
      </trkpt>
      <trkpt lat="44.74898" lon="-0.07505">
        <ele>60.7</ele>
        <time>2020-07-26T13:10:06Z</time>
      </trkpt>
      <trkpt lat="44.74899" lon="-0.07501">
        <ele>60.7</ele>
        <time>2020-07-26T13:10:16Z</time>
      </trkpt>
      <trkpt lat="44.74891" lon="-0.07508">
        <ele>61.18</ele>
        <time>2020-07-26T13:10:33Z</time>
      </trkpt>
      <trkpt lat="44.74897" lon="-0.07515">
        <ele>61.18</ele>
        <time>2020-07-26T13:10:53Z</time>
      </trkpt>
      <trkpt lat="44.74899" lon="-0.07518">
        <ele>61.18</ele>
        <time>2020-07-26T13:11:15Z</time>
      </trkpt>
      <trkpt lat="44.74897" lon="-0.07511">
        <ele>61.18</ele>
        <time>2020-07-26T13:11:38Z</time>
      </trkpt>
      <trkpt lat="44.74901" lon="-0.07514">
        <ele>61.18</ele>
        <time>2020-07-26T13:12:05Z</time>
      </trkpt>
      <trkpt lat="44.749" lon="-0.07515">
        <ele>61.18</ele>
        <time>2020-07-26T13:12:29Z</time>
      </trkpt>
      <trkpt lat="44.7489" lon="-0.07522">
        <ele>60.22</ele>
        <time>2020-07-26T13:12:56Z</time>
      </trkpt>
      <trkpt lat="44.74894" lon="-0.07501">
        <ele>60.22</ele>
        <time>2020-07-26T13:13:14Z</time>
      </trkpt>
      <trkpt lat="44.7489" lon="-0.07503">
        <ele>61.66</ele>
        <time>2020-07-26T13:13:24Z</time>
      </trkpt>
      <trkpt lat="44.7489" lon="-0.07503">
        <ele>61.66</ele>
        <time>2020-07-26T13:13:25Z</time>
      </trkpt>
      <trkpt lat="44.74887" lon="-0.07505">
        <ele>61.66</ele>
        <time>2020-07-26T13:13:31Z</time>
      </trkpt>
      <trkpt lat="44.74873" lon="-0.07506">
        <ele>61.66</ele>
        <time>2020-07-26T13:13:44Z</time>
      </trkpt>
      <trkpt lat="44.74858" lon="-0.07514">
        <ele>60.22</ele>
        <time>2020-07-26T13:13:57Z</time>
      </trkpt>
      <trkpt lat="44.74841" lon="-0.0752">
        <ele>60.7</ele>
        <time>2020-07-26T13:14:13Z</time>
      </trkpt>
      <trkpt lat="44.74839" lon="-0.0752">
        <ele>60.7</ele>
        <time>2020-07-26T13:14:14Z</time>
      </trkpt>
      <trkpt lat="44.74813" lon="-0.07516">
        <ele>59.26</ele>
        <time>2020-07-26T13:14:36Z</time>
      </trkpt>
      <trkpt lat="44.74807" lon="-0.07517">
        <ele>60.22</ele>
        <time>2020-07-26T13:14:42Z</time>
      </trkpt>
      <trkpt lat="44.74785" lon="-0.07519">
        <ele>58.78</ele>
        <time>2020-07-26T13:14:57Z</time>
      </trkpt>
      <trkpt lat="44.74767" lon="-0.07522">
        <ele>60.22</ele>
        <time>2020-07-26T13:15:12Z</time>
      </trkpt>
      <trkpt lat="44.74743" lon="-0.07518">
        <ele>60.7</ele>
        <time>2020-07-26T13:15:32Z</time>
      </trkpt>
      <trkpt lat="44.74729" lon="-0.07517">
        <ele>59.26</ele>
        <time>2020-07-26T13:15:43Z</time>
      </trkpt>
      <trkpt lat="44.74725" lon="-0.07516">
        <ele>60.7</ele>
        <time>2020-07-26T13:15:46Z</time>
      </trkpt>
      <trkpt lat="44.74702" lon="-0.07507">
        <ele>59.26</ele>
        <time>2020-07-26T13:16:04Z</time>
      </trkpt>
      <trkpt lat="44.74685" lon="-0.07501">
        <ele>59.26</ele>
        <time>2020-07-26T13:16:20Z</time>
      </trkpt>
      <trkpt lat="44.7468" lon="-0.07499">
        <ele>59.26</ele>
        <time>2020-07-26T13:16:24Z</time>
      </trkpt>
      <trkpt lat="44.74678" lon="-0.07499">
        <ele>59.26</ele>
        <time>2020-07-26T13:16:25Z</time>
      </trkpt>
      <trkpt lat="44.74676" lon="-0.07499">
        <ele>59.26</ele>
        <time>2020-07-26T13:16:26Z</time>
      </trkpt>
      <trkpt lat="44.74675" lon="-0.07499">
        <ele>59.26</ele>
        <time>2020-07-26T13:16:27Z</time>
      </trkpt>
      <trkpt lat="44.74673" lon="-0.07498">
        <ele>59.26</ele>
        <time>2020-07-26T13:16:28Z</time>
      </trkpt>
      <trkpt lat="44.74672" lon="-0.07497">
        <ele>59.26</ele>
        <time>2020-07-26T13:16:29Z</time>
      </trkpt>
      <trkpt lat="44.74669" lon="-0.07496">
        <ele>59.26</ele>
        <time>2020-07-26T13:16:31Z</time>
      </trkpt>
      <trkpt lat="44.74668" lon="-0.07495">
        <ele>59.26</ele>
        <time>2020-07-26T13:16:32Z</time>
      </trkpt>
      <trkpt lat="44.74667" lon="-0.07494">
        <ele>59.26</ele>
        <time>2020-07-26T13:16:33Z</time>
      </trkpt>
      <trkpt lat="44.74665" lon="-0.07494">
        <ele>59.26</ele>
        <time>2020-07-26T13:16:34Z</time>
      </trkpt>
      <trkpt lat="44.74664" lon="-0.07493">
        <ele>59.26</ele>
        <time>2020-07-26T13:16:35Z</time>
      </trkpt>
      <trkpt lat="44.74641" lon="-0.07481">
        <ele>59.26</ele>
        <time>2020-07-26T13:16:54Z</time>
      </trkpt>
      <trkpt lat="44.74617" lon="-0.07466">
        <ele>59.26</ele>
        <time>2020-07-26T13:17:14Z</time>
      </trkpt>
      <trkpt lat="44.74609" lon="-0.07464">
        <ele>60.7</ele>
        <time>2020-07-26T13:17:21Z</time>
      </trkpt>
      <trkpt lat="44.74594" lon="-0.07466">
        <ele>58.78</ele>
        <time>2020-07-26T13:17:33Z</time>
      </trkpt>
      <trkpt lat="44.74591" lon="-0.07467">
        <ele>58.78</ele>
        <time>2020-07-26T13:17:35Z</time>
      </trkpt>
      <trkpt lat="44.7459" lon="-0.07468">
        <ele>58.78</ele>
        <time>2020-07-26T13:17:36Z</time>
      </trkpt>
      <trkpt lat="44.74587" lon="-0.0747">
        <ele>60.22</ele>
        <time>2020-07-26T13:17:39Z</time>
      </trkpt>
      <trkpt lat="44.74586" lon="-0.07471">
        <ele>60.22</ele>
        <time>2020-07-26T13:17:40Z</time>
      </trkpt>
      <trkpt lat="44.74585" lon="-0.07472">
        <ele>60.22</ele>
        <time>2020-07-26T13:17:41Z</time>
      </trkpt>
      <trkpt lat="44.74573" lon="-0.07478">
        <ele>58.78</ele>
        <time>2020-07-26T13:17:51Z</time>
      </trkpt>
      <trkpt lat="44.74571" lon="-0.07479">
        <ele>59.74</ele>
        <time>2020-07-26T13:17:53Z</time>
      </trkpt>
      <trkpt lat="44.74547" lon="-0.0749">
        <ele>60.22</ele>
        <time>2020-07-26T13:18:14Z</time>
      </trkpt>
      <trkpt lat="44.74524" lon="-0.07498">
        <ele>60.7</ele>
        <time>2020-07-26T13:18:34Z</time>
      </trkpt>
      <trkpt lat="44.74511" lon="-0.07504">
        <ele>59.74</ele>
        <time>2020-07-26T13:18:44Z</time>
      </trkpt>
      <trkpt lat="44.7449" lon="-0.07516">
        <ele>61.66</ele>
        <time>2020-07-26T13:19:02Z</time>
      </trkpt>
      <trkpt lat="44.74483" lon="-0.07525">
        <ele>60.7</ele>
        <time>2020-07-26T13:19:10Z</time>
      </trkpt>
      <trkpt lat="44.74464" lon="-0.07538">
        <ele>63.58</ele>
        <time>2020-07-26T13:19:26Z</time>
      </trkpt>
      <trkpt lat="44.74445" lon="-0.07556">
        <ele>65.03</ele>
        <time>2020-07-26T13:19:45Z</time>
      </trkpt>
      <trkpt lat="44.74429" lon="-0.07578">
        <ele>65.03</ele>
        <time>2020-07-26T13:20:03Z</time>
      </trkpt>
      <trkpt lat="44.74415" lon="-0.076">
        <ele>65.99</ele>
        <time>2020-07-26T13:20:20Z</time>
      </trkpt>
      <trkpt lat="44.74402" lon="-0.0762">
        <ele>66.95</ele>
        <time>2020-07-26T13:20:34Z</time>
      </trkpt>
      <trkpt lat="44.74393" lon="-0.07631">
        <ele>67.43</ele>
        <time>2020-07-26T13:20:46Z</time>
      </trkpt>
      <trkpt lat="44.74385" lon="-0.07635">
        <ele>66.95</ele>
        <time>2020-07-26T13:20:53Z</time>
      </trkpt>
      <trkpt lat="44.74377" lon="-0.07639">
        <ele>68.39</ele>
        <time>2020-07-26T13:21:00Z</time>
      </trkpt>
      <trkpt lat="44.74375" lon="-0.0764">
        <ele>68.39</ele>
        <time>2020-07-26T13:21:01Z</time>
      </trkpt>
      <trkpt lat="44.74374" lon="-0.0764">
        <ele>68.39</ele>
        <time>2020-07-26T13:21:02Z</time>
      </trkpt>
      <trkpt lat="44.74364" lon="-0.07639">
        <ele>68.39</ele>
        <time>2020-07-26T13:21:12Z</time>
      </trkpt>
      <trkpt lat="44.74363" lon="-0.07634">
        <ele>68.39</ele>
        <time>2020-07-26T13:21:27Z</time>
      </trkpt>
      <trkpt lat="44.74349" lon="-0.07606">
        <ele>68.87</ele>
        <time>2020-07-26T13:21:48Z</time>
      </trkpt>
      <trkpt lat="44.74347" lon="-0.07602">
        <ele>68.87</ele>
        <time>2020-07-26T13:21:50Z</time>
      </trkpt>
      <trkpt lat="44.74346" lon="-0.076">
        <ele>68.87</ele>
        <time>2020-07-26T13:21:51Z</time>
      </trkpt>
      <trkpt lat="44.74345" lon="-0.07598">
        <ele>68.87</ele>
        <time>2020-07-26T13:21:52Z</time>
      </trkpt>
      <trkpt lat="44.74344" lon="-0.07597">
        <ele>68.87</ele>
        <time>2020-07-26T13:21:53Z</time>
      </trkpt>
      <trkpt lat="44.74344" lon="-0.07595">
        <ele>68.87</ele>
        <time>2020-07-26T13:21:54Z</time>
      </trkpt>
      <trkpt lat="44.74335" lon="-0.07572">
        <ele>69.35</ele>
        <time>2020-07-26T13:22:09Z</time>
      </trkpt>
      <trkpt lat="44.74328" lon="-0.07554">
        <ele>69.35</ele>
        <time>2020-07-26T13:22:25Z</time>
      </trkpt>
      <trkpt lat="44.74313" lon="-0.07531">
        <ele>67.43</ele>
        <time>2020-07-26T13:22:44Z</time>
      </trkpt>
      <trkpt lat="44.7431" lon="-0.0753">
        <ele>65.99</ele>
        <time>2020-07-26T13:22:46Z</time>
      </trkpt>
      <trkpt lat="44.74308" lon="-0.07529">
        <ele>67.43</ele>
        <time>2020-07-26T13:22:48Z</time>
      </trkpt>
      <trkpt lat="44.74307" lon="-0.07529">
        <ele>67.43</ele>
        <time>2020-07-26T13:22:49Z</time>
      </trkpt>
      <trkpt lat="44.74303" lon="-0.07528">
        <ele>65.99</ele>
        <time>2020-07-26T13:22:52Z</time>
      </trkpt>
      <trkpt lat="44.74279" lon="-0.07527">
        <ele>64.55</ele>
        <time>2020-07-26T13:23:11Z</time>
      </trkpt>
      <trkpt lat="44.74265" lon="-0.07532">
        <ele>63.58</ele>
        <time>2020-07-26T13:23:24Z</time>
      </trkpt>
      <trkpt lat="44.74247" lon="-0.07539">
        <ele>63.58</ele>
        <time>2020-07-26T13:23:38Z</time>
      </trkpt>
      <trkpt lat="44.74226" lon="-0.07549">
        <ele>62.14</ele>
        <time>2020-07-26T13:23:55Z</time>
      </trkpt>
      <trkpt lat="44.74219" lon="-0.0755">
        <ele>62.14</ele>
        <time>2020-07-26T13:24:01Z</time>
      </trkpt>
      <trkpt lat="44.74195" lon="-0.07558">
        <ele>61.66</ele>
        <time>2020-07-26T13:24:21Z</time>
      </trkpt>
      <trkpt lat="44.7417" lon="-0.07565">
        <ele>62.14</ele>
        <time>2020-07-26T13:24:43Z</time>
      </trkpt>
      <trkpt lat="44.74161" lon="-0.07568">
        <ele>61.66</ele>
        <time>2020-07-26T13:24:50Z</time>
      </trkpt>
      <trkpt lat="44.74152" lon="-0.07571">
        <ele>60.22</ele>
        <time>2020-07-26T13:24:57Z</time>
      </trkpt>
      <trkpt lat="44.74128" lon="-0.07576">
        <ele>59.26</ele>
        <time>2020-07-26T13:25:17Z</time>
      </trkpt>
      <trkpt lat="44.74104" lon="-0.07582">
        <ele>59.26</ele>
        <time>2020-07-26T13:25:38Z</time>
      </trkpt>
      <trkpt lat="44.74095" lon="-0.07584">
        <ele>57.82</ele>
        <time>2020-07-26T13:25:44Z</time>
      </trkpt>
      <trkpt lat="44.74092" lon="-0.07585">
        <ele>57.82</ele>
        <time>2020-07-26T13:25:50Z</time>
      </trkpt>
      <trkpt lat="44.74073" lon="-0.07591">
        <ele>57.34</ele>
        <time>2020-07-26T13:26:05Z</time>
      </trkpt>
      <trkpt lat="44.74063" lon="-0.07592">
        <ele>57.82</ele>
        <time>2020-07-26T13:26:14Z</time>
      </trkpt>
      <trkpt lat="44.7405" lon="-0.07597">
        <ele>56.37</ele>
        <time>2020-07-26T13:26:25Z</time>
      </trkpt>
      <trkpt lat="44.74026" lon="-0.07608">
        <ele>56.37</ele>
        <time>2020-07-26T13:26:45Z</time>
      </trkpt>
      <trkpt lat="44.74007" lon="-0.07617">
        <ele>56.37</ele>
        <time>2020-07-26T13:27:05Z</time>
      </trkpt>
      <trkpt lat="44.74009" lon="-0.07624">
        <ele>57.34</ele>
        <time>2020-07-26T13:27:27Z</time>
      </trkpt>
      <trkpt lat="44.73995" lon="-0.07624">
        <ele>55.89</ele>
        <time>2020-07-26T13:27:46Z</time>
      </trkpt>
      <trkpt lat="44.7399" lon="-0.07625">
        <ele>57.34</ele>
        <time>2020-07-26T13:27:51Z</time>
      </trkpt>
      <trkpt lat="44.73973" lon="-0.07632">
        <ele>57.34</ele>
        <time>2020-07-26T13:28:08Z</time>
      </trkpt>
      <trkpt lat="44.73951" lon="-0.07644">
        <ele>58.78</ele>
        <time>2020-07-26T13:28:28Z</time>
      </trkpt>
      <trkpt lat="44.73939" lon="-0.07653">
        <ele>60.22</ele>
        <time>2020-07-26T13:28:45Z</time>
      </trkpt>
      <trkpt lat="44.73916" lon="-0.07666">
        <ele>61.66</ele>
        <time>2020-07-26T13:29:06Z</time>
      </trkpt>
      <trkpt lat="44.73891" lon="-0.07677">
        <ele>62.14</ele>
        <time>2020-07-26T13:29:28Z</time>
      </trkpt>
      <trkpt lat="44.73886" lon="-0.0768">
        <ele>63.58</ele>
        <time>2020-07-26T13:29:32Z</time>
      </trkpt>
      <trkpt lat="44.73855" lon="-0.07697">
        <ele>64.07</ele>
        <time>2020-07-26T13:29:57Z</time>
      </trkpt>
      <trkpt lat="44.73839" lon="-0.07703">
        <ele>65.03</ele>
        <time>2020-07-26T13:30:09Z</time>
      </trkpt>
      <trkpt lat="44.7383" lon="-0.07708">
        <ele>65.03</ele>
        <time>2020-07-26T13:30:25Z</time>
      </trkpt>
      <trkpt lat="44.73815" lon="-0.07719">
        <ele>65.51</ele>
        <time>2020-07-26T13:30:39Z</time>
      </trkpt>
      <trkpt lat="44.73805" lon="-0.07725">
        <ele>65.99</ele>
        <time>2020-07-26T13:30:48Z</time>
      </trkpt>
      <trkpt lat="44.73787" lon="-0.07735">
        <ele>65.99</ele>
        <time>2020-07-26T13:31:07Z</time>
      </trkpt>
      <trkpt lat="44.73785" lon="-0.07736">
        <ele>65.99</ele>
        <time>2020-07-26T13:31:09Z</time>
      </trkpt>
      <trkpt lat="44.73761" lon="-0.07738">
        <ele>65.99</ele>
        <time>2020-07-26T13:31:27Z</time>
      </trkpt>
      <trkpt lat="44.73759" lon="-0.07735">
        <ele>66.47</ele>
        <time>2020-07-26T13:31:29Z</time>
      </trkpt>
      <trkpt lat="44.73759" lon="-0.07734">
        <ele>66.47</ele>
        <time>2020-07-26T13:31:30Z</time>
      </trkpt>
      <trkpt lat="44.73754" lon="-0.07707">
        <ele>64.55</ele>
        <time>2020-07-26T13:31:47Z</time>
      </trkpt>
      <trkpt lat="44.73751" lon="-0.07696">
        <ele>65.99</ele>
        <time>2020-07-26T13:31:52Z</time>
      </trkpt>
      <trkpt lat="44.73751" lon="-0.07692">
        <ele>64.55</ele>
        <time>2020-07-26T13:31:54Z</time>
      </trkpt>
      <trkpt lat="44.73751" lon="-0.07687">
        <ele>65.99</ele>
        <time>2020-07-26T13:31:56Z</time>
      </trkpt>
      <trkpt lat="44.73749" lon="-0.07674">
        <ele>64.07</ele>
        <time>2020-07-26T13:32:05Z</time>
      </trkpt>
      <trkpt lat="44.73747" lon="-0.07642">
        <ele>63.1</ele>
        <time>2020-07-26T13:32:24Z</time>
      </trkpt>
      <trkpt lat="44.73741" lon="-0.07618">
        <ele>62.62</ele>
        <time>2020-07-26T13:32:38Z</time>
      </trkpt>
      <trkpt lat="44.73737" lon="-0.07585">
        <ele>60.7</ele>
        <time>2020-07-26T13:32:57Z</time>
      </trkpt>
      <trkpt lat="44.73727" lon="-0.07547">
        <ele>61.66</ele>
        <time>2020-07-26T13:33:21Z</time>
      </trkpt>
      <trkpt lat="44.73717" lon="-0.07512">
        <ele>61.66</ele>
        <time>2020-07-26T13:33:42Z</time>
      </trkpt>
      <trkpt lat="44.73716" lon="-0.07509">
        <ele>63.58</ele>
        <time>2020-07-26T13:33:44Z</time>
      </trkpt>
      <trkpt lat="44.73711" lon="-0.07479">
        <ele>64.07</ele>
        <time>2020-07-26T13:34:04Z</time>
      </trkpt>
      <trkpt lat="44.73706" lon="-0.07447">
        <ele>64.55</ele>
        <time>2020-07-26T13:34:24Z</time>
      </trkpt>
      <trkpt lat="44.73701" lon="-0.07414">
        <ele>65.51</ele>
        <time>2020-07-26T13:34:44Z</time>
      </trkpt>
      <trkpt lat="44.737" lon="-0.07404">
        <ele>65.99</ele>
        <time>2020-07-26T13:34:50Z</time>
      </trkpt>
      <trkpt lat="44.73696" lon="-0.07374">
        <ele>65.99</ele>
        <time>2020-07-26T13:35:10Z</time>
      </trkpt>
      <trkpt lat="44.73691" lon="-0.07341">
        <ele>66.47</ele>
        <time>2020-07-26T13:35:30Z</time>
      </trkpt>
      <trkpt lat="44.73686" lon="-0.07309">
        <ele>66.95</ele>
        <time>2020-07-26T13:35:48Z</time>
      </trkpt>
      <trkpt lat="44.73681" lon="-0.07281">
        <ele>67.43</ele>
        <time>2020-07-26T13:36:07Z</time>
      </trkpt>
      <trkpt lat="44.73677" lon="-0.07268">
        <ele>66.47</ele>
        <time>2020-07-26T13:36:17Z</time>
      </trkpt>
      <trkpt lat="44.73673" lon="-0.07252">
        <ele>68.39</ele>
        <time>2020-07-26T13:36:27Z</time>
      </trkpt>
      <trkpt lat="44.73672" lon="-0.07246">
        <ele>66.47</ele>
        <time>2020-07-26T13:36:31Z</time>
      </trkpt>
      <trkpt lat="44.73664" lon="-0.07219">
        <ele>66.95</ele>
        <time>2020-07-26T13:36:47Z</time>
      </trkpt>
      <trkpt lat="44.73658" lon="-0.07194">
        <ele>66.95</ele>
        <time>2020-07-26T13:37:02Z</time>
      </trkpt>
      <trkpt lat="44.73658" lon="-0.07191">
        <ele>68.39</ele>
        <time>2020-07-26T13:37:04Z</time>
      </trkpt>
      <trkpt lat="44.73652" lon="-0.07171">
        <ele>69.35</ele>
        <time>2020-07-26T13:37:16Z</time>
      </trkpt>
      <trkpt lat="44.73651" lon="-0.0717">
        <ele>69.35</ele>
        <time>2020-07-26T13:37:17Z</time>
      </trkpt>
      <trkpt lat="44.73651" lon="-0.07168">
        <ele>69.35</ele>
        <time>2020-07-26T13:37:18Z</time>
      </trkpt>
      <trkpt lat="44.7365" lon="-0.07166">
        <ele>69.35</ele>
        <time>2020-07-26T13:37:19Z</time>
      </trkpt>
      <trkpt lat="44.7365" lon="-0.07165">
        <ele>69.35</ele>
        <time>2020-07-26T13:37:20Z</time>
      </trkpt>
      <trkpt lat="44.73642" lon="-0.07132">
        <ele>70.31</ele>
        <time>2020-07-26T13:37:40Z</time>
      </trkpt>
      <trkpt lat="44.7364" lon="-0.07123">
        <ele>70.31</ele>
        <time>2020-07-26T13:37:46Z</time>
      </trkpt>
      <trkpt lat="44.73637" lon="-0.07115">
        <ele>70.31</ele>
        <time>2020-07-26T13:37:56Z</time>
      </trkpt>
      <trkpt lat="44.73637" lon="-0.07113">
        <ele>68.39</ele>
        <time>2020-07-26T13:37:57Z</time>
      </trkpt>
      <trkpt lat="44.73637" lon="-0.07111">
        <ele>69.83</ele>
        <time>2020-07-26T13:37:58Z</time>
      </trkpt>
      <trkpt lat="44.73638" lon="-0.07101">
        <ele>68.87</ele>
        <time>2020-07-26T13:38:04Z</time>
      </trkpt>
      <trkpt lat="44.73638" lon="-0.07097">
        <ele>70.31</ele>
        <time>2020-07-26T13:38:07Z</time>
      </trkpt>
      <trkpt lat="44.73639" lon="-0.07078">
        <ele>70.31</ele>
        <time>2020-07-26T13:38:17Z</time>
      </trkpt>
      <trkpt lat="44.7364" lon="-0.07038">
        <ele>69.83</ele>
        <time>2020-07-26T13:38:38Z</time>
      </trkpt>
      <trkpt lat="44.73643" lon="-0.07008">
        <ele>68.39</ele>
        <time>2020-07-26T13:38:59Z</time>
      </trkpt>
      <trkpt lat="44.73644" lon="-0.07005">
        <ele>69.83</ele>
        <time>2020-07-26T13:39:00Z</time>
      </trkpt>
      <trkpt lat="44.73644" lon="-0.07003">
        <ele>69.83</ele>
        <time>2020-07-26T13:39:01Z</time>
      </trkpt>
      <trkpt lat="44.73646" lon="-0.06973">
        <ele>69.83</ele>
        <time>2020-07-26T13:39:18Z</time>
      </trkpt>
      <trkpt lat="44.73646" lon="-0.06944">
        <ele>69.83</ele>
        <time>2020-07-26T13:39:36Z</time>
      </trkpt>
      <trkpt lat="44.73639" lon="-0.06935">
        <ele>70.79</ele>
        <time>2020-07-26T13:39:50Z</time>
      </trkpt>
      <trkpt lat="44.73637" lon="-0.06934">
        <ele>70.79</ele>
        <time>2020-07-26T13:39:54Z</time>
      </trkpt>
      <trkpt lat="44.73636" lon="-0.06934">
        <ele>71.27</ele>
        <time>2020-07-26T13:39:55Z</time>
      </trkpt>
      <trkpt lat="44.73621" lon="-0.06937">
        <ele>71.27</ele>
        <time>2020-07-26T13:40:08Z</time>
      </trkpt>
      <trkpt lat="44.73612" lon="-0.06943">
        <ele>71.76</ele>
        <time>2020-07-26T13:40:22Z</time>
      </trkpt>
      <trkpt lat="44.7361" lon="-0.06944">
        <ele>70.31</ele>
        <time>2020-07-26T13:40:24Z</time>
      </trkpt>
      <trkpt lat="44.73609" lon="-0.06945">
        <ele>70.31</ele>
        <time>2020-07-26T13:40:25Z</time>
      </trkpt>
      <trkpt lat="44.73607" lon="-0.06946">
        <ele>71.76</ele>
        <time>2020-07-26T13:40:27Z</time>
      </trkpt>
      <trkpt lat="44.73596" lon="-0.06947">
        <ele>71.76</ele>
        <time>2020-07-26T13:40:37Z</time>
      </trkpt>
      <trkpt lat="44.73574" lon="-0.06946">
        <ele>71.76</ele>
        <time>2020-07-26T13:40:55Z</time>
      </trkpt>
      <trkpt lat="44.73557" lon="-0.06956">
        <ele>71.76</ele>
        <time>2020-07-26T13:41:11Z</time>
      </trkpt>
      <trkpt lat="44.7356" lon="-0.06962">
        <ele>71.76</ele>
        <time>2020-07-26T13:41:31Z</time>
      </trkpt>
      <trkpt lat="44.73559" lon="-0.0696">
        <ele>71.76</ele>
        <time>2020-07-26T13:42:03Z</time>
      </trkpt>
      <trkpt lat="44.73565" lon="-0.0696">
        <ele>71.76</ele>
        <time>2020-07-26T13:42:28Z</time>
      </trkpt>
      <trkpt lat="44.73564" lon="-0.06958">
        <ele>71.27</ele>
        <time>2020-07-26T13:42:54Z</time>
      </trkpt>
      <trkpt lat="44.73564" lon="-0.06962">
        <ele>71.27</ele>
        <time>2020-07-26T13:43:20Z</time>
      </trkpt>
      <trkpt lat="44.73564" lon="-0.06963">
        <ele>71.27</ele>
        <time>2020-07-26T13:43:43Z</time>
      </trkpt>
      <trkpt lat="44.73564" lon="-0.06961">
        <ele>71.27</ele>
        <time>2020-07-26T13:44:16Z</time>
      </trkpt>
      <trkpt lat="44.7357" lon="-0.06964">
        <ele>70.79</ele>
        <time>2020-07-26T13:44:45Z</time>
      </trkpt>
      <trkpt lat="44.73565" lon="-0.06971">
        <ele>71.27</ele>
        <time>2020-07-26T13:45:05Z</time>
      </trkpt>
      <trkpt lat="44.73565" lon="-0.06961">
        <ele>71.27</ele>
        <time>2020-07-26T13:45:30Z</time>
      </trkpt>
      <trkpt lat="44.73565" lon="-0.06963">
        <ele>71.27</ele>
        <time>2020-07-26T13:46:08Z</time>
      </trkpt>
      <trkpt lat="44.73564" lon="-0.06965">
        <ele>71.27</ele>
        <time>2020-07-26T13:46:48Z</time>
      </trkpt>
      <trkpt lat="44.73563" lon="-0.06965">
        <ele>71.27</ele>
        <time>2020-07-26T13:47:24Z</time>
      </trkpt>
      <trkpt lat="44.73566" lon="-0.06966">
        <ele>71.27</ele>
        <time>2020-07-26T13:48:09Z</time>
      </trkpt>
      <trkpt lat="44.73567" lon="-0.06966">
        <ele>70.79</ele>
        <time>2020-07-26T13:48:52Z</time>
      </trkpt>
      <trkpt lat="44.73569" lon="-0.06963">
        <ele>70.79</ele>
        <time>2020-07-26T13:49:19Z</time>
      </trkpt>
      <trkpt lat="44.73575" lon="-0.06966">
        <ele>70.79</ele>
        <time>2020-07-26T13:49:43Z</time>
      </trkpt>
      <trkpt lat="44.73571" lon="-0.06954">
        <ele>70.79</ele>
        <time>2020-07-26T13:50:11Z</time>
      </trkpt>
      <trkpt lat="44.73562" lon="-0.06959">
        <ele>70.79</ele>
        <time>2020-07-26T13:50:40Z</time>
      </trkpt>
      <trkpt lat="44.73571" lon="-0.0696">
        <ele>70.79</ele>
        <time>2020-07-26T13:51:05Z</time>
      </trkpt>
      <trkpt lat="44.73563" lon="-0.06959">
        <ele>70.79</ele>
        <time>2020-07-26T13:51:32Z</time>
      </trkpt>
      <trkpt lat="44.73547" lon="-0.06975">
        <ele>70.79</ele>
        <time>2020-07-26T13:51:53Z</time>
      </trkpt>
      <trkpt lat="44.73555" lon="-0.06966">
        <ele>70.79</ele>
        <time>2020-07-26T13:52:14Z</time>
      </trkpt>
      <trkpt lat="44.73566" lon="-0.06962">
        <ele>71.27</ele>
        <time>2020-07-26T13:52:46Z</time>
      </trkpt>
      <trkpt lat="44.73564" lon="-0.06964">
        <ele>71.27</ele>
        <time>2020-07-26T13:53:10Z</time>
      </trkpt>
      <trkpt lat="44.7356" lon="-0.06962">
        <ele>71.27</ele>
        <time>2020-07-26T13:53:38Z</time>
      </trkpt>
      <trkpt lat="44.73564" lon="-0.06962">
        <ele>71.27</ele>
        <time>2020-07-26T13:54:00Z</time>
      </trkpt>
      <trkpt lat="44.73563" lon="-0.06959">
        <ele>71.76</ele>
        <time>2020-07-26T13:54:24Z</time>
      </trkpt>
      <trkpt lat="44.73566" lon="-0.06961">
        <ele>71.76</ele>
        <time>2020-07-26T13:54:46Z</time>
      </trkpt>
      <trkpt lat="44.7357" lon="-0.0696">
        <ele>71.76</ele>
        <time>2020-07-26T13:55:12Z</time>
      </trkpt>
      <trkpt lat="44.73568" lon="-0.06958">
        <ele>72.24</ele>
        <time>2020-07-26T13:55:42Z</time>
      </trkpt>
      <trkpt lat="44.73563" lon="-0.06959">
        <ele>72.24</ele>
        <time>2020-07-26T13:55:58Z</time>
      </trkpt>
      <trkpt lat="44.73562" lon="-0.06959">
        <ele>72.24</ele>
        <time>2020-07-26T13:56:27Z</time>
      </trkpt>
      <trkpt lat="44.73557" lon="-0.06959">
        <ele>72.72</ele>
        <time>2020-07-26T13:56:52Z</time>
      </trkpt>
      <trkpt lat="44.73543" lon="-0.06957">
        <ele>73.2</ele>
        <time>2020-07-26T13:57:09Z</time>
      </trkpt>
      <trkpt lat="44.73526" lon="-0.06966">
        <ele>74.16</ele>
        <time>2020-07-26T13:57:26Z</time>
      </trkpt>
      <trkpt lat="44.73505" lon="-0.06977">
        <ele>75.12</ele>
        <time>2020-07-26T13:57:46Z</time>
      </trkpt>
      <trkpt lat="44.73487" lon="-0.06985">
        <ele>77.04</ele>
        <time>2020-07-26T13:58:04Z</time>
      </trkpt>
      <trkpt lat="44.73476" lon="-0.06991">
        <ele>77.04</ele>
        <time>2020-07-26T13:58:22Z</time>
      </trkpt>
      <trkpt lat="44.73461" lon="-0.06996">
        <ele>78</ele>
        <time>2020-07-26T13:58:38Z</time>
      </trkpt>
      <trkpt lat="44.73441" lon="-0.07005">
        <ele>79.93</ele>
        <time>2020-07-26T13:58:57Z</time>
      </trkpt>
      <trkpt lat="44.73421" lon="-0.07013">
        <ele>80.89</ele>
        <time>2020-07-26T13:59:15Z</time>
      </trkpt>
      <trkpt lat="44.73402" lon="-0.07023">
        <ele>83.29</ele>
        <time>2020-07-26T13:59:32Z</time>
      </trkpt>
      <trkpt lat="44.73385" lon="-0.07031">
        <ele>84.73</ele>
        <time>2020-07-26T13:59:49Z</time>
      </trkpt>
      <trkpt lat="44.73367" lon="-0.07039">
        <ele>86.18</ele>
        <time>2020-07-26T14:00:07Z</time>
      </trkpt>
      <trkpt lat="44.73349" lon="-0.07047">
        <ele>88.1</ele>
        <time>2020-07-26T14:00:24Z</time>
      </trkpt>
      <trkpt lat="44.73332" lon="-0.07052">
        <ele>88.58</ele>
        <time>2020-07-26T14:00:38Z</time>
      </trkpt>
      <trkpt lat="44.73321" lon="-0.07052">
        <ele>88.1</ele>
        <time>2020-07-26T14:00:52Z</time>
      </trkpt>
      <trkpt lat="44.73318" lon="-0.07052">
        <ele>87.14</ele>
        <time>2020-07-26T14:00:54Z</time>
      </trkpt>
      <trkpt lat="44.73293" lon="-0.07048">
        <ele>86.66</ele>
        <time>2020-07-26T14:01:15Z</time>
      </trkpt>
      <trkpt lat="44.73268" lon="-0.07051">
        <ele>85.21</ele>
        <time>2020-07-26T14:01:36Z</time>
      </trkpt>
      <trkpt lat="44.73256" lon="-0.07055">
        <ele>85.69</ele>
        <time>2020-07-26T14:01:45Z</time>
      </trkpt>
      <trkpt lat="44.73253" lon="-0.07057">
        <ele>84.25</ele>
        <time>2020-07-26T14:01:48Z</time>
      </trkpt>
      <trkpt lat="44.73231" lon="-0.07059">
        <ele>84.73</ele>
        <time>2020-07-26T14:02:08Z</time>
      </trkpt>
      <trkpt lat="44.73208" lon="-0.07064">
        <ele>84.73</ele>
        <time>2020-07-26T14:02:27Z</time>
      </trkpt>
      <trkpt lat="44.73181" lon="-0.07075">
        <ele>83.29</ele>
        <time>2020-07-26T14:02:49Z</time>
      </trkpt>
      <trkpt lat="44.73155" lon="-0.07076">
        <ele>82.81</ele>
        <time>2020-07-26T14:03:11Z</time>
      </trkpt>
      <trkpt lat="44.73129" lon="-0.07083">
        <ele>84.25</ele>
        <time>2020-07-26T14:03:31Z</time>
      </trkpt>
      <trkpt lat="44.73103" lon="-0.07091">
        <ele>84.73</ele>
        <time>2020-07-26T14:03:57Z</time>
      </trkpt>
      <trkpt lat="44.73079" lon="-0.07098">
        <ele>85.69</ele>
        <time>2020-07-26T14:04:18Z</time>
      </trkpt>
      <trkpt lat="44.73059" lon="-0.07101">
        <ele>87.62</ele>
        <time>2020-07-26T14:04:39Z</time>
      </trkpt>
      <trkpt lat="44.73039" lon="-0.07108">
        <ele>89.06</ele>
        <time>2020-07-26T14:05:00Z</time>
      </trkpt>
      <trkpt lat="44.73014" lon="-0.07107">
        <ele>91.46</ele>
        <time>2020-07-26T14:05:21Z</time>
      </trkpt>
      <trkpt lat="44.72992" lon="-0.07103">
        <ele>92.42</ele>
        <time>2020-07-26T14:05:41Z</time>
      </trkpt>
      <trkpt lat="44.72968" lon="-0.07108">
        <ele>93.87</ele>
        <time>2020-07-26T14:06:03Z</time>
      </trkpt>
      <trkpt lat="44.72948" lon="-0.07118">
        <ele>94.83</ele>
        <time>2020-07-26T14:06:23Z</time>
      </trkpt>
      <trkpt lat="44.72927" lon="-0.07139">
        <ele>93.87</ele>
        <time>2020-07-26T14:06:43Z</time>
      </trkpt>
      <trkpt lat="44.7291" lon="-0.07162">
        <ele>94.83</ele>
        <time>2020-07-26T14:07:03Z</time>
      </trkpt>
      <trkpt lat="44.72906" lon="-0.07167">
        <ele>93.39</ele>
        <time>2020-07-26T14:07:07Z</time>
      </trkpt>
      <trkpt lat="44.72893" lon="-0.07187">
        <ele>94.83</ele>
        <time>2020-07-26T14:07:24Z</time>
      </trkpt>
      <trkpt lat="44.72876" lon="-0.07208">
        <ele>93.87</ele>
        <time>2020-07-26T14:07:42Z</time>
      </trkpt>
      <trkpt lat="44.7287" lon="-0.07216">
        <ele>94.35</ele>
        <time>2020-07-26T14:07:49Z</time>
      </trkpt>
      <trkpt lat="44.72849" lon="-0.07236">
        <ele>94.35</ele>
        <time>2020-07-26T14:08:10Z</time>
      </trkpt>
      <trkpt lat="44.72832" lon="-0.07256">
        <ele>94.35</ele>
        <time>2020-07-26T14:08:29Z</time>
      </trkpt>
      <trkpt lat="44.72823" lon="-0.07263">
        <ele>94.83</ele>
        <time>2020-07-26T14:08:41Z</time>
      </trkpt>
      <trkpt lat="44.72809" lon="-0.07269">
        <ele>93.39</ele>
        <time>2020-07-26T14:08:59Z</time>
      </trkpt>
      <trkpt lat="44.72789" lon="-0.07281">
        <ele>94.83</ele>
        <time>2020-07-26T14:09:18Z</time>
      </trkpt>
      <trkpt lat="44.72766" lon="-0.07291">
        <ele>95.31</ele>
        <time>2020-07-26T14:09:36Z</time>
      </trkpt>
      <trkpt lat="44.72763" lon="-0.07293">
        <ele>94.35</ele>
        <time>2020-07-26T14:09:38Z</time>
      </trkpt>
      <trkpt lat="44.72736" lon="-0.07307">
        <ele>95.31</ele>
        <time>2020-07-26T14:10:03Z</time>
      </trkpt>
      <trkpt lat="44.72722" lon="-0.07318">
        <ele>95.31</ele>
        <time>2020-07-26T14:10:23Z</time>
      </trkpt>
      <trkpt lat="44.72722" lon="-0.07318">
        <ele>93.87</ele>
        <time>2020-07-26T14:10:25Z</time>
      </trkpt>
      <trkpt lat="44.72701" lon="-0.07332">
        <ele>91.94</ele>
        <time>2020-07-26T14:10:44Z</time>
      </trkpt>
      <trkpt lat="44.72682" lon="-0.07338">
        <ele>90.98</ele>
        <time>2020-07-26T14:11:02Z</time>
      </trkpt>
      <trkpt lat="44.72671" lon="-0.07344">
        <ele>90.5</ele>
        <time>2020-07-26T14:11:13Z</time>
      </trkpt>
      <trkpt lat="44.72646" lon="-0.07352">
        <ele>88.58</ele>
        <time>2020-07-26T14:11:34Z</time>
      </trkpt>
      <trkpt lat="44.7263" lon="-0.07357">
        <ele>87.14</ele>
        <time>2020-07-26T14:11:55Z</time>
      </trkpt>
      <trkpt lat="44.7262" lon="-0.07359">
        <ele>85.69</ele>
        <time>2020-07-26T14:12:17Z</time>
      </trkpt>
      <trkpt lat="44.72606" lon="-0.07369">
        <ele>85.69</ele>
        <time>2020-07-26T14:12:34Z</time>
      </trkpt>
      <trkpt lat="44.72597" lon="-0.07374">
        <ele>84.73</ele>
        <time>2020-07-26T14:12:53Z</time>
      </trkpt>
      <trkpt lat="44.72578" lon="-0.07381">
        <ele>83.77</ele>
        <time>2020-07-26T14:13:04Z</time>
      </trkpt>
      <trkpt lat="44.72561" lon="-0.07389">
        <ele>83.77</ele>
        <time>2020-07-26T14:13:21Z</time>
      </trkpt>
      <trkpt lat="44.72533" lon="-0.07395">
        <ele>83.77</ele>
        <time>2020-07-26T14:13:41Z</time>
      </trkpt>
      <trkpt lat="44.72524" lon="-0.07402">
        <ele>82.33</ele>
        <time>2020-07-26T14:13:49Z</time>
      </trkpt>
      <trkpt lat="44.72505" lon="-0.07411">
        <ele>80.41</ele>
        <time>2020-07-26T14:14:07Z</time>
      </trkpt>
      <trkpt lat="44.72484" lon="-0.07421">
        <ele>79.45</ele>
        <time>2020-07-26T14:14:25Z</time>
      </trkpt>
      <trkpt lat="44.72463" lon="-0.07434">
        <ele>78.48</ele>
        <time>2020-07-26T14:14:43Z</time>
      </trkpt>
      <trkpt lat="44.72462" lon="-0.07435">
        <ele>78.48</ele>
        <time>2020-07-26T14:14:44Z</time>
      </trkpt>
      <trkpt lat="44.72459" lon="-0.07435">
        <ele>79.93</ele>
        <time>2020-07-26T14:14:46Z</time>
      </trkpt>
      <trkpt lat="44.72458" lon="-0.0744">
        <ele>79.93</ele>
        <time>2020-07-26T14:15:02Z</time>
      </trkpt>
      <trkpt lat="44.72457" lon="-0.07449">
        <ele>80.41</ele>
        <time>2020-07-26T14:15:23Z</time>
      </trkpt>
      <trkpt lat="44.72462" lon="-0.07449">
        <ele>80.41</ele>
        <time>2020-07-26T14:15:49Z</time>
      </trkpt>
      <trkpt lat="44.72459" lon="-0.07446">
        <ele>79.45</ele>
        <time>2020-07-26T14:16:09Z</time>
      </trkpt>
      <trkpt lat="44.72437" lon="-0.07439">
        <ele>78.48</ele>
        <time>2020-07-26T14:16:27Z</time>
      </trkpt>
      <trkpt lat="44.7242" lon="-0.07446">
        <ele>78.48</ele>
        <time>2020-07-26T14:16:45Z</time>
      </trkpt>
      <trkpt lat="44.72411" lon="-0.07449">
        <ele>78.48</ele>
        <time>2020-07-26T14:16:55Z</time>
      </trkpt>
      <trkpt lat="44.72409" lon="-0.07449">
        <ele>78.48</ele>
        <time>2020-07-26T14:16:56Z</time>
      </trkpt>
      <trkpt lat="44.72393" lon="-0.0746">
        <ele>79.93</ele>
        <time>2020-07-26T14:17:14Z</time>
      </trkpt>
      <trkpt lat="44.72378" lon="-0.07465">
        <ele>80.41</ele>
        <time>2020-07-26T14:17:32Z</time>
      </trkpt>
      <trkpt lat="44.7236" lon="-0.07469">
        <ele>80.89</ele>
        <time>2020-07-26T14:17:50Z</time>
      </trkpt>
      <trkpt lat="44.72347" lon="-0.0748">
        <ele>80.89</ele>
        <time>2020-07-26T14:18:12Z</time>
      </trkpt>
      <trkpt lat="44.7234" lon="-0.07477">
        <ele>80.89</ele>
        <time>2020-07-26T14:18:34Z</time>
      </trkpt>
      <trkpt lat="44.72329" lon="-0.0748">
        <ele>79.93</ele>
        <time>2020-07-26T14:18:56Z</time>
      </trkpt>
      <trkpt lat="44.72306" lon="-0.07481">
        <ele>78</ele>
        <time>2020-07-26T14:19:16Z</time>
      </trkpt>
      <trkpt lat="44.72285" lon="-0.07485">
        <ele>77.04</ele>
        <time>2020-07-26T14:19:33Z</time>
      </trkpt>
      <trkpt lat="44.72268" lon="-0.07494">
        <ele>77.04</ele>
        <time>2020-07-26T14:19:47Z</time>
      </trkpt>
      <trkpt lat="44.7225" lon="-0.07499">
        <ele>77.04</ele>
        <time>2020-07-26T14:19:59Z</time>
      </trkpt>
      <trkpt lat="44.72246" lon="-0.07499">
        <ele>77.04</ele>
        <time>2020-07-26T14:20:02Z</time>
      </trkpt>
      <trkpt lat="44.72228" lon="-0.07504">
        <ele>77.04</ele>
        <time>2020-07-26T14:20:16Z</time>
      </trkpt>
      <trkpt lat="44.72206" lon="-0.07508">
        <ele>76.56</ele>
        <time>2020-07-26T14:20:31Z</time>
      </trkpt>
      <trkpt lat="44.72184" lon="-0.07514">
        <ele>76.56</ele>
        <time>2020-07-26T14:20:47Z</time>
      </trkpt>
      <trkpt lat="44.72173" lon="-0.07518">
        <ele>76.56</ele>
        <time>2020-07-26T14:21:02Z</time>
      </trkpt>
      <trkpt lat="44.7217" lon="-0.07519">
        <ele>76.56</ele>
        <time>2020-07-26T14:21:05Z</time>
      </trkpt>
      <trkpt lat="44.72169" lon="-0.07519">
        <ele>76.56</ele>
        <time>2020-07-26T14:21:06Z</time>
      </trkpt>
      <trkpt lat="44.72163" lon="-0.07521">
        <ele>76.56</ele>
        <time>2020-07-26T14:21:09Z</time>
      </trkpt>
      <trkpt lat="44.72144" lon="-0.07521">
        <ele>75.6</ele>
        <time>2020-07-26T14:21:21Z</time>
      </trkpt>
      <trkpt lat="44.72142" lon="-0.07523">
        <ele>75.6</ele>
        <time>2020-07-26T14:21:23Z</time>
      </trkpt>
      <trkpt lat="44.72121" lon="-0.07532">
        <ele>74.64</ele>
        <time>2020-07-26T14:21:40Z</time>
      </trkpt>
      <trkpt lat="44.72095" lon="-0.07531">
        <ele>74.16</ele>
        <time>2020-07-26T14:22:00Z</time>
      </trkpt>
      <trkpt lat="44.7209" lon="-0.07532">
        <ele>74.16</ele>
        <time>2020-07-26T14:22:04Z</time>
      </trkpt>
      <trkpt lat="44.72089" lon="-0.07532">
        <ele>74.16</ele>
        <time>2020-07-26T14:22:05Z</time>
      </trkpt>
      <trkpt lat="44.72087" lon="-0.07532">
        <ele>73.68</ele>
        <time>2020-07-26T14:22:06Z</time>
      </trkpt>
      <trkpt lat="44.72086" lon="-0.07533">
        <ele>73.68</ele>
        <time>2020-07-26T14:22:07Z</time>
      </trkpt>
      <trkpt lat="44.72085" lon="-0.07533">
        <ele>73.68</ele>
        <time>2020-07-26T14:22:08Z</time>
      </trkpt>
      <trkpt lat="44.72068" lon="-0.07537">
        <ele>73.68</ele>
        <time>2020-07-26T14:22:22Z</time>
      </trkpt>
      <trkpt lat="44.72041" lon="-0.07545">
        <ele>71.76</ele>
        <time>2020-07-26T14:22:44Z</time>
      </trkpt>
      <trkpt lat="44.72016" lon="-0.07554">
        <ele>68.87</ele>
        <time>2020-07-26T14:23:05Z</time>
      </trkpt>
      <trkpt lat="44.72003" lon="-0.07558">
        <ele>67.43</ele>
        <time>2020-07-26T14:23:17Z</time>
      </trkpt>
      <trkpt lat="44.71973" lon="-0.07558">
        <ele>65.99</ele>
        <time>2020-07-26T14:23:40Z</time>
      </trkpt>
      <trkpt lat="44.71954" lon="-0.07578">
        <ele>64.55</ele>
        <time>2020-07-26T14:23:59Z</time>
      </trkpt>
      <trkpt lat="44.71938" lon="-0.07597">
        <ele>65.03</ele>
        <time>2020-07-26T14:24:17Z</time>
      </trkpt>
      <trkpt lat="44.71922" lon="-0.07622">
        <ele>65.03</ele>
        <time>2020-07-26T14:24:37Z</time>
      </trkpt>
      <trkpt lat="44.71907" lon="-0.07637">
        <ele>65.03</ele>
        <time>2020-07-26T14:24:56Z</time>
      </trkpt>
      <trkpt lat="44.71871" lon="-0.07658">
        <ele>65.99</ele>
        <time>2020-07-26T14:25:21Z</time>
      </trkpt>
      <trkpt lat="44.71851" lon="-0.07674">
        <ele>66.95</ele>
        <time>2020-07-26T14:25:40Z</time>
      </trkpt>
      <trkpt lat="44.71835" lon="-0.07688">
        <ele>67.91</ele>
        <time>2020-07-26T14:25:56Z</time>
      </trkpt>
      <trkpt lat="44.71817" lon="-0.07702">
        <ele>69.35</ele>
        <time>2020-07-26T14:26:14Z</time>
      </trkpt>
      <trkpt lat="44.71797" lon="-0.07715">
        <ele>69.83</ele>
        <time>2020-07-26T14:26:31Z</time>
      </trkpt>
      <trkpt lat="44.71777" lon="-0.07728">
        <ele>70.79</ele>
        <time>2020-07-26T14:26:49Z</time>
      </trkpt>
      <trkpt lat="44.71758" lon="-0.07742">
        <ele>71.76</ele>
        <time>2020-07-26T14:27:08Z</time>
      </trkpt>
      <trkpt lat="44.71741" lon="-0.07754">
        <ele>71.76</ele>
        <time>2020-07-26T14:27:27Z</time>
      </trkpt>
      <trkpt lat="44.7173" lon="-0.07763">
        <ele>71.76</ele>
        <time>2020-07-26T14:27:44Z</time>
      </trkpt>
      <trkpt lat="44.71728" lon="-0.07765">
        <ele>70.31</ele>
        <time>2020-07-26T14:27:46Z</time>
      </trkpt>
      <trkpt lat="44.71707" lon="-0.07778">
        <ele>68.87</ele>
        <time>2020-07-26T14:28:04Z</time>
      </trkpt>
      <trkpt lat="44.71685" lon="-0.07794">
        <ele>68.39</ele>
        <time>2020-07-26T14:28:23Z</time>
      </trkpt>
      <trkpt lat="44.71664" lon="-0.07814">
        <ele>66.95</ele>
        <time>2020-07-26T14:28:42Z</time>
      </trkpt>
      <trkpt lat="44.71642" lon="-0.07821">
        <ele>65.99</ele>
        <time>2020-07-26T14:29:02Z</time>
      </trkpt>
      <trkpt lat="44.71633" lon="-0.07827">
        <ele>65.99</ele>
        <time>2020-07-26T14:29:09Z</time>
      </trkpt>
      <trkpt lat="44.71609" lon="-0.07843">
        <ele>66.47</ele>
        <time>2020-07-26T14:29:29Z</time>
      </trkpt>
      <trkpt lat="44.71593" lon="-0.07853">
        <ele>66.47</ele>
        <time>2020-07-26T14:29:46Z</time>
      </trkpt>
      <trkpt lat="44.71571" lon="-0.07872">
        <ele>65.99</ele>
        <time>2020-07-26T14:30:05Z</time>
      </trkpt>
      <trkpt lat="44.71544" lon="-0.07885">
        <ele>66.95</ele>
        <time>2020-07-26T14:30:28Z</time>
      </trkpt>
      <trkpt lat="44.71518" lon="-0.07898">
        <ele>66.95</ele>
        <time>2020-07-26T14:30:49Z</time>
      </trkpt>
      <trkpt lat="44.71498" lon="-0.07909">
        <ele>66.95</ele>
        <time>2020-07-26T14:31:05Z</time>
      </trkpt>
      <trkpt lat="44.71489" lon="-0.07919">
        <ele>67.43</ele>
        <time>2020-07-26T14:31:19Z</time>
      </trkpt>
      <trkpt lat="44.71481" lon="-0.07926">
        <ele>67.43</ele>
        <time>2020-07-26T14:31:31Z</time>
      </trkpt>
      <trkpt lat="44.71469" lon="-0.07939">
        <ele>67.43</ele>
        <time>2020-07-26T14:31:44Z</time>
      </trkpt>
      <trkpt lat="44.71455" lon="-0.07952">
        <ele>65.51</ele>
        <time>2020-07-26T14:31:59Z</time>
      </trkpt>
      <trkpt lat="44.71451" lon="-0.07953">
        <ele>65.51</ele>
        <time>2020-07-26T14:32:23Z</time>
      </trkpt>
      <trkpt lat="44.71448" lon="-0.07956">
        <ele>65.51</ele>
        <time>2020-07-26T14:32:54Z</time>
      </trkpt>
      <trkpt lat="44.71449" lon="-0.07954">
        <ele>65.03</ele>
        <time>2020-07-26T14:33:22Z</time>
      </trkpt>
      <trkpt lat="44.71446" lon="-0.07967">
        <ele>65.03</ele>
        <time>2020-07-26T14:33:36Z</time>
      </trkpt>
      <trkpt lat="44.7143" lon="-0.07997">
        <ele>64.55</ele>
        <time>2020-07-26T14:33:58Z</time>
      </trkpt>
      <trkpt lat="44.71423" lon="-0.08017">
        <ele>64.55</ele>
        <time>2020-07-26T14:34:16Z</time>
      </trkpt>
      <trkpt lat="44.71416" lon="-0.08032">
        <ele>63.1</ele>
        <time>2020-07-26T14:34:28Z</time>
      </trkpt>
      <trkpt lat="44.71422" lon="-0.08046">
        <ele>63.1</ele>
        <time>2020-07-26T14:34:45Z</time>
      </trkpt>
      <trkpt lat="44.71427" lon="-0.08044">
        <ele>63.1</ele>
        <time>2020-07-26T14:35:06Z</time>
      </trkpt>
      <trkpt lat="44.71435" lon="-0.08035">
        <ele>62.62</ele>
        <time>2020-07-26T14:35:25Z</time>
      </trkpt>
    </trkseg>
  </trk>
</gpx>